[[{"header":{"parameterUnit":"m.s-1","parameterCategory":1,"la1":30.6,"la2":29.2853,"lo1":-89.7004,"lo2":-87.6739,"dy":0.0162,"dx":0.0183,"nx":112,"ny":82,"refTime":"2023-05-27T12:00:00:Z","depth":0,"parameterNumber":2,"parameterNumberName":"U-component_of_WINDS"},"data":[0.0,0.0,0.0,0.0,0.0,0.0,0.0,0.0,0.0,0.0,0.0,0.0,0.0,0.0,0.0,0.0,0.0,0.0,0.0,0.0,0.0,0.0,0.0,0.0,0.0,0.0,0.0,0.0,0.0,0.0,0.0,0.0,0.0,0.0,0.0,0.0,0.0,0.0,0.0,0.0,0.0,0.0,0.0,0.0,0.0,0.0,0.0,0.0,0.0,0.0,0.0,0.0,0.0,0.0,0.0,0.0,0.0,0.0,0.0,0.0,0.0,0.0,0.0,0.0,0.0,0.0,0.0,0.0,0.0,0.0,0.0,0.0,0.0,0.0,0.0,0.0,0.0,0.0,0.0,0.0,0.0,0.0,0.0,0.0,0.0,0.0,0.0,0.0,0.0,0.0,-0.1429,-0.5045,-1.0483,-1.4358,-1.5714,-1.3273,-0.8105,0.0378,0.0,0.0,0.0,0.0,0.0,0.0,0.0,0.0,0.0,0.0,0.0,0.0,0.0,0.0,0.0,0.0,0.0,0.0,0.0,0.0,0.0,0.0,0.0,0.0,0.0,0.0,0.0,0.0,0.0,0.0,0.0,0.0,0.0,0.0,0.0,0.0,0.0,0.0,0.0,0.0,0.0,0.0,0.0,0.0,0.0,0.0,0.0,0.0,0.0,0.0,0.0,0.0,0.0,0.0,0.0,0.0,0.0,0.0,0.0,0.0,0.0,0.0,0.0,0.0,0.0,0.0,0.0,0.0,0.0,0.0,0.0,0.0,0.0,0.0,0.0,0.0,0.0,0.0,0.0,0.0,0.0,0.0,0.0,0.0,0.0,0.0,0.0,0.0,0.0,0.0,0.0,0.0,0.0,0.0,0.0,0.0,0.0,0.0,0.0,0.0,0.0,0.0,0.0,0.0,-0.3749,-1.0738,-1.4287,-1.7475,-2.0685,-1.887,-1.2519,-0.0734,0.0,0.0,0.0,0.0,0.0,0.0,0.0,0.0,0.0,0.0,0.0,0.0,0.0,0.0,0.0,0.0,0.0,0.0,0.0,0.0,0.0,0.0,0.0,0.0,0.0,0.0,0.0,0.0,0.0,0.0,0.0,0.0,0.0,0.0,0.0,0.0,0.0,0.0,0.0,0.0,0.0,0.0,0.0,0.0,0.0,0.0,0.0,0.0,0.0,0.0,0.0,0.0,0.0,0.0,0.0,0.0,0.0,0.0,0.0,0.0,0.0,0.0,0.0,0.0,0.0,0.0,0.0,0.0,0.0,0.0,0.0,0.0,0.0,0.0,0.0,0.0,0.0,0.0,0.0,0.0,0.0,0.0,0.0,0.0,0.0,0.0,0.0,0.0,0.0,0.0,0.0,0.0,0.0,0.0,0.0,0.0,0.0,0.0,0.0,0.0,0.0,0.0,0.0,-0.3573,-0.7947,-1.4233,-1.8167,-2.2008,-2.6089,-2.4513,-1.7664,-0.4442,0.1651,0.0,0.0,0.0,0.0,0.0,0.0,0.0,0.0,0.0,0.0,0.0,0.0,0.0,0.0,0.0,0.0,0.0,0.0,0.0,0.0,0.0,0.0,0.0,0.0,0.0,0.0,0.0,0.0,0.0,0.0,0.0,0.0,0.0,0.0,0.0,0.0,0.0,0.0,0.0,0.0,0.0,0.0,0.0,0.0,0.0,0.0,0.0,0.0,0.0,0.0,0.0,0.0,0.0,0.0,0.0,0.0,0.0,0.0,0.0,0.0,0.0,0.0,0.0,0.0,0.0,0.0,0.0,0.0,0.0,0.0,0.0,0.0,0.0,0.0,0.0,0.0,0.0,0.0,0.0,0.0,0.0,0.0,0.0,0.0,0.0,0.0,0.0,0.0,0.0,0.0,0.0,0.0,0.0,0.0,0.0,0.0,0.0,0.0,0.0,0.0,0.0,0.0,-0.6502,-1.1166,-1.6205,-2.0646,-2.5099,-2.9612,-2.8238,-2.1364,-0.7757,-0.2704,0.0,0.0,0.0,0.0,0.0,0.0,0.0,0.0,0.0,0.0,0.0,0.0,0.0,0.0,0.0,0.0,0.0,0.0,0.0,0.0,0.0,0.0,0.0,0.0,0.0,0.0,0.0,0.0,0.0,0.0,0.0,0.0,0.0,0.0,0.0,0.0,0.0,0.0,0.0,0.0,0.0,0.0,0.0,0.0,0.0,0.0,0.0,0.0,0.0,0.0,0.0,0.0,0.0,0.0,0.0,0.0,0.0,0.0,0.0,0.0,0.0,0.0,0.0,0.0,0.0,0.0,0.0,0.0,0.0,0.0,0.0,0.0,0.0,0.0,0.0,0.0,0.0,0.0,0.0,0.0,0.0,0.0,0.0,0.0,0.0,0.0,0.0,0.0,0.0,0.0,0.0,0.0,0.0,0.0,0.0,0.0,0.0,0.0,0.0,0.0,0.0,0.0,-0.6724,-1.1521,-1.6367,-2.0464,-2.4704,-2.9336,-2.8233,-2.1778,-0.8893,-0.416,0.0,0.0,0.0,0.0,0.0,0.0,0.0,0.0,0.0,0.0,0.0,0.0,0.0,0.0,0.0,0.0,0.0,0.0,0.0,0.0,0.0,0.0,0.0,0.0,0.0,0.0,0.0,0.0,0.0,0.0,0.0,0.0,0.0,0.0,0.0,0.0,0.0,0.0,0.0,0.0,0.0,0.0,0.0,0.0,0.0,0.0,0.0,0.0,0.0,0.0,0.0,0.0,0.0,0.0,0.0,0.0,0.0,0.0,0.0,0.0,0.0,0.0,0.0,0.0,0.0,0.0,0.0,0.0,0.0,0.0,0.0,0.0,0.0,0.0,0.0,0.0,0.0,0.0,0.0,0.0,0.0,0.0,0.0,0.0,0.0,0.0,0.0,0.0,0.0,0.0,0.0,0.0,0.0,0.0,0.0,0.0,0.0,0.0,0.0,0.0,0.0,0.0,-0.6542,-1.1449,-1.7048,-2.05,-2.4103,-2.8289,-2.7827,-2.307,-1.3122,0.0,0.0,0.0,0.0,0.0,0.0,0.0,0.0,0.0,0.0,0.0,0.0,0.0,0.0,0.0,0.0,0.0,0.0,0.0,0.0,0.0,0.0,0.0,0.0,0.0,0.0,0.0,0.0,0.0,0.0,0.0,0.0,0.0,0.0,0.0,0.0,0.0,0.0,0.0,0.0,0.0,0.0,0.0,0.0,0.0,0.0,0.0,0.0,0.0,0.0,0.0,0.0,0.0,0.0,0.0,0.0,0.0,0.0,0.0,0.0,0.0,0.0,0.0,0.0,0.0,0.0,0.0,0.0,0.0,0.0,0.0,0.0,0.0,0.0,0.0,0.0,0.0,0.0,0.0,0.0,0.0,0.0,0.0,0.0,0.0,0.0,0.0,0.0,0.0,0.0,0.0,0.0,0.0,0.0,0.0,0.0,0.0,0.0,0.0,0.0,0.0,0.0,-0.2079,-0.6358,-1.1246,-1.7108,-2.0408,-2.3674,-2.7299,-2.6815,-2.356,-1.7101,0.0,0.0,0.0,0.0,0.0,0.0,0.0,0.0,0.0,0.0,0.0,0.0,0.0,0.0,0.0,0.0,0.0,0.0,0.0,0.0,0.0,0.0,0.0,0.0,0.0,0.0,0.0,0.0,0.0,0.0,0.0,0.0,0.0,0.0,0.0,0.0,0.0,0.0,0.0,0.0,0.0,0.0,0.0,0.0,0.0,0.0,0.0,0.0,0.0,0.0,0.0,0.0,0.0,0.0,0.0,0.0,0.0,0.0,0.0,0.0,0.0,0.0,0.0,0.0,0.0,0.0,0.0,0.0,0.0,0.0,0.0,0.0,0.0,0.0,0.0,0.0,0.0,0.0,0.0,0.0,0.0,0.0,0.0,0.0,0.0,0.0,0.0,0.0,0.0,0.0,0.0,0.0,0.0,0.0,0.0,0.0,0.0,0.0,0.0,0.0,0.0,0.0,-0.1916,-0.6233,-1.0926,-1.6432,-2.0124,-2.3442,-2.6527,-2.5202,-2.3063,0.0,0.0,0.0,0.0,0.0,0.0,0.0,0.0,0.0,0.0,0.0,0.0,0.0,0.0,0.0,0.0,0.0,0.0,0.0,0.0,0.0,0.0,0.0,0.0,0.0,0.0,0.0,0.0,0.0,0.0,0.0,0.0,0.0,0.0,0.0,0.0,0.0,0.0,0.0,0.0,0.0,0.0,0.0,0.0,0.0,0.0,0.0,0.0,0.0,0.0,0.0,0.0,0.0,0.0,0.0,0.0,0.0,0.0,0.0,0.0,0.0,0.0,0.0,0.0,0.0,0.0,0.0,0.0,0.0,0.0,0.0,0.0,0.0,0.0,0.0,0.0,0.0,0.0,0.0,0.0,0.0,0.0,0.0,0.0,0.0,0.0,0.0,0.0,0.0,0.0,0.0,0.0,0.0,0.0,0.0,0.0,0.0,0.0,0.0,0.0,0.0,0.0,0.0,-0.2013,-0.7183,-1.2136,-1.6606,-2.0539,-2.3727,-2.5924,-2.5696,-2.5243,-2.4716,0.0,0.0,0.0,0.0,0.0,0.0,0.0,0.0,0.0,0.0,0.0,0.0,0.0,0.0,0.0,0.0,0.0,0.0,0.0,0.0,0.0,0.0,0.0,0.0,0.0,0.0,0.0,0.0,0.0,0.0,0.0,0.0,0.0,0.0,0.0,0.0,0.0,0.0,0.0,0.0,0.0,0.0,0.0,0.0,0.0,0.0,0.0,0.0,0.0,0.0,0.0,0.0,0.0,0.0,0.0,0.0,0.0,0.0,0.0,0.0,0.0,0.0,0.0,0.0,0.0,0.0,0.0,0.0,0.0,0.0,0.0,0.0,0.0,0.0,0.0,0.0,0.0,0.0,0.0,0.0,0.0,0.0,0.0,0.0,0.0,0.0,0.0,0.0,0.0,0.0,0.0,0.0,0.0,0.0,0.0,0.0,0.0,0.0,0.0,0.0,0.0,0.0,-0.2484,-0.8044,-1.3175,-1.7453,-2.1434,-2.4398,-2.5958,-2.6371,-2.6807,-2.7438,0.0,0.0,0.0,0.0,0.0,0.0,0.0,0.0,0.0,0.0,0.0,0.0,0.0,0.0,0.0,0.0,0.0,0.0,0.0,0.0,0.0,0.0,0.0,0.0,0.0,0.0,0.0,0.0,0.0,0.0,0.0,0.0,0.0,0.0,0.0,0.0,0.0,0.0,0.0,0.0,0.0,0.0,0.0,0.0,0.0,0.0,0.0,0.0,0.0,0.0,0.0,0.0,0.0,0.0,0.0,0.0,0.0,0.0,0.0,0.0,0.0,0.0,0.0,0.0,0.0,0.0,0.0,0.0,0.0,0.0,0.0,0.0,0.0,0.0,0.0,0.0,0.0,0.0,0.0,0.0,0.0,0.0,0.0,0.0,0.0,0.0,0.0,0.0,0.0,0.0,0.0,0.0,0.0,0.0,0.0,0.0,0.0,0.0,0.0,0.0,0.0,0.0,-0.3382,-0.9003,-1.4263,-1.8721,-2.2609,-2.5344,-2.6455,-2.7121,-2.7803,-2.8589,0.0,0.0,0.0,0.0,0.0,0.0,0.0,0.0,0.0,0.0,0.0,0.0,0.0,0.0,0.0,0.0,0.0,0.0,0.0,0.0,0.0,0.0,0.0,0.0,0.0,0.0,0.0,0.0,0.0,0.0,0.0,0.0,0.0,0.0,0.0,0.0,0.0,0.0,0.0,0.0,0.0,0.0,0.0,0.0,0.0,0.0,0.0,0.0,0.0,0.0,0.0,0.0,0.0,0.0,0.0,0.0,0.0,0.0,0.0,0.0,-3.3656,-3.2222,0.0,0.0,0.0,0.0,0.0,0.0,0.0,0.0,0.0,0.0,0.0,0.0,0.0,0.0,0.0,0.0,0.0,0.0,0.0,0.0,0.0,0.0,0.0,0.0,0.0,0.0,0.0,0.0,0.0,0.0,0.0,0.0,0.0,0.0,0.0,0.0,0.0,0.0,0.0,0.0,-0.5196,-1.1206,-1.6303,-1.9626,-2.3335,-2.5961,-2.6893,-2.7614,-2.7869,-2.749,-2.4458,0.0,0.0,0.0,0.0,0.0,0.0,0.0,0.0,0.0,0.0,0.0,0.0,0.0,0.0,0.0,0.0,0.0,0.0,0.0,0.0,0.0,0.0,0.0,0.0,0.0,0.0,0.0,0.0,0.0,0.0,0.0,0.0,0.0,0.0,0.0,0.0,0.0,0.0,0.0,0.0,0.0,0.0,0.0,0.0,0.0,0.0,0.0,0.0,0.0,0.0,0.0,0.0,0.0,0.0,0.0,0.0,0.0,0.0,0.0,-3.5669,-3.4685,0.0,0.0,0.0,0.0,0.0,0.0,0.0,0.0,0.0,0.0,0.0,0.0,0.0,0.0,0.0,0.0,0.0,0.0,0.0,0.0,0.0,0.0,0.0,0.0,0.0,0.0,0.0,0.0,0.0,0.0,0.0,0.0,0.0,0.0,0.0,0.0,0.0,0.0,0.0,0.0,-0.7532,-1.2681,-1.7118,-2.0282,-2.3245,-2.5568,-2.6982,-2.7482,-2.7896,-2.8319,-2.6433,0.0,0.0,0.0,0.0,0.0,0.0,0.0,0.0,0.0,0.0,0.0,0.0,0.0,0.0,0.0,0.0,0.0,0.0,0.0,0.0,0.0,0.0,0.0,0.0,0.0,0.0,0.0,0.0,0.0,0.0,0.0,0.0,0.0,0.0,0.0,0.0,0.0,0.0,0.0,0.0,0.0,0.0,0.0,0.0,0.0,0.0,0.0,0.0,0.0,0.0,0.0,0.0,0.0,-3.8694,-3.8663,-3.7864,-3.8601,-3.8633,-3.799,-3.7436,-3.6675,-3.5735,-3.4654,0.0,0.0,0.0,0.0,0.0,0.0,0.0,0.0,0.0,0.0,0.0,0.0,0.0,0.0,0.0,0.0,0.0,0.0,0.0,0.0,0.0,0.0,-2.2708,-2.1776,-2.0231,-1.7461,-1.2032,0.0,0.0,0.0,0.0,0.0,0.0,0.0,0.0,0.0,0.0,0.0,-0.9883,-1.3839,-1.7484,-2.0777,-2.2909,-2.4844,-2.6729,-2.7083,-2.7816,-2.9227,-2.7802,-2.7235,0.0,0.0,0.0,0.0,0.0,0.0,0.0,0.0,0.0,0.0,0.0,0.0,0.0,0.0,0.0,0.0,0.0,0.0,0.0,0.0,0.0,0.0,0.0,0.0,0.0,0.0,0.0,0.0,0.0,0.0,0.0,0.0,-3.51,-3.5759,0.0,0.0,0.0,0.0,0.0,0.0,0.0,0.0,0.0,0.0,0.0,0.0,0.0,-3.8853,-4.0053,-4.0024,-3.9747,-3.9261,-4.0577,-4.0469,-3.9169,-3.9959,-4.0279,-4.0156,-3.9493,0.0,-3.6381,-3.6274,0.0,0.0,0.0,0.0,0.0,0.0,0.0,0.0,0.0,0.0,0.0,0.0,0.0,0.0,0.0,0.0,0.0,0.0,0.0,0.0,0.0,0.0,-2.5721,-2.4825,-2.4015,-2.2429,-1.8759,-1.3509,-0.8803,-0.6496,-0.4348,-0.2532,0.0,0.0,0.0,0.0,0.0,0.0,-1.1628,-1.5007,-1.8194,-2.0988,-2.2974,-2.4609,-2.5859,-2.6739,-2.7369,-2.7771,-2.8224,-2.8317,-2.7933,-2.8011,0.0,0.0,0.0,0.0,0.0,0.0,0.0,0.0,0.0,0.0,0.0,0.0,0.0,0.0,0.0,0.0,0.0,0.0,0.0,0.0,0.0,0.0,0.0,0.0,0.0,0.0,0.0,0.0,0.0,-3.4666,-3.6417,-3.5983,-3.6043,-3.5487,0.0,0.0,0.0,0.0,0.0,0.0,0.0,0.0,0.0,-3.9027,-3.9035,-3.9489,-4.0482,-4.0817,-4.0822,-4.0576,-4.1208,-4.1151,-4.0559,-4.0891,-4.1034,-4.101,-4.0317,-3.9333,-3.8058,-3.7033,-3.5984,-3.4941,0.0,0.0,0.0,0.0,-3.3245,-3.3544,-3.3918,-3.3664,-3.3034,-3.2222,0.0,0.0,0.0,0.0,0.0,0.0,0.0,-2.6341,-2.7007,-2.685,-2.6383,-2.6013,-2.5282,-2.4202,-2.2436,-1.8634,-1.4351,-1.0175,-0.803,-0.6375,-0.4644,-0.4201,0.0,0.0,0.0,-1.0783,-1.4155,-1.6584,-1.8862,-2.117,-2.2531,-2.3901,-2.5499,-2.5764,-2.6382,-2.7655,-2.751,-2.763,-2.8164,-2.8574,-2.8992,0.0,0.0,0.0,0.0,0.0,0.0,0.0,0.0,0.0,0.0,0.0,0.0,0.0,0.0,0.0,0.0,0.0,0.0,0.0,0.0,0.0,0.0,0.0,0.0,0.0,0.0,0.0,0.0,-3.6037,-3.7431,-3.6369,-3.7268,-3.6878,0.0,0.0,0.0,0.0,0.0,0.0,-3.7919,-3.7676,-3.8262,-3.9918,-4.0098,-4.0465,-4.113,-4.165,-4.1878,-4.1878,-4.1878,-4.1895,-4.1889,-4.191,-4.1786,-4.1635,-4.0958,-4.0277,-3.952,-3.7776,-3.666,-3.5878,-3.4711,-3.4262,-3.4247,-3.4068,-3.4008,-3.4083,-3.4562,-3.4653,-3.4317,-3.3168,-3.1518,-2.9627,-2.7888,0.0,0.0,0.0,0.0,-2.6348,-2.7348,-2.6939,-2.6311,-2.6461,-2.5711,-2.4725,-2.3826,-2.1816,-1.8789,-1.4044,-1.1759,-1.0024,-0.8239,-0.7722,0.0,-0.9917,-1.1043,-1.2781,-1.5775,-1.7539,-1.9225,-2.1105,-2.2073,-2.3271,-2.4958,-2.4925,-2.546,-2.7004,-2.6599,-2.6681,-2.7545,-2.7993,-2.8587,-2.9366,0.0,0.0,0.0,0.0,0.0,0.0,0.0,0.0,0.0,0.0,0.0,0.0,0.0,0.0,0.0,0.0,0.0,0.0,0.0,0.0,0.0,0.0,0.0,0.0,0.0,0.0,0.0,0.0,0.0,-3.8322,-3.8975,0.0,0.0,0.0,0.0,-3.582,-3.7889,-3.9185,-3.9307,-3.988,-4.0531,-4.1278,-4.1909,-4.2545,-4.313,-4.3185,-4.3185,-4.3185,-4.3185,-4.3185,-4.3185,-4.3185,-4.2905,-4.2323,-4.1632,-4.0965,-4.0232,-3.8846,-3.7903,-3.724,-3.6596,-3.6327,-3.6252,-3.5624,-3.54,-3.5415,-3.5444,-3.5026,-3.4435,-3.407,-3.1916,-2.9329,-2.8369,-2.7824,0.0,0.0,-2.7023,-2.7562,-2.736,-2.6474,-2.5774,-2.6361,-2.5628,-2.4304,-2.2503,-2.1677,-2.0705,-1.8541,-1.583,-1.3609,-1.279,0.0,-1.2442,-1.1863,-1.3444,-1.4897,-1.5463,-1.7282,-1.9073,-2.0574,-2.1858,-2.2988,-2.3996,-2.4519,-2.4849,-2.4946,-2.5798,-2.6023,-2.5397,-2.6178,-2.688,-2.7426,-2.6285,0.0,0.0,0.0,0.0,0.0,0.0,0.0,0.0,0.0,0.0,0.0,0.0,0.0,0.0,0.0,0.0,0.0,0.0,0.0,0.0,0.0,0.0,0.0,0.0,0.0,0.0,0.0,0.0,-3.7455,-3.9017,0.0,-3.5832,-3.6244,-3.6405,-3.5694,-3.6995,-3.8476,-4.0098,-4.0402,-4.1165,-4.2595,-4.2862,-4.3075,-4.329,-4.329,-4.2941,-4.2208,-4.2208,-4.1637,-4.0533,-4.0523,-4.043,-4.0178,-3.9121,-3.8749,-3.8723,-3.7125,-3.683,-3.7345,-3.6731,-3.5844,-3.4932,-3.5368,-3.4706,-3.3719,-3.4327,-3.3999,-3.3095,-3.2026,-3.0971,-2.9757,-2.8094,-2.7528,-2.7309,-2.669,-2.6714,-2.6833,-2.6341,-2.5503,-2.474,-2.4618,-2.3843,-2.2861,-2.1812,-2.0875,-1.9843,-1.8759,-1.6776,-1.497,-1.4103,-1.3349,-1.3074,-1.3732,-1.4434,-1.5392,-1.6794,-1.8512,-2.0017,-2.1113,-2.2281,-2.3268,-2.3949,-2.4378,-2.4697,-2.4923,-2.4851,-2.4872,-2.4934,-2.4587,-2.4924,-2.6115,-2.4839,-2.4512,0.0,0.0,0.0,0.0,0.0,0.0,0.0,0.0,0.0,0.0,0.0,0.0,0.0,0.0,0.0,0.0,0.0,0.0,0.0,0.0,0.0,0.0,0.0,0.0,0.0,-3.6456,-3.8215,-3.6866,-3.9027,-3.9365,-3.6166,-3.682,-3.7126,-3.6405,-3.7321,-3.8615,-4.0277,-4.034,-4.0891,-4.2125,-4.253,-4.2548,-4.2181,-4.2508,-4.2053,-4.0717,-4.0943,-4.0322,-3.9004,-3.9005,-3.8904,-3.8594,-3.7621,-3.7274,-3.7289,-3.5961,-3.5774,-3.6333,-3.5755,-3.4837,-3.3921,-3.4346,-3.3719,-3.2713,-3.331,-3.2925,-3.1979,-3.1,-3.0469,-2.9883,-2.81,-2.7329,-2.6903,-2.6188,-2.5756,-2.5378,-2.4832,-2.4121,-2.3406,-2.2915,-2.2226,-2.1431,-2.0632,-1.9803,-1.8942,-1.8131,-1.7003,-1.5935,-1.5167,-1.4287,-1.4022,-1.5089,-1.5282,-1.5939,-1.7644,-1.9217,-2.0523,-2.1406,-2.2417,-2.3212,-2.3689,-2.4339,-2.4804,-2.497,-2.4681,-2.4665,-2.5027,-2.4062,-2.4171,-2.552,-2.4308,-2.3759,-2.3933,0.0,0.0,0.0,0.0,0.0,0.0,0.0,0.0,0.0,0.0,0.0,0.0,0.0,0.0,0.0,0.0,0.0,0.0,0.0,0.0,0.0,0.0,0.0,-3.3757,-3.6366,-3.7927,-3.6905,-3.912,-3.9781,-3.7278,-3.8201,-3.8701,-3.8122,-3.9193,-3.9867,-3.9911,-3.9897,-3.9877,-3.9915,-4.0969,-4.1,-3.9899,-4.1,-4.0689,-3.8986,-3.9546,-3.9511,-3.8876,-3.8876,-3.8503,-3.7855,-3.7276,-3.667,-3.6077,-3.551,-3.4851,-3.4245,-3.3762,-3.3564,-3.3431,-3.2814,-3.2558,-3.2558,-3.2522,-3.1911,-3.1117,-3.113,-3.0494,-2.949,-2.8399,-2.7336,-2.6326,-2.5254,-2.4253,-2.3391,-2.2981,-2.2394,-2.1833,-2.1408,-2.0905,-2.0168,-1.886,-1.8564,-1.8174,-1.6914,-1.6658,-1.6502,-1.6144,-1.5694,-1.5501,-1.5829,-1.6027,0.0,-1.7848,-1.9293,-2.0539,-2.1376,-2.219,-2.278,-2.3129,-2.436,-2.5053,-2.4854,-2.5207,-2.5444,-2.5455,-2.4624,-2.4588,-2.5495,-2.4643,-2.3394,-2.1724,0.0,0.0,0.0,0.0,0.0,0.0,0.0,0.0,0.0,0.0,0.0,0.0,0.0,0.0,0.0,0.0,0.0,0.0,0.0,0.0,0.0,-3.0939,-3.2724,-3.4728,-3.6764,-3.813,-3.8271,-3.9316,-3.9587,-3.847,-3.8685,-3.8683,-3.8049,-3.8322,-3.8882,-3.9761,-3.9427,-3.9586,-4.0443,-4.0399,-4.0232,-3.9899,-4.0189,-3.9699,-3.8367,-3.8505,-3.7638,-3.5863,-3.5863,-3.5567,-3.4973,-3.4008,-3.3736,-3.3837,-3.2495,-3.1823,-3.1772,-3.3094,-3.2878,-3.1934,-3.2412,-3.2177,-3.1499,-3.0809,-3.0098,-2.9604,-3.0037,-2.8948,-2.7425,-2.7123,-2.604,-2.4773,-2.4098,-2.3485,-2.2958,-2.2383,-2.1444,-2.0499,-1.9993,-1.9293,-1.8532,-1.7878,-1.7464,-1.7042,-1.639,-1.5742,-1.5381,-1.5557,-1.5365,-1.5263,-1.5434,-1.6284,-1.718,-1.7977,-1.9358,-2.0368,-2.0602,-2.1346,-2.1862,-2.1961,-2.2925,-2.3566,-2.3671,-2.385,-2.4136,-2.4478,-2.3877,-2.3542,-2.35,-2.4109,-2.3753,0.0,0.0,0.0,0.0,0.0,0.0,0.0,0.0,0.0,0.0,0.0,0.0,0.0,0.0,0.0,0.0,0.0,0.0,0.0,0.0,0.0,0.0,-3.13,-3.2881,-3.4788,-3.6437,-3.7573,-3.7956,-3.9025,-3.9572,-3.9245,-3.9057,-3.873,-3.8391,-3.814,-3.8184,-3.8704,-3.8403,-3.8421,-3.8884,-3.9047,-3.8917,-3.845,-3.8917,-3.8439,-3.7019,-3.7019,-3.6204,-3.4668,-3.4487,-3.4198,-3.3847,-3.2955,-3.2629,-3.2616,-3.1436,-3.0809,-3.0702,0.0,0.0,0.0,0.0,-3.0794,-2.9833,-2.9277,-2.8426,-2.7666,-2.8029,-2.715,-2.596,-2.5689,-2.4744,-2.3585,-2.3018,-2.2293,-2.1505,-2.0991,-2.0153,-1.9339,-1.8856,-1.8231,-1.7627,-1.7207,-1.6768,-1.6269,-1.5674,-1.5155,0.0,-1.4967,-1.4886,-1.4991,-1.5579,-1.6343,-1.7256,-1.8296,-1.935,-2.0076,-2.028,-2.0895,-2.1288,-2.1288,-2.2494,0.0,0.0,0.0,-2.401,-2.3843,-2.3697,0.0,0.0,0.0,-2.28,-2.1835,-2.1108,0.0,0.0,-1.9936,-1.9857,0.0,0.0,0.0,0.0,0.0,0.0,0.0,0.0,0.0,0.0,0.0,0.0,0.0,0.0,0.0,0.0,-3.2276,-3.3416,-3.3954,-3.5314,-3.6344,-3.6513,-3.8132,-3.9245,-3.9413,-3.9028,-3.8792,-3.8969,-3.8479,-3.7952,-3.74,-3.7312,0.0,0.0,0.0,-3.7415,-3.6405,-3.7415,-3.711,-3.5596,-3.552,-3.5161,-3.4462,-3.3958,-3.3582,-3.335,-3.2847,-3.2246,-3.1675,-3.1129,-3.0608,-3.0087,-2.9733,-2.9534,-2.9417,-2.9417,-2.8779,-2.7936,-2.7936,0.0,0.0,-2.5813,-2.5413,-2.4809,-2.4312,-2.3421,-2.2545,-2.2001,-2.0898,-1.9814,-1.9394,-1.8883,-1.8385,-1.8071,-1.7619,-1.7125,-1.6794,-1.6377,-1.586,-1.5038,-1.4775,-1.4644,-1.4419,-1.4432,-1.4864,-1.5977,-1.6341,-1.7024,-1.8534,-1.9142,-1.9588,-2.0024,-2.0418,0.0,-2.0667,-2.2277,-2.3256,-2.3256,-2.4196,-2.4327,-2.3443,-2.3837,-2.3528,-2.2441,-2.1815,-2.1224,-2.0663,-1.9856,-1.9172,-1.8647,-1.9223,-1.9336,0.0,0.0,0.0,0.0,0.0,0.0,0.0,0.0,0.0,0.0,0.0,0.0,0.0,0.0,0.0,-2.9243,-3.0199,-3.1047,-3.1519,-3.2839,-3.4261,-3.5416,-3.5888,-3.6607,-3.7796,-3.7817,-3.8254,-3.9482,-3.9433,-3.9132,-3.863,-3.8103,-3.76,-3.7048,-3.6868,-3.6628,-3.6405,-3.6628,-3.6577,-3.6194,-3.5708,0.0,-3.3222,-3.2692,-3.1658,-3.025,-2.97,-2.9196,-2.868,-2.8133,-2.7683,-2.7359,-2.8143,-2.7907,-2.7139,-2.7139,-2.7017,-2.6801,-2.6801,-2.6298,-2.5681,-2.5773,-2.4616,-2.3197,-2.3189,-2.218,0.0,-2.0886,-2.0397,-1.9814,-1.9394,-1.8406,-1.7554,-1.7934,-1.7077,-1.628,-1.6625,-1.6377,-1.5938,-1.5391,-1.4708,-1.4226,-1.4166,-1.4702,-1.5266,-1.5659,-1.652,-1.7235,-1.7561,-1.8062,-1.841,-1.8526,-1.8608,-1.8665,-1.8665,-1.9864,-2.0629,-2.0629,-2.2214,-2.3065,-2.2855,-2.3456,-2.3211,-2.1961,-2.1236,-2.0522,-1.9833,-1.9074,-1.8511,-1.8132,-1.826,-1.8056,0.0,0.0,0.0,0.0,0.0,0.0,0.0,0.0,0.0,0.0,0.0,-2.6173,-2.7412,0.0,-2.9219,-3.0078,-3.0762,-3.126,-3.1494,-3.2006,-3.2788,-3.4045,-3.4847,-3.5563,-3.6325,-3.6379,-3.6703,-3.7435,-3.7292,-3.6977,-3.6652,-3.6006,-3.5458,-3.5085,-3.4623,-3.4338,-3.4338,-3.4338,-3.4338,-3.4338,-3.3767,-3.3041,-3.2187,-3.1425,-3.0559,-2.9685,-2.9205,-2.8567,-2.7829,-2.7091,-2.6351,-2.5714,-2.6243,-2.6449,-2.6524,-2.6524,-2.6141,-2.5597,-2.5411,-2.4652,-2.3697,-2.3547,-2.2656,-2.1671,-2.172,-2.1229,-2.0556,-2.0341,-1.9582,-1.8816,-1.8365,-1.7216,-1.6209,-1.6309,-1.567,-1.5149,-1.5681,-1.5456,-1.5152,-1.5118,-1.4552,-1.4142,-1.4234,-1.4419,-1.4697,-1.5085,-1.6136,-1.6993,-1.7271,-1.7524,-1.7807,-1.8066,-1.8106,-1.8106,-1.8106,-1.8955,-1.9647,-1.9966,-2.1094,-2.1457,-2.0803,-2.1342,-2.1023,-1.9715,-1.9356,-1.8963,-1.8598,-1.7845,-1.7406,-1.7231,-1.6886,-1.6799,0.0,0.0,0.0,0.0,0.0,0.0,0.0,-2.1711,-2.2369,-2.4261,-2.4798,-2.572,-2.8319,-2.9247,-3.0055,-3.1405,-3.1934,-3.2229,-3.2229,-3.1865,-3.1969,-3.2829,-3.3805,-3.4581,-3.4847,-3.4847,-3.5013,-3.5288,-3.4883,-3.4504,-3.4285,-3.3563,-3.3099,-3.2884,-3.2493,-3.228,-3.228,-3.228,-3.228,-3.228,-3.1739,-3.135,-3.0992,-3.0061,-2.9467,-2.9157,-2.8637,-2.7939,-2.702,-2.62,-2.5305,-2.4457,-2.4457,-2.5052,-2.585,-2.585,-2.5263,-2.4395,-2.3992,-2.2915,-2.1614,-2.1063,-2.0529,-2.0066,-1.9981,-1.9962,-1.9886,-1.9506,-1.858,-1.7607,-1.7132,-1.6014,-1.4985,-1.4752,-1.4245,-1.4024,-1.4733,-1.4523,-1.4332,-1.4723,-1.4502,-1.4215,-1.423,-1.4049,-1.4086,-1.4617,-1.5522,-1.6312,-1.6744,-1.6786,-1.6962,-1.7382,-1.7443,-1.7483,-1.7583,-1.8106,-1.8704,-1.945,-1.9786,-1.9546,-1.8683,-1.8931,-1.8623,-1.7605,-1.7468,-1.7385,-1.7385,-1.6652,-1.6293,-1.6265,-1.5517,-1.5542,-1.7669,-1.7654,-1.8069,-1.8919,-1.9573,-2.0532,0.0,-2.327,-2.3958,-2.4581,-2.5483,-2.6641,-2.8196,-2.9013,-3.0076,-3.1818,-3.2139,-3.2229,-3.2229,-3.2129,-3.2191,-3.2263,-3.1741,-3.194,-3.3247,-3.335,-3.3912,-3.5178,-3.4883,-3.4412,-3.391,-3.3447,-3.2942,-3.2381,-3.2314,-3.228,-3.228,-3.228,-3.228,-3.228,-3.1739,-3.074,-2.9243,-2.8686,-2.7569,-2.613,-2.5325,-2.4689,-2.4212,-2.3716,-2.343,-2.3309,-2.3309,-2.3387,-2.3474,-2.3474,-2.3387,-2.324,-2.2817,-2.1973,-2.0879,-2.0035,-1.9097,-1.8219,-1.7799,-1.7658,-1.7649,-1.7607,-1.7321,-1.6896,-1.6413,-1.5429,-1.4537,-1.468,-1.3747,-1.3249,-1.4608,-1.4523,-1.4332,-1.4723,-1.4774,-1.448,-1.3746,-1.4007,-1.4424,-1.465,-1.4812,-1.4926,-1.4983,-1.4983,-1.5005,-1.5062,-1.5084,-1.5268,-1.5741,-1.5857,-1.6331,-1.7291,-1.706,-1.7154,-1.7716,-1.7455,-1.7386,-1.7594,-1.695,-1.6624,-1.6624,-1.5892,-1.5526,-1.5497,-1.4717,-1.4378,-1.8644,-1.868,-1.8767,-1.9085,-1.9771,-2.0524,-2.1176,-2.1858,-2.2739,-2.4032,-2.4773,-2.5787,-2.7554,-2.8966,-2.9897,-2.9885,-3.154,-3.257,-3.153,-3.1836,-3.2229,-3.2229,-3.1416,-3.12,-3.2119,-3.1966,-3.2102,-3.2711,-3.2083,-3.1688,-3.1705,-3.0836,-3.0338,-3.0347,-3.0098,-2.9964,-2.9964,-2.9964,-2.9964,-2.9964,-2.9725,-2.9147,-2.8217,-2.7713,-2.6705,-2.5312,-2.4687,-2.3748,-2.2737,-2.2253,-2.1623,-2.0971,-2.0837,-2.0748,-2.0845,-2.1556,-2.1817,-2.1637,-2.0349,-1.9576,-1.9091,-1.8473,-1.7975,-1.754,-1.7159,-1.7083,-1.6961,-1.6539,-1.5964,-1.5353,-1.4858,-1.397,-1.3097,-1.284,-1.2353,-1.2164,-1.2932,-1.3314,-1.3682,-1.4328,-1.411,-1.3707,-1.3334,-1.2735,-1.2327,-1.2419,-1.3726,-1.4698,-1.4698,-1.4698,-1.4698,-1.4698,-1.4698,-1.4787,-1.5012,-1.5035,-1.5214,-1.563,-1.6061,-1.6239,-1.6159,-1.6504,-1.659,-1.6319,-1.6026,-1.5743,-1.5519,-1.4955,-1.4566,-1.4352,-1.3779,-1.3235,-1.8447,-1.8996,-1.9526,-1.9745,-2.0388,-2.0882,-2.0748,-2.1049,-2.1723,-2.3135,-2.3681,-2.4516,-2.6595,-2.811,-2.889,-2.8469,-3.0494,-3.1607,-3.0349,-3.0664,-3.0934,-3.0934,-3.0213,-2.983,-3.012,-3.0583,-3.0889,-3.0889,-3.0068,-2.9707,-3.001,-2.8926,-2.8428,-2.874,-2.8447,-2.8291,-2.8291,-2.8291,-2.8291,-2.8291,-2.8291,-2.7839,-2.6921,-2.5946,-2.493,-2.3833,-2.3486,-2.2593,-2.1269,-2.0924,-2.0305,-1.9455,-1.919,-1.9093,-1.9156,-1.9505,-1.9886,-2.0067,-1.8524,-1.7795,-1.7437,-1.6999,-1.6642,-1.6398,-1.6172,-1.607,-1.589,-1.5348,-1.4592,-1.3887,-1.3542,-1.2806,-1.2058,-1.155,-1.1329,-1.1396,-1.1742,-1.2266,-1.2876,-1.3565,-1.3356,-1.3005,-1.2757,-1.1906,-1.1216,-1.1083,-1.2657,-1.3889,-1.3897,-1.3912,-1.3912,-1.3912,-1.3726,-1.3632,-1.3632,-1.3784,-1.3894,-1.3809,-1.485,-1.5094,-1.4314,-1.5084,-1.5228,-1.4496,-1.4589,-1.4467,-1.4185,-1.3985,-1.3705,-1.3421,-1.2915,-1.2358,-1.6307,-1.8064,-1.9927,-2.0494,-2.1152,-2.1661,-2.1871,-2.1944,-2.1964,-2.2037,-2.2264,-2.3084,-2.5174,-2.5899,-2.6763,-2.8668,-2.8847,-2.8751,-2.8683,-2.8196,-2.786,-2.786,-2.7156,-2.6723,-2.6732,-2.9287,-3.0889,-3.0889,-3.0068,-2.9636,-2.9646,-2.876,-2.8301,-2.831,-2.8301,-2.8291,-2.8291,-2.8291,-2.8291,-2.8291,-2.8291,-2.7189,-2.502,-2.2835,-2.1429,-2.073,-2.0722,-2.0259,-1.9559,-1.9542,-1.9534,-1.9455,-1.919,-1.9093,-1.8869,-1.7091,-1.7394,-1.8589,-1.8137,-1.7283,-1.6292,-1.5884,-1.5054,-1.4208,-1.4201,-1.3951,-1.3716,-1.3655,-1.3272,-1.286,-1.2847,-1.2385,-1.1839,-1.1462,-1.1209,-1.1144,-1.1691,-1.1834,-1.1951,-1.2386,-1.2753,-1.2715,-1.1877,-1.2077,-1.2184,-1.1752,-1.175,-1.1814,-1.1879,-1.1888,-1.1888,-1.1888,-1.1316,-1.0914,-1.0914,-1.1516,-1.1801,-1.1607,-1.2861,-1.3171,-1.2244,-1.2831,-1.2903,-1.2212,-1.2508,-1.2693,-1.2684,-1.2925,-1.3031,-1.2992,-1.2197,-1.1834,-1.4903,-1.6788,-1.8747,-1.9291,-2.0758,-2.2104,-2.2004,-2.2291,-2.2512,-2.2311,-2.2198,-2.2357,-2.3036,-2.4246,-2.4937,-2.4665,-2.6861,-2.817,-2.7019,-2.7624,-2.7941,-2.7355,-2.6994,-2.6656,-2.6215,-2.7099,-2.8119,-2.9157,-2.8716,-2.8281,-2.8069,-2.7549,-2.6674,-2.5333,-2.5325,-2.5325,-2.5325,-2.5325,-2.5325,-2.5325,-2.4816,-2.4009,-2.2894,-2.1862,-2.0989,-2.0254,-2.0254,-1.9521,-1.8326,-1.8326,-1.7816,-1.7012,-1.6538,-1.638,-1.6263,-1.5197,-1.5163,-1.5574,-1.5465,-1.5183,-1.4831,-1.4685,-1.4412,-1.4015,-1.3621,-1.3434,-1.3313,-1.3106,-1.2797,-1.2536,-1.273,-1.2489,-1.2031,-1.1509,-1.1315,-1.1209,-1.103,-1.1406,-1.1827,-1.1966,-1.1941,-1.1786,-1.1495,-1.0974,-1.0704,-1.0978,-1.1427,-1.1721,-1.1718,-1.1738,-1.1681,-1.1488,-1.1255,-1.1025,-1.0812,-1.1015,-1.1124,-1.1046,-1.1757,-1.2121,-1.1969,-1.228,-1.2436,-1.2426,-1.253,-1.2435,-1.2149,-1.2196,-1.2058,-1.1721,-1.1219,-1.0982,-1.3756,-1.5566,-1.7379,-1.7885,-1.9282,-2.0607,-2.1219,-2.1616,-2.2007,-2.2344,-2.1712,-2.1311,-2.1918,-2.2469,-2.2749,-2.2432,-2.4653,-2.6072,-2.5179,-2.5644,-2.5996,-2.5655,-2.5329,-2.496,-2.4455,-2.4401,-2.5266,-2.7391,-2.7154,-2.683,-2.6577,-2.6136,-2.5285,-2.4028,-2.3832,-2.3822,-2.3822,-2.3822,-2.3764,-2.3624,-2.2543,-2.1687,-2.11,-2.0186,-1.9401,-1.8759,-1.8759,-1.811,-1.7037,-1.7037,-1.6278,-1.5048,-1.4588,-1.413,-1.3698,-1.3118,-1.2984,-1.3126,-1.3851,-1.4088,-1.4046,-1.3603,-1.347,-1.3296,-1.2465,-1.2168,-1.2049,-1.1756,-1.1485,-1.1326,-1.1525,-1.1303,-1.1046,-1.1026,-1.0937,-1.0774,-1.0354,-1.0688,-1.0928,-1.0521,-1.0285,-1.0122,-1.0122,-0.9565,-0.9246,-0.9678,-1.0385,-1.1061,-1.162,-1.14,-1.113,-1.0963,-1.0623,-1.0328,-1.0105,-1.0405,-1.0501,-1.024,-1.122,-1.161,-1.1118,-1.1554,-1.1738,-1.156,-1.1647,-1.1563,-1.1245,-1.1328,-1.105,-1.0462,-1.0235,-0.9977,-1.275,-1.4248,-1.5797,-1.647,-1.6845,-1.7532,-1.9479,-1.9958,-2.0377,-2.1819,-2.0641,-1.9833,-2.1358,-2.0454,-2.0033,-2.1962,-2.2344,-2.2596,-2.3244,-2.2659,-2.2305,-2.2874,-2.2372,-2.1904,-2.1648,-2.1614,-2.273,-2.5521,-2.5414,-2.5218,-2.5193,-2.4563,-2.4179,-2.4089,-2.3755,-2.3567,-2.3543,-2.3543,-2.3411,-2.3152,-2.1402,-2.0255,-1.959,-1.7911,-1.6864,-1.6321,-1.6204,-1.5989,-1.5683,-1.5635,-1.4902,-1.3753,-1.3444,-1.2543,-1.1452,-1.0985,-1.0955,-1.1389,-1.3256,-1.3946,-1.3756,-1.2595,-1.22,-1.1977,-1.0758,-1.0319,-1.0113,-0.9816,-0.9596,-0.9491,-0.9339,-0.907,-0.9067,-1.0077,-1.0066,-0.9811,-0.9669,-0.961,-0.9291,-0.8197,-0.7994,-0.7994,-0.7994,-0.7994,-0.7994,-0.7994,-0.8716,-0.9793,-1.1319,-1.0783,-1.0245,-1.0168,-0.9295,-0.8725,-0.8699,-0.962,-0.9893,-0.9183,-1.1121,-1.1495,-0.98,-1.0667,-1.074,-0.9742,-0.9973,-1.009,-1.0023,-1.0383,-1.0079,-0.9242,-0.9242,-0.878,-1.1383,-1.2962,-1.4653,-1.48,-1.5993,-1.723,-1.7565,-1.7702,-1.7855,-1.805,-1.7353,-1.6818,-1.7089,-1.7044,-1.7806,-2.0288,-2.134,-2.2414,-2.4057,-2.4108,-2.3688,-2.2946,-2.2732,-2.2418,-2.1688,-2.1614,-2.1801,-2.2292,-2.3422,-2.3932,-2.3679,-2.3511,-2.2662,-2.1019,-2.0868,-2.0713,-2.0544,-2.0544,-2.0267,-1.9727,-1.9278,-1.8629,-1.7853,-1.715,-1.662,-1.6211,-1.5049,-1.4472,-1.4316,-1.3301,-1.2721,-1.2356,-1.2115,-1.1785,-1.1467,-1.115,-1.1039,-1.1161,-1.1685,-1.1759,-1.1586,-1.1186,-1.1037,-1.0957,-1.039,-1.024,-1.0178,-1.0104,-0.9792,-0.9517,-0.9706,-0.9455,-0.9165,-0.9202,-0.9061,-0.8877,-0.8617,-0.8501,-0.8354,-0.8069,-0.7994,-0.7994,-0.7994,-0.7994,-0.7994,-0.7994,-0.8188,-0.8495,-0.8888,-0.9302,-0.9224,-0.8314,-0.7977,-0.7715,-0.7415,-0.8308,-0.8757,-0.8465,-0.9659,-1.0258,-1.0,-1.0066,-1.006,-1.0,-1.008,-0.9767,-0.9138,-0.9454,-0.9166,-0.8318,-0.8318,-0.8221,-1.106,-1.2015,-1.2998,-1.3075,-1.3817,-1.4757,-1.5419,-1.559,-1.576,-1.6191,-1.5361,-1.4683,-1.5217,-1.5788,-1.6981,-1.9111,-2.0998,-2.2692,-2.407,-2.4028,-2.3708,-2.3307,-2.3026,-2.2288,-2.0802,-2.06,-2.0104,-1.8926,-2.1125,-2.245,-2.221,-2.2129,-2.1418,-2.0,-1.9867,-1.9659,-1.943,-1.9239,-1.8647,-1.7507,-1.7442,-1.6619,-1.5237,-1.502,-1.4757,-1.4451,-1.3456,-1.3006,-1.2958,-1.2188,-1.156,-1.1058,-1.0888,-1.0504,-0.9952,-0.9716,-0.9699,-0.9703,-0.9584,-0.9515,-0.9543,-0.9838,-0.9923,-0.9779,-0.8986,-0.879,-0.882,-0.8694,-0.8455,-0.8292,-0.8394,-0.8186,-0.8058,-0.8309,-0.8309,-0.8174,-0.7934,-0.7829,-0.7614,-0.7124,-0.7039,-0.7039,-0.7039,-0.7039,-0.7039,-0.7039,-0.7344,-0.7479,-0.7073,-0.7899,-0.8248,-0.7581,-0.7388,-0.723,-0.7016,-0.7607,-0.7961,-0.7889,-0.8566,-0.9015,-0.9164,-0.9027,-0.9021,-0.9164,-0.9164,-0.8945,-0.8463,-0.8644,-0.8291,-0.7437,-0.7437,-0.7209,-1.1345,-1.1419,-1.145,-1.1562,-1.1389,-1.1652,-1.3186,-1.3444,-1.3677,-1.4857,-1.3806,-1.3008,-1.4093,-1.5036,-1.6162,-1.7868,-2.0221,-2.2198,-2.3041,-2.2659,-2.2472,-2.2976,-2.2549,-2.1345,-1.9262,-1.9009,-1.8127,-1.6078,-1.8704,-2.0392,-2.0392,-2.0384,-2.0207,-1.9811,-1.9582,-1.9194,-1.8771,-1.8486,-1.7497,-1.5956,-1.5707,-1.4629,-1.2866,-1.2662,-1.2491,-1.2249,-1.1806,-1.1658,-1.1604,-1.1458,-1.073,-0.9756,-0.9756,-0.9019,-0.7975,-0.7889,-0.7877,-0.7951,-0.7746,-0.774,-0.7935,-0.8678,-0.8923,-0.864,-0.737,-0.7031,-0.7071,-0.6837,-0.6746,-0.6657,-0.64,-0.6212,-0.6323,-0.72,-0.7276,-0.7163,-0.7269,-0.729,-0.6976,-0.6003,-0.58,-0.58,-0.58,-0.58,-0.58,-0.58,-0.644,-0.6655,-0.5907,-0.6735,-0.7373,-0.7247,-0.7031,-0.6864,-0.6835,-0.7173,-0.7377,-0.7353,-0.7772,-0.8004,-0.804,-0.8009,-0.8019,-0.8048,-0.8025,-0.7944,-0.7839,-0.7847,-0.7372,-0.6523,-0.6392,-0.5935,-1.1531,-1.1579,-1.1555,-1.1457,-1.1392,-1.1289,-1.1181,-1.1105,-1.1024,-1.0881,-1.058,-1.0397,-1.0542,-1.1077,-1.2338,-1.4782,-1.5948,-1.7345,-1.9547,-1.9559,-1.9271,-1.8961,-1.8611,-1.811,-1.7188,-1.7058,-1.6732,-1.5949,-1.6431,-1.6824,-1.6824,-1.788,-1.8346,-1.7919,-1.7648,-1.6838,-1.5435,-1.5258,-1.4902,-1.4323,-1.4145,-1.3785,-1.3194,-1.2784,-1.2572,-1.2465,-1.0983,-1.0337,-1.0239,-0.9118,-0.8528,-0.8333,-0.8333,-0.8187,-0.7985,-0.7961,-0.7968,-0.7982,-0.7931,-0.7931,-0.795,-0.7888,-0.7883,-0.7802,-0.744,-0.7312,-0.7292,-0.7071,-0.6937,-0.6623,-0.5605,-0.5229,-0.5151,-0.5225,-0.4487,-0.4202,-0.5915,-0.6181,-0.6046,-0.5842,-0.58,-0.58,-0.58,-0.58,-0.58,-0.58,-0.5943,-0.5979,-0.5803,-0.6517,-0.6743,-0.6015,-0.58,-0.5614,-0.5444,-0.631,-0.6769,-0.6612,-0.7489,-0.8043,-0.8163,-0.8058,-0.8095,-0.8319,-0.8111,-0.7692,-0.7089,-0.6995,-0.6461,-0.562,-0.4812,-0.4381,-1.1599,-1.1674,-1.1694,-1.1548,-1.145,-1.1233,-1.0629,-1.0436,-1.0232,-0.97,-0.9713,-0.9754,-0.9534,-1.0826,-1.2347,-1.3644,-1.521,-1.6805,-1.8265,-1.827,-1.809,-1.7915,-1.7636,-1.689,-1.5365,-1.5236,-1.4666,-1.3288,-1.3193,-1.3991,-1.5682,-1.6243,-1.638,-1.6145,-1.591,-1.537,-1.4604,-1.4377,-1.3803,-1.2799,-1.2585,-1.1939,-1.0988,-1.0611,-1.0491,-1.0418,-0.9411,-0.897,-0.892,-0.8283,-0.7988,-0.7988,-0.7988,-0.7988,-0.7939,-0.7235,-0.6983,-0.6883,-0.6174,-0.5922,-0.5904,-0.5752,-0.6166,-0.6527,-0.5694,-0.5423,-0.54,-0.5289,-0.5139,-0.4872,-0.4294,-0.4055,-0.3955,-0.3872,-0.3445,-0.327,-0.4262,-0.4455,-0.4589,-0.5198,-0.5313,-0.5498,-0.6073,-0.6152,-0.6125,-0.6088,-0.6078,-0.6078,-0.6078,-0.627,-0.624,-0.5743,-0.5633,-0.5559,-0.5484,-0.5949,-0.62,-0.609,-0.6563,-0.6847,-0.6843,-0.6847,-0.6885,-0.6933,-0.6889,-0.6686,-0.632,-0.571,-0.5196,-0.4755,-0.3772,-0.3319,-1.1664,-1.1769,-1.1847,-1.1701,-1.1528,-1.1157,-1.0192,-0.9857,-0.9454,-0.8562,-0.8582,-0.8627,-0.842,-1.0116,-1.1666,-1.2035,-1.3882,-1.5552,-1.6396,-1.6439,-1.6443,-1.6569,-1.6413,-1.5504,-1.3594,-1.3375,-1.2616,-1.0804,-1.0663,-1.1923,-1.4881,-1.469,-1.4465,-1.4377,-1.4211,-1.3944,-1.3591,-1.3332,-1.2552,-1.1265,-1.0924,-1.0147,-0.8871,-0.8621,-0.8482,-0.8465,-0.8167,-0.7988,-0.7988,-0.7686,-0.7587,-0.7534,-0.7232,-0.7129,-0.703,-0.5977,-0.5575,-0.5425,-0.4368,-0.4016,-0.3966,-0.3665,-0.4422,-0.5187,-0.3987,-0.3629,-0.3615,-0.3588,-0.3484,-0.3294,-0.3064,-0.2915,-0.2774,-0.2496,-0.2785,-0.3033,-0.2808,-0.2932,-0.336,-0.434,-0.4502,-0.4852,-0.595,-0.6152,-0.62,-0.6373,-0.6395,-0.6395,-0.6395,-0.6251,-0.6115,-0.5962,-0.5861,-0.58,-0.58,-0.58,-0.58,-0.58,-0.58,-0.5766,-0.5688,-0.5759,-0.5779,-0.5735,-0.5561,-0.5489,-0.5518,-0.4401,-0.3883,-0.3846,-0.2851,-0.2383,-1.1813,-1.1925,-1.2003,-1.185,-1.1599,-1.0846,-0.8694,-0.8054,-0.7357,-0.5501,-0.5174,-0.5176,-0.5159,-0.542,-0.6239,-0.8028,-0.8631,-0.9641,-1.1863,-1.2136,-1.219,-1.2338,-1.2225,-1.1934,-1.1469,-1.1313,-1.1032,-1.0734,-1.0473,-1.1127,-1.2855,-1.2946,-1.277,-1.2487,-1.2402,-1.1736,-1.024,-0.995,-0.9794,-0.9606,-0.9258,-0.9061,-0.8871,-0.8621,-0.8482,-0.8465,-0.8167,-0.7988,-0.7889,-0.6681,-0.6179,-0.6079,-0.482,-0.4366,-0.4366,-0.4218,-0.4166,-0.4166,-0.4066,-0.4016,-0.3815,-0.2564,-0.3061,-0.4141,-0.3871,-0.3803,-0.3738,-0.3616,-0.3592,-0.3303,-0.2218,-0.1906,-0.1633,-0.0525,-0.1729,-0.2832,-0.1936,-0.2467,-0.3132,-0.3265,-0.3262,-0.3631,-0.4843,-0.5054,-0.5424,-0.6496,-0.6661,-0.6661,-0.6661,-0.6647,-0.658,-0.6467,-0.6044,-0.58,-0.58,-0.58,-0.58,-0.58,-0.58,-0.5857,-0.5946,-0.5867,-0.5925,-0.6231,-0.4975,-0.4439,-0.4611,-0.3412,-0.2832,-0.2828,-0.1878,-0.142,-1.0015,-1.0202,-1.0326,-1.0125,-0.9047,-0.7708,-0.653,-0.6187,-0.58,-0.4795,-0.4723,-0.4793,-0.4628,-0.4703,-0.5375,-0.7111,-0.7526,-0.8032,-0.9276,-0.9567,-0.9724,-1.001,-0.9927,-1.0232,-1.1106,-1.1033,-1.0816,-1.0731,-1.0527,-1.0685,-1.1221,-1.1083,-1.0912,-1.0785,-1.0781,-1.0422,-0.9822,-0.9703,-0.9557,-0.9381,-0.9262,-0.9113,-0.8871,-0.8621,-0.8482,-0.8413,-0.7298,-0.6783,-0.6681,-0.5372,-0.482,-0.472,-0.4216,-0.4016,-0.3915,-0.3115,-0.2815,-0.2665,-0.1862,-0.1611,-0.1511,-0.0958,-0.1159,-0.1559,-0.1548,-0.1495,-0.1489,-0.146,-0.1452,-0.1304,-0.086,-0.071,-0.0608,-0.0136,-0.0637,-0.1141,-0.0715,-0.0935,-0.1468,-0.2179,-0.2332,-0.2648,-0.3768,-0.3931,-0.4083,-0.4488,-0.515,-0.5613,-0.5613,-0.6239,-0.6678,-0.6617,-0.6366,-0.6169,-0.6122,-0.6115,-0.6115,-0.6115,-0.6115,-0.6064,-0.5993,-0.5451,-0.517,-0.5234,-0.4107,-0.3583,-0.3655,-0.2557,-0.2054,-0.2016,-0.098,-0.0528,-0.8043,-0.8185,-0.826,-0.8086,-0.6885,-0.5542,-0.4629,-0.4412,-0.4142,-0.334,-0.3316,-0.3372,-0.3176,-0.3229,-0.4021,-0.6133,-0.6561,-0.6979,-0.7822,-0.8475,-0.8653,-0.8072,-0.87,-0.9328,-0.9505,-0.9364,-0.9192,-0.9062,-0.9431,-0.9629,-0.945,-0.9692,-0.9869,-0.9822,-0.9822,-0.9822,-0.9822,-0.9778,-0.9632,-0.9381,-0.9337,-0.895,-0.8257,-0.8028,-0.7654,-0.714,-0.5933,-0.5391,-0.5315,-0.3976,-0.3416,-0.3364,-0.2964,-0.2815,-0.2715,-0.1762,-0.141,-0.126,-0.0303,0.0,0.0,0.0,0.0,0.0,0.0,0.0,0.0,0.0,0.0,0.0,0.0,0.0,0.0,0.0,0.0,0.0,0.0,0.0,-0.0233,-0.1119,-0.129,-0.1588,-0.2681,-0.2837,-0.2942,-0.3197,-0.3986,-0.4527,-0.4527,-0.5249,-0.5746,-0.5712,-0.5626,-0.5644,-0.5881,-0.5872,-0.575,-0.5388,-0.5348,-0.5291,-0.516,-0.4538,-0.4174,-0.4071,-0.3137,-0.2657,-0.2657,-0.1644,-0.1137,-0.1097,-0.0351,0.0155,-0.6008,-0.6197,-0.6277,-0.6048,-0.5934,-0.5319,-0.3334,-0.2797,-0.2197,-0.0396,-0.0057,-0.0058,-0.0059,-0.0059,-0.1129,-0.4403,-0.4914,-0.5612,-0.7529,-0.9252,-0.9156,-0.6211,-0.8599,-0.9231,-0.5952,-0.5563,-0.54,-0.5189,-0.6823,-0.7709,-0.7416,-0.9041,-0.9916,-0.9825,-0.9822,-0.9822,-0.9822,-0.9683,-0.9534,-0.9381,-0.9286,-0.8339,-0.6695,-0.6572,-0.5674,-0.4234,-0.4063,-0.4008,-0.3916,-0.2584,-0.2013,-0.1913,-0.0555,-0.0051,-0.0051,-0.0051,0.0,0.0,0.0,0.0,0.0,0.0,0.0,0.0,0.0,0.0,0.0,0.0,0.0,0.0,0.0,0.0,0.0,0.0,0.0,0.0,0.0,0.0,0.0,0.0,0.0,-0.0381,-0.1616,-0.1823,-0.2213,-0.3405,-0.3616,-0.3612,-0.3612,-0.3612,-0.3541,-0.3339,-0.3333,-0.3774,-0.4824,-0.4897,-0.4395,-0.3221,-0.3138,-0.3147,-0.3117,-0.3113,-0.312,-0.3124,-0.2113,-0.1607,-0.1607,-0.0549,0.0,0.0,0.0,0.0568,-0.4012,-0.404,-0.4103,-0.4013,-0.2921,-0.1671,-0.1026,-0.0866,-0.0716,-0.0115,0.0,0.0,0.0,0.0,-0.0714,-0.2878,-0.3279,-0.3456,-0.4101,-0.4655,-0.4672,-0.3887,-0.5819,-0.6732,-0.5564,-0.5429,-0.5354,-0.5328,-0.5739,-0.5919,-0.5805,-0.6248,-0.7539,-0.9704,-0.9822,-0.9822,-0.9822,-0.8672,-0.7982,-0.7802,-0.6679,-0.5822,-0.5213,-0.5036,-0.468,-0.4163,-0.3072,-0.2623,-0.2535,-0.1162,-0.0656,-0.0605,-0.0151,0.0,0.0,0.0,0.0,0.0,0.0,0.0,0.0,0.0,0.0,0.0,0.0,0.0,0.0,0.0,0.0,0.0,0.0,0.0,0.0,0.0,0.0,0.0,0.0,0.0,0.0,0.0,0.0,-0.0145,-0.0525,-0.0569,-0.0708,-0.1084,-0.1851,-0.2375,-0.2375,-0.3102,-0.3574,-0.35,-0.3492,-0.3542,-0.3659,-0.3684,-0.3517,-0.314,-0.3098,-0.3088,-0.3108,-0.2451,-0.2061,-0.2086,-0.1028,-0.051,-0.051,-0.0157,0.0392,0.1097,0.1785,0.2318,-0.1932,-0.1916,-0.1944,-0.1944,-0.0947,0.0,0.0,0.0,0.0,0.0,0.0,0.0,0.0,0.0,-0.0534,-0.2249,-0.2494,-0.2501,-0.2478,-0.3017,-0.3455,-0.3668,-0.3535,-0.3694,-0.4262,-0.3745,-0.3355,-0.3355,-0.3858,-0.4198,-0.4115,-0.4645,-0.5894,-0.7861,-0.7978,-0.7978,-0.7978,-0.6935,-0.6377,-0.6184,-0.5182,-0.4346,-0.3623,-0.3521,-0.3154,-0.2539,-0.1659,-0.1232,0.0,-0.0362,0.0,0.0,0.0,0.0,0.0,0.0,0.0,0.0,0.0,0.0,0.0,0.0,0.0,0.0,0.0,0.0,0.0,0.0,0.0,0.0,0.0,0.0,0.0,0.0,0.0,0.0,0.0,0.0,0.0,0.0,0.0,0.0,0.0,0.0,0.0,0.0,-0.0663,-0.1122,-0.1122,-0.1773,-0.222,-0.222,-0.2241,-0.2172,-0.1943,-0.2363,-0.2406,-0.1978,-0.1935,-0.1928,-0.1912,-0.1343,-0.0996,-0.0988,-0.0325,0.0242,0.0684,0.1077,0.158,0.219,0.3242,0.3709,0.0,0.0,0.0,0.0,0.0,0.0,0.0,0.0,0.0,0.0,0.0,0.0,0.0,0.0,-0.0533,-0.2044,-0.2318,-0.2352,-0.2326,-0.3636,-0.4532,-0.4532,-0.1846,-0.0594,-0.2172,-0.0934,0.0,0.0,-0.1545,-0.2453,-0.2319,-0.3854,-0.469,-0.4553,-0.4548,-0.4671,-0.4916,-0.4789,-0.4657,-0.4522,-0.4394,-0.3573,-0.2069,-0.2056,-0.1302,0.0,0.0,0.0,0.0,0.0,0.0,0.0,0.0,0.0,0.0,0.0,0.0,0.0,0.0,0.0,0.0,0.0,0.0,0.0,0.0,0.0,0.0,0.0,0.0,0.0,0.0,0.0,0.0,0.0,0.0,0.0,0.0,0.0,0.0,0.0,0.0,0.0,0.0,0.0,0.0,0.0,0.0,0.0,0.0,0.0,0.0,0.0,0.0,0.0,0.0,-0.1033,-0.121,-0.009,0.0,0.0,0.0,0.0,0.0,0.0,0.0084,0.0715,0.1928,0.2951,0.3365,0.3248,0.4345,0.4813,0.0,0.0,0.0,0.0,0.0,0.0,0.0,0.0,0.0,0.0,0.0,0.0,0.0,0.0,-0.0121,-0.0551,-0.0615,-0.0558,-0.0567,-0.0911,-0.1137,-0.1154,-0.0476,-0.0136,-0.0536,-0.0201,0.0,0.0,-0.0404,-0.0598,-0.0581,-0.0967,-0.1208,-0.1172,-0.1171,-0.234,-0.4855,-0.3708,-0.3071,-0.2988,-0.1693,-0.092,-0.0513,-0.0497,-0.0328,0.0,0.0,0.0,0.0,0.0,0.0,0.0,0.0,0.0,0.0,0.0,0.0,0.0,0.0,0.0,0.0,0.0,0.0,0.0,0.0,0.0,0.0,0.0,0.0,0.0,0.0,0.0,0.0,0.0,0.0,0.0,0.0,0.0,0.0,0.0,0.0,0.0,0.0,0.0,0.0,0.0,0.0,0.0,0.0,0.0,0.0,0.0,0.0,0.0,0.0,-0.0274,-0.0314,0.0,0.0,0.0,0.0,0.0,0.0,0.0,0.089,0.1971,0.3185,0.4203,0.4594,0.4496,0.5576,0.6002,0.0,0.0,0.0,0.0,0.0,0.0,0.0,0.0,0.0,0.0,0.0,0.0,0.0,0.0,0.0,0.0,0.0,0.0,0.0,0.0,0.0,0.0,0.0,0.0,0.0,0.0,0.0,0.0,0.0,0.0,0.0,0.0,0.0,0.0,0.0,-0.086,-0.2619,-0.1813,-0.1375,-0.1355,-0.0406,0.0,0.0,0.0,0.0,0.0,0.0,0.0,0.0,0.0,0.0,0.0,0.0,0.0,0.0,0.0,0.0,0.0,0.0,0.0,0.0,0.0,0.0,0.0,0.0,0.0,0.0,0.0,0.0,0.0,0.0,0.0,0.0,0.0,0.0,0.0,0.0,0.0,0.0,0.0,0.0,0.0,0.0,0.0,0.0,0.0,0.0,0.0,0.0,0.0,0.0,0.0,0.0,0.0,0.0,0.0,0.0,0.0,0.0,0.0227,0.0808,0.0843,0.1101,0.1628,0.2823,0.3735,0.4293,0.534,0.575,0.5663,0.6165,0.6375,0.0,0.0,0.0,0.0,0.0,0.0,0.0,0.0,0.0,0.0,0.0,0.0,0.0,0.0,0.0,0.0,0.0,0.0,0.0,0.0,0.0,0.0,0.0,0.0,0.0,0.0,0.0,0.0,0.0,0.0,0.0,0.0,0.0,0.0,0.0,0.0,0.0,0.0,0.0,0.0,0.0,0.0,0.0,0.0,0.0,0.0,0.0,0.0,0.0,0.0,0.0,0.0,0.0,0.0,0.0,0.0,0.0,0.0,0.0,0.0,0.0,0.0,0.0151,0.0303,0.0303,0.0454,0.0605,0.0605,0.0454,0.0303,0.0303,0.0454,0.0555,0.0353,0.0303,0.0252,0.0051,0.0,0.0,0.0,0.0,0.0,0.0,0.0,0.0,0.0,0.0,0.0,0.0,0.0,0.0,0.0,0.0197,0.0294,0.0289,0.0481,0.0619,0.0607,0.0417,0.0824,0.2014,0.2057,0.2637,0.3838,0.4865,0.5398,0.5386,0.6314,0.6692,0.6539,0.646,0.6467,0.0,0.0,0.0,0.0,0.0,0.0,0.0,0.0,0.0,0.0,0.0,0.0,0.0,0.0,0.0,0.0,0.0,0.0,0.0,0.0,0.0,0.0,0.0,0.0,0.0,0.0,0.0,0.0,0.0,0.0,0.0,0.0,0.0,0.0,0.0,0.0,0.0,0.0,0.0,0.0,0.0,0.0,0.0,0.0,0.0,0.0,0.0,0.0,0.0,0.0,0.0,0.0,0.0,0.0,0.0,0.0,0.0,0.0,0.0,0.0,0.0,0.0,0.0756,0.1711,0.1711,0.2464,0.3366,0.3366,0.2564,0.1711,0.1711,0.2514,0.3115,0.1962,0.1711,0.136,0.0252,0.0,0.0,0.0,0.0,0.0,0.0,0.0,0.0,0.0,0.0,0.0,0.0,0.0,0.0,0.0,0.1004,0.1703,0.1697,0.274,0.3409,0.3397,0.221,0.2057,0.3261,0.3303,0.3883,0.509,0.5314,0.5838,0.6794,0.695,0.6957,0.6858,0.6834,0.7246,0.0,0.0,0.0,0.0,0.0,0.0,0.0,0.0,0.0,0.0,0.0,0.0,0.0,0.0,0.0,0.0,0.0,0.0,0.0,0.0,0.0,0.0,0.0,0.0,0.0,0.0,0.0,0.0,0.0,0.0,0.0,0.0,0.0,0.0,0.0,0.0,0.0,0.0,0.0,0.0,0.0,0.0,0.0,0.0,0.0,0.0,0.0,0.0,0.0,0.0,0.0,0.0,0.0,0.0,0.0,0.0,0.0454,0.1058,0.1058,0.1561,0.2163,0.2163,0.2564,0.3065,0.3065,0.3515,0.4016,0.4016,0.3565,0.3065,0.3065,0.3516,0.3865,0.3215,0.3065,0.2914,0.2314,0.2163,0.2163,0.2163,0.2163,0.2163,0.2163,0.2163,0.2163,0.2163,0.2163,0.2163,0.2163,0.2163,0.2163,0.2163,0.2715,0.3065,0.3065,0.3667,0.3968,0.3905,0.3889,0.4063,0.4556,0.5176,0.5753,0.6293,0.6337,0.6561,0.7095,0.7018,0.695,0.6926,0.7464,0.7952,0.0,0.0,0.0,0.0,0.0,0.0,0.0,0.0,0.0,0.0,0.0,0.0,0.0,0.0,0.0,0.0,0.0,0.0,0.0,0.0,0.0,0.0,0.0,0.0,0.0,0.0,0.0,0.0,0.0,0.0,0.0,0.0,0.0,0.0,0.0,0.0,0.0,0.0,0.0,0.0,0.0,0.0,0.0,0.0,0.0,0.0,0.0,0.0,0.0,0.0,0.0,0.0,0.0,0.0216,0.0584,0.0929,0.1679,0.2533,0.2544,0.3189,0.4019,0.4036,0.4232,0.4468,0.4468,0.4668,0.4918,0.4918,0.4918,0.4868,0.4568,0.4718,0.4868,0.4518,0.4468,0.4368,0.4066,0.4016,0.4016,0.4016,0.4016,0.4016,0.4016,0.4016,0.4016,0.4016,0.4016,0.4016,0.4016,0.4016,0.4016,0.4016,0.4268,0.4618,0.4918,0.4918,0.4899,0.4739,0.5605,0.6053,0.5855,0.67,0.7132,0.7095,0.736,0.7536,0.7533,0.7675,0.7787,0.7784,0.856,0.9068,0.0,0.0,0.0,0.0,0.0,0.0,0.0,0.0,0.0,0.0,0.0,0.0,0.0,0.0,0.0,0.0,0.0,0.0,0.0,0.0,0.0,0.0,0.0,0.0,0.0,0.0,0.0,0.0,0.0,0.0,0.0,0.0,0.0,0.0,0.0,0.0,0.0,0.0,0.0,0.0,0.0,0.0,0.0,0.0,0.0,0.0,0.0,0.0,0.0,0.0,0.0,0.0,0.0,0.0853,0.2232,0.3653,0.413,0.4082,0.4257,0.4186,0.4028,0.415,0.494,0.5879,0.5879,0.6731,0.7736,0.7736,0.7736,0.7434,0.6179,0.6781,0.7385,0.6129,0.5879,0.5525,0.4268,0.4016,0.4016,0.4016,0.4016,0.4016,0.4016,0.4016,0.4016,0.4016,0.4016,0.4016,0.4016,0.4016,0.4016,0.4016,0.5122,0.6379,0.7584,0.7736,0.7668,0.7511,0.7591,0.7509,0.7275,0.7353,0.7288,0.7098,0.8193,0.8759,0.8759,0.9822,1.0326,1.0331,1.0398,1.1032,0.0,0.0,0.0,0.0,0.0,0.0,0.0,0.0,0.0,0.0,0.0,0.0,0.0,0.0,0.0,0.0,0.0,0.0,0.0,0.0,0.0,0.0,0.0,0.0,0.0,0.0,0.0,0.0,0.0,0.0,0.0,0.0,0.0,0.0,0.0,0.0,0.0,0.0,0.0,0.0,0.0,0.0,0.0,0.0,0.0,0.0,0.0,0.0,0.0056,0.1001,0.1391,0.1451,0.2399,0.3132,0.3661,0.4156,0.4864,0.5602,0.5467,0.5991,0.6639,0.6606,0.6868,0.7235,0.7235,0.7587,0.7988,0.7988,0.8109,0.8059,0.7406,0.7637,0.7889,0.7385,0.7235,0.7083,0.6578,0.6586,0.6619,0.6492,0.6589,0.6617,0.6489,0.6476,0.6476,0.6476,0.6476,0.6476,0.6476,0.6476,0.6476,0.6476,0.693,0.7437,0.7939,0.7988,0.7965,0.7907,0.7865,0.7723,0.7522,0.7512,0.7485,0.7428,0.8641,0.9269,0.9269,1.0526,1.1155,1.1155,1.1718,1.222,0.0,0.0,0.0,0.0,0.0,0.0,0.0,0.0,0.0,0.0,0.0,0.0,0.0,0.0,0.0,0.0,0.0,0.0,0.0,0.0,0.0,0.0,0.0,0.0,0.0,0.0,0.0,0.0,0.0,0.0,0.0,0.0,0.0,0.0,0.0,0.0,0.0,0.0,0.0246,0.0789,0.078,0.0533,0.0,0.0462,0.0687,0.0682,0.0675,0.0672,0.0784,0.1789,0.218,0.2345,0.3917,0.4503,0.46,0.5397,0.6326,0.7143,0.6963,0.7546,0.833,0.8269,0.8167,0.817,0.8126,0.8143,0.816,0.8015,0.8184,0.8303,0.815,0.8147,0.8167,0.8123,0.8147,0.8153,0.8008,0.816,0.8225,0.8019,0.8126,0.818,0.8123,0.8113,0.813,0.8174,0.818,0.8163,0.8116,0.8113,0.8096,0.7995,0.7988,0.7988,0.7988,0.7988,0.8184,0.8627,0.8521,0.8438,0.8281,0.8273,0.8483,0.8843,1.0033,1.0675,1.0675,1.196,1.2609,1.2603,1.3201,1.3471,0.0,0.0,0.0,0.0,0.0,0.0,0.0,0.0,0.0,0.0,0.0,0.0,0.0,0.0,0.0,0.0,0.0,0.0,0.0,0.0,0.0,0.0,0.0,0.0,0.0,0.0,0.0067,0.0,0.0,0.0,0.0,0.0,0.0,0.0,0.0,0.0,0.0,0.0,0.0863,0.2524,0.2524,0.165,0.0121,0.1572,0.2197,0.2227,0.2211,0.2235,0.2235,0.2235,0.2235,0.2403,0.3967,0.4528,0.4916,0.7817,0.8842,0.8733,0.8828,0.8737,0.8509,0.8659,0.8604,0.8455,0.8364,0.837,0.8418,0.8073,0.8255,0.8452,0.8361,0.8381,0.8452,0.8357,0.8377,0.8401,0.8056,0.8167,0.8231,0.8022,0.7995,0.8096,0.8245,0.8323,0.8371,0.8462,0.8479,0.8428,0.834,0.8323,0.8211,0.8008,0.7988,0.7988,0.7988,0.7988,0.8577,0.9899,0.9998,0.9962,0.9819,0.9814,1.0335,1.1466,1.262,1.3223,1.3223,1.4417,1.5015,1.5015,1.5015,1.5015,0.0,0.0,0.0,0.0,0.0,0.0331,0.1712,0.0971,0.0,0.0,0.1073,0.1594,0.0274,0.1088,0.1618,0.0199,0.0,0.0,0.0,0.0,0.0,0.0,0.113,0.1393,0.0138,0.2302,0.2752,0.0202,0.121,0.1344,0.0067,0.1198,0.1314,0.0065,0.1212,0.1257,0.0,0.1171,0.2033,0.2524,0.3629,0.3903,0.3484,0.3822,0.3944,0.3973,0.3834,0.3799,0.3911,0.4914,0.5973,0.6977,0.7426,0.7595,0.7695,0.8484,0.8818,0.8794,0.8676,0.8628,0.8632,0.857,0.852,0.8455,0.8364,0.835,0.8292,0.8046,0.8255,0.8472,0.8431,0.8611,0.8737,0.8479,0.8374,0.8336,0.8347,0.8472,0.8533,0.8381,0.8438,0.8492,0.8431,0.8388,0.8371,0.8462,0.8397,0.8353,0.8411,0.8333,0.8252,0.8208,0.8106,0.7988,0.7988,0.8871,0.9558,0.9998,1.0828,1.1332,1.1269,1.1269,1.1428,1.1748,1.3034,1.3702,1.3702,1.4944,1.5571,1.5565,1.5364,1.5264,0.0,0.0,0.0,0.0,0.0,0.0337,0.1456,0.1415,0.0937,0.0147,0.0936,0.1409,0.021,0.0968,0.1365,0.0202,0.0,0.0276,0.0972,0.1127,0.1424,0.2141,0.3257,0.3504,0.2352,0.4225,0.4518,0.2284,0.3154,0.3288,0.2216,0.3195,0.3291,0.2209,0.3132,0.3149,0.205,0.2962,0.3812,0.4484,0.5404,0.6233,0.6837,0.5979,0.5594,0.5594,0.5414,0.5363,0.5419,0.5697,0.6702,0.8042,0.8042,0.8042,0.8088,0.8613,0.8804,0.8858,0.8726,0.8723,0.8784,0.8693,0.8662,0.8635,0.8489,0.8486,0.8492,0.8275,0.8431,0.8648,0.8587,0.871,0.8801,0.8618,0.8554,0.8526,0.8489,0.8601,0.8665,0.8513,0.8557,0.8611,0.8577,0.8503,0.8496,0.8642,0.854,0.8476,0.856,0.8394,0.8344,0.8398,0.8167,0.8261,0.8811,0.9549,1.0435,1.1502,1.228,1.2915,1.3451,1.2963,1.2915,1.3451,1.422,1.4657,1.4657,1.5439,1.5784,1.5778,1.5651,1.5571,0.0,0.0,0.0,0.0,0.0136,0.0278,0.0285,0.1603,0.2368,0.0371,0.0146,0.0215,0.0,0.014,0.0207,0.0,0.014,0.0778,0.2278,0.2692,0.3458,0.4919,0.5471,0.565,0.537,0.5778,0.5906,0.5434,0.5563,0.5563,0.5431,0.5563,0.5594,0.5384,0.5368,0.5291,0.5086,0.5137,0.5894,0.7421,0.7545,0.8404,0.9751,0.7962,0.7135,0.7046,0.6958,0.6924,0.6813,0.5475,0.5697,0.6924,0.6924,0.6924,0.7035,0.8364,0.8871,0.8881,0.8868,0.8871,0.8885,0.8885,0.8875,0.8834,0.8737,0.8784,0.8835,0.8547,0.8682,0.8831,0.8747,0.872,0.873,0.873,0.8825,0.879,0.8581,0.8632,0.8689,0.855,0.8523,0.8567,0.8706,0.872,0.8757,0.8841,0.8811,0.8726,0.8713,0.8476,0.8402,0.8657,0.837,0.8796,1.0226,1.0334,1.1356,1.3728,1.4022,1.4609,1.573,1.4704,1.4609,1.5784,1.5784,1.5784,1.5784,1.5784,1.5784,1.5784,1.5784,1.5784,0.0,0.0,0.0,0.0,0.1173,0.2273,0.2309,0.2619,0.233,0.0434,0.1229,0.1806,0.0287,0.128,0.1763,0.028,0.1181,0.174,0.0708,0.1821,0.2378,0.1354,0.371,0.4898,0.344,0.7121,0.8464,0.5631,0.6696,0.6829,0.5498,0.6698,0.6786,0.545,0.6597,0.6565,0.5086,0.6245,0.7055,0.7421,0.865,0.9451,0.9748,0.9157,0.873,0.8463,0.8461,0.8432,0.838,0.8097,0.8156,0.8432,0.8432,0.8432,0.8478,0.8638,0.8835,0.8865,0.8801,0.8838,0.8885,0.8885,0.8804,0.873,0.8577,0.8554,0.8543,0.8367,0.853,0.8754,0.872,0.8801,0.8834,0.8834,0.8821,0.8774,0.8828,0.8811,0.8824,0.8849,0.8842,0.8797,0.8828,0.8791,0.872,0.8754,0.8832,0.8845,0.8726,0.8655,0.8952,0.9745,0.975,1.0212,1.1437,1.2452,1.3295,1.3872,1.4848,1.5486,1.5778,1.5534,1.5534,1.5778,1.5784,1.5784,1.5784,1.5784,1.5784,1.5784,1.5784,1.5784,0.2426,0.1854,0.0988,0.0208,0.1491,0.2888,0.2926,0.292,0.2612,0.1588,0.1449,0.1236,0.0217,0.0794,0.1149,0.0142,0.0774,0.168,0.245,0.3475,0.4367,0.5097,0.6938,0.7781,0.6706,0.9171,0.9987,0.811,0.877,0.8906,0.7971,0.877,0.8875,0.7951,0.8635,0.8571,0.7612,0.8251,0.8526,0.8587,0.939,0.9785,0.9717,0.9561,0.9327,0.9042,0.9042,0.9001,0.8885,0.8885,0.8885,0.8885,0.8885,0.8885,0.8871,0.8849,0.8814,0.8871,0.8849,0.8817,0.8885,0.8885,0.8828,0.8804,0.8723,0.8699,0.8686,0.8611,0.8703,0.8818,0.8818,0.8824,0.8885,0.8885,0.8821,0.8842,0.8865,0.8885,0.8885,0.8885,0.8885,0.8885,0.8885,0.8817,0.8818,0.8818,0.8825,0.904,0.9783,0.9572,0.9931,1.1301,1.1332,1.1725,1.285,1.3665,1.4298,1.4765,1.5439,1.5784,1.5784,1.5784,1.5784,1.5784,1.5784,1.5784,1.5784,1.5784,1.5784,1.5784,1.5784,1.5784,0.4991,0.3813,0.2158,0.086,0.1454,0.2553,0.3241,0.2857,0.2472,0.2836,0.1384,0.0,0.0,0.0,0.0,0.0,0.0285,0.1409,0.4066,0.511,0.656,0.9174,1.0197,1.0555,1.0438,1.0705,1.0789,1.0727,1.0721,1.0721,1.0721,1.0721,1.0707,1.068,1.0422,1.0266,1.0243,0.9961,0.9822,0.9822,0.9822,0.9758,0.9646,0.9618,0.9442,0.9207,0.9183,0.9049,0.8885,0.8885,0.8885,0.8885,0.8885,0.8885,0.8878,0.8854,0.8861,0.8878,0.8854,0.8861,0.8885,0.8885,0.8865,0.8844,0.8844,0.8844,0.8844,0.8844,0.8861,0.8885,0.8885,0.8885,0.8885,0.8885,0.8885,0.8885,0.8885,0.8885,0.8885,0.8885,0.8885,0.8885,0.8885,0.8885,0.8992,0.9265,0.9207,0.9691,1.1255,1.1041,1.1373,1.2944,1.2945,1.3268,1.4376,1.4562,1.499,1.575,1.5784,1.5784,1.5784,1.5784,1.5784,1.5784,1.5784,1.5784,1.5784,1.5784,1.5784,1.5784,1.5784,1.5784,0.4878,0.3707,0.251,0.249,0.1444,0.1239,0.466,0.2841,0.0875,0.2545,0.1384,0.0,0.0,0.0,0.0,0.0,0.1332,0.1937,0.0908,0.3422,0.5008,0.3898,0.6504,0.8405,0.8392,0.9803,1.0744,1.0721,1.0721,1.0721,1.0721,1.0721,1.066,1.0527,1.0365,1.0215,1.0017,0.9907,0.9822,0.9822,0.9822,0.9812,0.9788,0.9666,0.9442,0.9204,0.9022,0.8902,0.8885,0.8885,0.8885,0.8885,0.8885,0.8885,0.8868,0.8791,0.8825,0.8865,0.8788,0.8828,0.8885,0.8885,0.8794,0.874,0.874,0.874,0.874,0.874,0.8835,0.8885,0.8885,0.8885,0.8885,0.8885,0.8885,0.8885,0.8885,0.8885,0.8885,0.8885,0.8885,0.8885,0.8885,0.8885,0.9316,1.0621,1.0815,1.1287,1.2568,1.2849,1.3324,1.443,1.4579,1.5014,1.5914,1.6022,1.5994,1.5798,1.5784,1.5784,1.5784,1.5784,1.5784,1.5784,1.5784,1.5784,1.5784,1.5784,1.5784,1.5784,1.5784,1.5784,0.6578,0.5235,0.3804,0.3057,0.227,0.2045,0.3775,0.2882,0.1836,0.2694,0.1384,0.0,0.0,0.0,0.0,0.0,0.0633,0.1249,0.1454,0.2855,0.4301,0.5539,0.7054,0.8366,0.944,1.0246,1.0721,1.0721,1.0721,1.0721,1.0721,1.0639,1.0561,1.0493,1.027,1.0117,0.9987,0.9835,0.9822,0.9819,0.9741,0.9744,0.9812,0.9496,0.9327,0.933,0.9123,0.9015,0.8885,0.8885,0.8885,0.8885,0.8885,0.8885,0.8875,0.8807,0.8824,0.8875,0.8807,0.8828,0.8885,0.8885,0.8838,0.8838,0.8838,0.8838,0.8838,0.8838,0.8944,0.9059,0.9059,0.9059,0.9059,0.9059,0.8998,0.8885,0.8885,0.8885,0.8885,0.8885,0.8885,0.8885,0.8885,0.8885,0.9427,1.0891,1.1016,1.1804,1.4066,1.4251,1.4585,1.5752,1.5942,1.5996,1.6024,1.6179,1.6146,1.5798,1.5985,1.6005,1.5791,1.5985,1.6079,1.6079,1.5912,1.5784,1.5784,1.5784,1.5784,1.5784,1.5784,1.5784,0.7788,0.6621,0.5286,0.3265,0.2849,0.2839,0.2903,0.2526,0.2281,0.2768,0.1384,0.0,0.0,0.0,0.0,0.0,0.0,0.0486,0.1855,0.2438,0.3689,0.636,0.7429,0.8501,0.9911,1.0449,1.0721,1.0721,1.0721,1.0721,1.0721,1.0575,1.0477,1.0439,1.0185,0.9967,0.993,0.9876,0.9822,0.9819,0.9713,0.972,0.9808,0.9398,0.933,0.9371,0.9181,0.9035,0.8885,0.8885,0.8885,0.8885,0.8885,0.8885,0.8885,0.8885,0.8885,0.8885,0.8885,0.8885,0.8885,0.8885,0.8885,0.8885,0.8885,0.8885,0.8885,0.8885,0.9042,0.921,0.921,0.9238,0.9258,0.9217,0.9069,0.8984,0.8892,0.8885,0.8885,0.8885,0.8885,0.8885,0.8885,0.8885,0.9537,1.1374,1.1572,1.2593,1.5553,1.5713,1.5884,1.6826,1.686,1.6613,1.6044,1.6186,1.6146,1.5798,1.6112,1.6172,1.5952,1.6226,1.638,1.638,1.6166,1.6019,1.5939,1.5818,1.5784,1.5784,1.5784,1.5784,0.7601,0.7314,0.6681,0.3348,0.2597,0.2724,0.2905,0.1459,0.0657,0.2546,0.1384,0.0,0.0,0.0,0.0,0.0,0.0,0.0,0.0137,0.1627,0.2752,0.2953,0.596,0.803,0.8097,0.9709,1.0721,1.0721,1.0721,1.0721,1.0721,1.0575,1.0429,1.0297,1.0134,0.9916,0.9836,0.9825,0.9822,0.9822,0.9815,0.9815,0.9812,0.9507,0.9374,0.9364,0.9076,0.8892,0.8885,0.8885,0.8885,0.8885,0.8885,0.8885,0.8885,0.8885,0.8885,0.8885,0.8885,0.8885,0.8885,0.8885,0.8885,0.8885,0.8885,0.8885,0.8885,0.8885,0.9042,0.921,0.921,0.9316,0.9334,0.9245,0.9204,0.9103,0.8967,0.8885,0.8885,0.8885,0.8885,0.8885,0.8885,0.8885,0.986,1.2729,1.32,1.4223,1.7094,1.745,1.7483,1.7535,1.734,1.7052,1.6687,1.642,1.6146,1.5798,1.6112,1.6315,1.6253,1.6526,1.6687,1.6687,1.6667,1.6526,1.6253,1.5965,1.5784,1.5784,1.5784,1.5784,0.8962,0.8192,0.7241,0.6289,0.5235,0.4457,0.4625,0.322,0.2058,0.2767,0.1384,0.0,0.0,0.0,0.0,0.0,0.0,0.0,0.0,0.0543,0.1411,0.2551,0.4826,0.6765,0.7897,0.9643,1.0721,1.0721,1.0721,1.0721,1.0721,1.0487,1.0334,1.0283,1.0036,0.9876,0.9822,0.9822,0.9822,0.9822,0.9822,0.9822,0.9812,0.9513,0.9381,0.9364,0.9069,0.8885,0.8885,0.8885,0.8885,0.8885,0.8885,0.8885,0.8885,0.8885,0.8885,0.8885,0.8885,0.8885,0.8885,0.8885,0.8885,0.8902,0.9049,0.9076,0.9096,0.9195,0.933,0.9445,0.9445,0.9486,0.949,0.9337,0.9282,0.9221,0.9215,0.9072,0.8964,0.9059,0.9001,0.8885,0.8885,0.9699,1.1,1.2994,1.4073,1.5364,1.7364,1.7582,1.7508,1.7373,1.7266,1.7079,1.6734,1.6613,1.6506,1.64,1.6673,1.6797,1.656,1.6884,1.7038,1.7038,1.68,1.6653,1.6553,1.6253,1.6112,1.6112,1.5919,1.5932,0.9622,0.8989,0.8212,0.7952,0.697,0.6073,0.5653,0.4632,0.3778,0.3851,0.2328,0.0947,0.0947,0.1024,0.0804,0.0144,0.0,0.0,0.0,0.0,0.0681,0.2571,0.4323,0.614,0.7955,0.967,1.0721,1.0721,1.0721,1.0721,1.0721,1.0487,1.0304,1.0205,0.9954,0.9822,0.9822,0.9822,0.9822,0.9822,0.9822,0.9822,0.9812,0.9568,0.9459,0.9445,0.9195,0.9032,0.8885,0.8885,0.8885,0.8885,0.8885,0.8885,0.8885,0.8885,0.8885,0.8885,0.8885,0.8885,0.8892,0.8994,0.9011,0.9039,0.9184,0.9286,0.9309,0.9354,0.9493,0.9608,0.9608,0.9608,0.9585,0.9483,0.934,0.9313,0.9357,0.9147,0.8981,0.918,0.9035,0.9047,0.9533,1.0457,1.1755,1.3696,1.4824,1.5956,1.7417,1.7582,1.7508,1.7367,1.7259,1.7119,1.6874,1.6767,1.6707,1.6707,1.6987,1.7112,1.686,1.7192,1.7347,1.7347,1.7101,1.7001,1.7001,1.6607,1.642,1.6413,1.6213,1.6226,0.0,0.0,0.0,0.8065,0.7664,0.7311,0.6038,0.5628,0.5547,0.5846,0.4355,0.2978,0.2979,0.3085,0.2511,0.0512,0.0144,0.0142,0.0141,0.014,0.0837,0.2748,0.4453,0.6225,0.8136,0.9725,1.0721,1.0721,1.0721,1.0721,1.0721,1.0571,1.0351,0.9987,0.9897,0.9822,0.9822,0.9822,0.9822,0.9822,0.9822,0.9822,0.9815,0.9676,0.9608,0.9602,0.9449,0.9215,0.8892,0.8892,0.8892,0.8888,0.8885,0.8885,0.8892,0.8892,0.8892,0.8892,0.8895,0.8895,0.8974,0.9169,0.9217,0.9245,0.934,0.9388,0.9388,0.9395,0.95,0.9615,0.9615,0.9615,0.9615,0.9615,0.95,0.9388,0.9395,0.9157,0.8988,0.9183,0.9091,0.9427,1.0836,1.116,1.2186,1.4984,1.5417,1.5956,1.7417,1.7582,1.7582,1.7582,1.738,1.7213,1.7213,1.6894,1.6734,1.6734,1.7052,1.7213,1.7213,1.7435,1.7582,1.7582,1.7582,1.7582,1.7582,1.7001,1.672,1.672,1.672,1.6714,0.9412,0.0,0.0,0.0,0.0,0.0,0.9306,0.8148,0.7251,0.7665,0.6105,0.4756,0.4993,0.5136,0.5011,0.4296,0.4276,0.4318,0.4189,0.4217,0.4394,0.4932,0.6467,0.7725,0.8272,0.9725,1.0721,1.0721,1.0721,1.0721,1.0721,1.0477,1.0198,0.9893,0.9842,0.9822,0.9822,0.9822,0.9822,0.9822,0.9822,0.9822,0.9815,0.9676,0.9608,0.9602,0.9449,0.9273,0.9093,0.9093,0.9093,0.9083,0.8981,0.9001,0.9093,0.9093,0.9093,0.911,0.9222,0.9259,0.9266,0.9306,0.9317,0.9347,0.95,0.9547,0.9568,0.9669,0.973,0.9764,0.9764,0.9764,0.9764,0.9764,0.9652,0.9574,0.9676,0.9381,0.9159,0.9204,0.9917,1.0621,1.1055,1.2832,1.4502,1.5257,1.6333,1.7147,1.7529,1.7582,1.7582,1.7582,1.7508,1.7514,1.7514,1.7388,1.7341,1.7341,1.7415,1.7514,1.7514,1.7542,1.7582,1.7582,1.7582,1.7582,1.7582,1.7259,1.7079,1.7079,1.7079,1.6914,0.0,0.0,0.0,0.9849,0.0,0.0,1.0524,0.9755,0.9065,0.9512,0.7992,0.6659,0.6835,0.703,0.7096,0.7046,0.7906,0.7897,0.6072,0.5853,0.6196,0.6902,0.7822,0.8668,0.9448,1.0287,1.0789,1.0724,1.0721,1.0694,1.0629,1.0405,1.0168,0.9862,0.9852,0.9822,0.9822,0.9822,0.9822,0.9822,0.9822,0.9822,0.9819,0.9734,0.9696,0.9693,0.9602,0.9479,0.9344,0.9344,0.9232,0.9062,0.9035,0.9079,0.9217,0.9282,0.9306,0.9316,0.9351,0.9381,0.9391,0.9456,0.9476,0.9503,0.9652,0.9696,0.9717,0.9798,0.9822,0.9822,0.9822,0.9822,0.9822,0.9822,0.9758,0.9703,0.9727,1.0046,1.036,1.036,1.0843,1.1656,1.2914,1.4489,1.5761,1.6246,1.7145,1.7729,1.7602,1.7695,1.7722,1.7595,1.7582,1.7582,1.7582,1.7582,1.7582,1.7582,1.7582,1.7582,1.7582,1.7582,1.7642,1.7776,1.7776,1.7776,1.7776,1.7475,1.738,1.738,1.738,1.7235,0.0,0.0,0.0,0.9819,0.9808,0.0,1.0344,1.0429,1.0544,1.1063,0.9758,0.8517,0.8557,0.8807,0.8955,0.8955,1.0715,1.0783,0.7054,0.6574,0.7267,0.8881,0.8915,0.9493,1.104,1.1033,1.0816,1.0731,1.0721,1.0653,1.05,1.0358,1.0209,0.9994,0.99,0.9822,0.9822,0.9822,0.9822,0.9822,0.9822,0.9822,0.9822,0.9822,0.9822,0.9822,0.9822,0.9741,0.9608,0.9608,0.9374,0.8969,0.9133,0.9245,0.9275,0.9357,0.9405,0.9408,0.9425,0.9432,0.9452,0.9588,0.9632,0.9656,0.9781,0.9822,0.9822,0.9822,0.9822,0.9822,0.9822,0.9822,0.9822,0.9822,0.9822,0.9785,0.9659,1.0728,1.182,1.2194,1.2175,1.2855,1.5516,1.6071,1.6544,1.7556,1.7923,1.7983,1.7675,1.7903,1.7976,1.7662,1.7662,1.7682,1.7682,1.7682,1.7682,1.7682,1.7682,1.7682,1.7682,1.7682,1.7809,1.8035,1.8042,1.8029,1.7995,1.7736,1.7582,1.7582,1.7582,1.7582,0.0,0.0,0.0,0.9791,0.9734,0.0,1.0,1.0042,1.008,1.0531,1.0267,1.0032,1.0309,1.0573,1.0686,1.0686,1.1384,1.1663,1.0952,1.0854,1.0974,1.1176,1.106,1.1034,1.1189,1.1033,1.0816,1.0731,1.0721,1.0653,1.05,1.0358,1.0209,0.9994,0.99,0.9822,0.9822,0.9822,0.9822,0.9822,0.9822,0.9822,0.9822,0.9822,0.9822,0.9822,0.9822,0.9741,0.9608,0.9608,0.9557,0.9469,0.9374,0.9412,0.9523,0.9554,0.9564,0.9581,0.9696,0.9734,0.9741,0.9771,0.9781,0.9785,0.9812,0.9822,0.9822,0.9822,0.9822,0.9822,0.9822,0.9822,0.9822,0.9822,0.9822,0.9815,0.9785,0.9926,1.0873,1.3556,1.4798,1.5546,1.611,1.7197,1.8095,1.8268,1.8364,1.8297,1.7942,1.8217,1.8283,1.7963,1.8156,1.831,1.831,1.831,1.831,1.831,1.831,1.831,1.831,1.831,1.8343,1.8404,1.8404,1.829,1.7995,1.7736,1.7582,1.7582,1.7582,1.7582,0.9754,0.9717,0.9734,0.9802,0.9768,0.0,0.0,0.9926,1.0019,1.0324,1.0331,1.0348,1.0575,1.0731,1.0877,1.1029,1.1304,1.1579,1.1809,1.1969,1.2033,1.1955,1.1816,1.1636,1.1413,1.1189,1.0962,1.0738,1.0721,1.0622,1.0399,1.0321,1.0175,0.9879,0.9863,0.9822,0.9822,0.9822,0.9822,0.9822,0.9822,0.9822,0.9822,0.9822,0.9822,0.9822,0.9822,0.9781,0.9717,0.9717,0.9717,0.97,0.9554,0.9544,0.9618,0.969,0.9717,0.9727,0.9795,0.9822,0.9822,0.9822,0.9822,0.9822,0.9822,0.9822,0.9822,0.9822,0.9822,0.9822,0.9822,0.9822,0.9822,0.9822,0.9822,0.9822,0.9822,1.0361,1.1634,1.4108,1.5704,1.6825,1.7503,1.8235,1.8657,1.851,1.8611,1.8604,1.8303,1.8524,1.8591,1.8283,1.8397,1.849,1.849,1.849,1.849,1.849,1.849,1.849,1.849,1.849,1.8557,1.8704,1.8704,1.8631,1.8428,1.8183,1.7956,1.7816,1.7816,1.7816,0.9944,0.991,0.9903,0.9873,0.9866,0.989,0.0,0.0,0.0,1.0164,1.0192,1.0202,1.0232,1.0331,1.0487,1.0668,1.0921,1.1131,1.1409,1.1677,1.187,1.1925,1.1823,1.1691,1.1545,1.1284,1.1023,1.0782,1.0734,1.0605,1.0334,1.0293,1.0154,0.9873,0.9836,0.9822,0.9822,0.9822,0.9822,0.9822,0.9822,0.9822,0.9822,0.9822,0.9822,0.9822,0.9822,0.9822,0.9822,0.9822,0.9822,0.9812,0.9693,0.9649,0.9663,0.9778,0.9822,0.9822,0.9822,0.9822,0.9822,0.9822,0.9822,0.9822,0.9822,0.9822,0.9822,0.9822,0.9822,0.9822,0.9822,0.9822,0.9822,0.9822,0.9822,0.9822,0.9822,1.1076,1.2693,1.4307,1.5902,1.7434,1.8753,1.9011,1.8931,1.8698,1.8858,1.8905,1.8611,1.8824,1.8898,1.8604,1.8624,1.8657,1.8657,1.8657,1.8657,1.8657,1.8657,1.8657,1.8657,1.8657,1.8771,1.9005,1.9011,1.8978,1.8925,1.8744,1.8477,1.8075,1.8075,1.8049,1.0232,1.0229,1.0195,0.9997,0.996,0.993,0.9873,0.0,0.9852,0.9869,0.0,0.9914,0.999,0.0,0.0,1.0085,1.0385,1.0626,1.0799,1.0968,1.1172,1.1436,1.145,1.1382,1.1229,1.1067,1.089,1.0857,1.0799,1.0646,1.0477,1.0348,1.0202,0.9967,0.989,0.9822,0.9822,0.9822,0.9822,0.9822,0.9822,0.9822,0.9822,0.9822,0.9822,0.9822,0.9822,0.9822,0.9822,0.9822,0.9822,0.9819,0.9802,0.9795,0.9798,0.9815,0.9822,0.9822,0.9822,0.9822,0.9822,0.9822,0.9822,0.9822,0.9822,0.9822,0.9822,0.9822,0.9822,0.9822,0.9822,0.9822,0.9822,0.9822,0.9822,0.9822,0.9822,1.1076,1.2693,1.4307,1.5902,1.7495,1.908,1.9319,1.9305,1.9272,1.9299,1.9205,1.8911,1.9132,1.9205,1.8905,1.9112,1.933,1.933,1.933,1.933,1.933,1.933,1.933,1.933,1.933,1.9285,1.9319,1.9319,1.9185,1.8925,1.9152,1.8985,1.8437,1.8437,1.8297,1.028,1.028,1.0263,1.0202,1.0114,0.997,0.9906,0.9883,0.9822,0.9822,0.0,0.0,0.0,0.0,0.0,0.0,1.0092,1.0287,1.0443,1.0521,1.0799,1.1447,1.1365,1.1202,1.1053,1.0917,1.0843,1.0822,1.0758,1.0619,1.0382,1.0314,1.0168,0.9862,0.9852,0.9822,0.9822,0.9822,0.9822,0.9822,0.9822,0.9822,0.9822,0.9822,0.9822,0.9822,0.9822,0.9822,0.9822,0.9822,0.9873,0.9883,0.9856,0.9822,0.9822,0.9822,0.9822,0.9822,0.9822,0.9822,0.9822,0.9822,0.9822,0.9822,0.9822,0.9822,0.9822,0.9822,0.9822,0.9822,0.9822,0.9822,0.9822,0.9822,1.0539,1.1197,1.1197,1.2453,1.4063,1.5666,1.655,1.7501,1.9127,1.9424,1.9424,1.9424,1.9424,1.9325,1.9199,1.9292,1.9377,1.9192,1.9292,1.9424,1.9424,1.9424,1.9424,1.9424,1.9424,1.9424,1.9424,1.9424,1.9424,1.9424,1.9424,1.9305,1.9185,1.9305,1.9296,1.8998,1.8818,1.8677,1.028,1.028,1.027,1.0226,1.0134,0.9977,0.9933,0.9872,0.9883,0.9883,0.9917,0.0,0.0,0.0,0.9954,0.992,0.0,1.0011,1.0144,1.0154,1.0429,1.1165,1.1128,1.1016,1.0887,1.088,1.0816,1.0731,1.068,1.0527,1.0232,1.0215,1.0093,0.9829,0.9822,0.9822,0.9822,0.9822,0.9822,0.9822,0.9822,0.9822,0.9822,0.9822,0.9822,0.9822,0.9822,0.9822,0.9822,0.9822,0.9849,0.9977,0.9866,0.9883,0.9883,0.9883,0.9883,0.989,0.993,0.992,0.989,0.993,0.9917,0.9883,0.9883,0.9883,0.9876,0.9832,0.9822,0.9822,0.9822,0.9822,0.9822,0.9822,1.102,1.2213,1.2213,1.3825,1.5628,1.6879,1.7432,1.8064,1.9291,1.9419,1.9424,1.9424,1.9424,1.9424,1.9424,1.9424,1.9424,1.9424,1.9424,1.9424,1.9424,1.9424,1.9424,1.9424,1.9424,1.9424,1.9424,1.9424,1.9424,1.9424,1.9424,1.9424,1.9424,1.9424,1.9424,1.9366,1.9145,1.8998,1.028,1.028,1.0246,1.0031,0.999,0.995,0.9863,0.9876,0.998,0.998,1.0161,1.0266,1.0266,1.0266,1.0168,0.0,0.9889,0.0,0.0,0.9836,0.9958,1.0283,1.0568,1.0792,1.0867,1.088,1.0816,1.0731,1.0582,1.0368,1.0011,0.9994,0.9923,0.9825,0.9822,0.9822,0.9822,0.9822,0.9822,0.9822,0.9822,0.9822,0.9822,0.9822,0.9822,0.9822,0.9822,0.9822,0.9822,0.9822,0.9849,0.9987,0.998,0.998,0.998,0.998,0.998,1.0,1.0212,1.0168,1.0004,1.0215,1.0164,0.998,0.998,0.998,0.995,0.9863,0.9822,0.9822,0.9822,0.9822,0.9822,0.9822,1.102,1.2213,1.2213,1.4713,1.7038,1.7344,1.8469,1.9394,1.974,1.9553,1.9424,1.9424,1.9424,1.9424,1.9424,1.9424,1.9424,1.9424,1.9424,1.9424,1.9424,1.9424,1.9424,1.9424,1.9424,1.9424,1.9424,1.9424,1.9424,1.9424,1.9424,1.9424,1.9424,1.9424,1.9424,1.9424,1.9417,1.9199,1.0368,1.0419,1.0385,1.0239,1.0127,0.9923,0.9737,0.9795,0.9897,0.9897,1.01,1.028,1.028,1.028,0.0,0.0,0.0,0.0,0.0,0.9822,0.9897,1.0103,1.0388,1.0592,1.0639,1.0646,1.0585,1.0439,1.0382,1.0263,0.9997,0.9987,0.9916,0.9825,0.9822,0.9822,0.9822,0.9822,0.9822,0.9822,0.9822,0.9822,0.9822,0.9822,0.9822,0.9822,0.9822,0.9822,0.9822,0.9822,0.9849,0.9987,0.9987,1.0048,1.0202,1.0202,1.0137,1.0007,1.0226,1.0246,1.0212,1.0263,1.0246,1.0202,1.0202,1.0202,1.0192,1.0137,1.0053,0.9909,0.9909,0.9897,0.9846,0.9886,1.2037,1.4069,1.4203,1.6801,1.9161,1.9257,1.9483,1.9686,1.978,1.972,1.9586,1.9457,1.9424,1.9424,1.9424,1.9424,1.9424,1.9424,1.9424,1.9424,1.9424,1.9424,1.9424,1.9424,1.9424,1.9424,1.9424,1.9424,1.9424,1.9424,1.9424,1.9424,1.9424,1.9424,1.9424,1.9424,1.9424,1.9312,1.0283,1.0375,1.0382,1.0232,1.0124,0.9936,0.9808,0.988,0.9998,1.0049,1.0259,1.0419,1.0365,0.0,0.0,0.0,0.0,0.0,0.0,0.9744,0.9802,0.9889,1.0185,1.0354,1.0412,1.0415,1.0334,1.0131,1.0168,1.0107,0.9842,0.9879,0.9862,0.9825,0.9822,0.9822,0.9822,0.9876,0.9876,0.9822,0.9876,0.9873,0.9822,0.9822,0.9822,0.9822,0.9822,0.9822,0.9822,0.9822,0.9849,0.9994,1.011,1.0195,1.0287,1.0337,1.0327,1.03,1.0402,1.0402,1.0365,1.0419,1.0399,1.0354,1.0354,1.0354,1.0344,1.0293,1.0209,1.0131,1.0131,1.0059,1.0008,1.0107,1.2655,1.5141,1.5283,1.7866,2.0261,2.0368,2.0154,1.9987,2.0094,1.994,1.97,1.947,1.9452,1.9486,1.9379,1.9424,1.9424,1.9424,1.9424,1.9424,1.9424,1.9424,1.9424,1.9424,1.9424,1.9424,1.9424,1.9424,1.9412,1.9519,1.9419,1.9477,1.9519,1.9477,1.9424,1.9424,1.9424,1.9707]},{"header":{"parameterUnit":"m.s-1","parameterCategory":1,"la1":30.6,"la2":29.2853,"lo1":-89.7004,"lo2":-87.6739,"dy":0.0162,"dx":0.0183,"nx":112,"ny":82,"refTime":"2023-05-27T12:00:00:Z","depth":0,"parameterNumber":3,"parameterNumberName":"V-component_of_WINDS"},"data":[0.0,0.0,0.0,0.0,0.0,0.0,0.0,0.0,0.0,0.0,0.0,0.0,0.0,0.0,0.0,0.0,0.0,0.0,0.0,0.0,0.0,0.0,0.0,0.0,0.0,0.0,0.0,0.0,0.0,0.0,0.0,0.0,0.0,0.0,0.0,0.0,0.0,0.0,0.0,0.0,0.0,0.0,0.0,0.0,0.0,0.0,0.0,0.0,0.0,0.0,0.0,0.0,0.0,0.0,0.0,0.0,0.0,0.0,0.0,0.0,0.0,0.0,0.0,0.0,0.0,0.0,0.0,0.0,0.0,0.0,0.0,0.0,0.0,0.0,0.0,0.0,0.0,0.0,0.0,0.0,0.0,0.0,0.0,0.0,0.0,0.0,0.0,0.0,0.0,0.0,3.2723,3.0979,3.1443,3.1598,3.0924,3.3375,3.3124,2.8884,0.0,0.0,0.0,0.0,0.0,0.0,0.0,0.0,0.0,0.0,0.0,0.0,0.0,0.0,0.0,0.0,0.0,0.0,0.0,0.0,0.0,0.0,0.0,0.0,0.0,0.0,0.0,0.0,0.0,0.0,0.0,0.0,0.0,0.0,0.0,0.0,0.0,0.0,0.0,0.0,0.0,0.0,0.0,0.0,0.0,0.0,0.0,0.0,0.0,0.0,0.0,0.0,0.0,0.0,0.0,0.0,0.0,0.0,0.0,0.0,0.0,0.0,0.0,0.0,0.0,0.0,0.0,0.0,0.0,0.0,0.0,0.0,0.0,0.0,0.0,0.0,0.0,0.0,0.0,0.0,0.0,0.0,0.0,0.0,0.0,0.0,0.0,0.0,0.0,0.0,0.0,0.0,0.0,0.0,0.0,0.0,0.0,0.0,0.0,0.0,0.0,0.0,0.0,0.0,3.0532,3.0323,2.9539,2.9011,2.8933,2.9408,2.8035,2.4012,0.0,0.0,0.0,0.0,0.0,0.0,0.0,0.0,0.0,0.0,0.0,0.0,0.0,0.0,0.0,0.0,0.0,0.0,0.0,0.0,0.0,0.0,0.0,0.0,0.0,0.0,0.0,0.0,0.0,0.0,0.0,0.0,0.0,0.0,0.0,0.0,0.0,0.0,0.0,0.0,0.0,0.0,0.0,0.0,0.0,0.0,0.0,0.0,0.0,0.0,0.0,0.0,0.0,0.0,0.0,0.0,0.0,0.0,0.0,0.0,0.0,0.0,0.0,0.0,0.0,0.0,0.0,0.0,0.0,0.0,0.0,0.0,0.0,0.0,0.0,0.0,0.0,0.0,0.0,0.0,0.0,0.0,0.0,0.0,0.0,0.0,0.0,0.0,0.0,0.0,0.0,0.0,0.0,0.0,0.0,0.0,0.0,0.0,0.0,0.0,0.0,0.0,0.0,2.9904,2.9151,2.8782,2.7254,2.5768,2.4488,2.5662,2.3763,1.7411,2.3614,0.0,0.0,0.0,0.0,0.0,0.0,0.0,0.0,0.0,0.0,0.0,0.0,0.0,0.0,0.0,0.0,0.0,0.0,0.0,0.0,0.0,0.0,0.0,0.0,0.0,0.0,0.0,0.0,0.0,0.0,0.0,0.0,0.0,0.0,0.0,0.0,0.0,0.0,0.0,0.0,0.0,0.0,0.0,0.0,0.0,0.0,0.0,0.0,0.0,0.0,0.0,0.0,0.0,0.0,0.0,0.0,0.0,0.0,0.0,0.0,0.0,0.0,0.0,0.0,0.0,0.0,0.0,0.0,0.0,0.0,0.0,0.0,0.0,0.0,0.0,0.0,0.0,0.0,0.0,0.0,0.0,0.0,0.0,0.0,0.0,0.0,0.0,0.0,0.0,0.0,0.0,0.0,0.0,0.0,0.0,0.0,0.0,0.0,0.0,0.0,0.0,0.0,2.9327,2.8622,2.7788,2.5553,2.3201,2.0976,2.0943,1.7808,1.0271,1.7567,0.0,0.0,0.0,0.0,0.0,0.0,0.0,0.0,0.0,0.0,0.0,0.0,0.0,0.0,0.0,0.0,0.0,0.0,0.0,0.0,0.0,0.0,0.0,0.0,0.0,0.0,0.0,0.0,0.0,0.0,0.0,0.0,0.0,0.0,0.0,0.0,0.0,0.0,0.0,0.0,0.0,0.0,0.0,0.0,0.0,0.0,0.0,0.0,0.0,0.0,0.0,0.0,0.0,0.0,0.0,0.0,0.0,0.0,0.0,0.0,0.0,0.0,0.0,0.0,0.0,0.0,0.0,0.0,0.0,0.0,0.0,0.0,0.0,0.0,0.0,0.0,0.0,0.0,0.0,0.0,0.0,0.0,0.0,0.0,0.0,0.0,0.0,0.0,0.0,0.0,0.0,0.0,0.0,0.0,0.0,0.0,0.0,0.0,0.0,0.0,0.0,0.0,2.9717,2.9342,2.8349,2.5047,2.2243,2.0589,1.4153,0.8062,0.3029,0.8921,0.0,0.0,0.0,0.0,0.0,0.0,0.0,0.0,0.0,0.0,0.0,0.0,0.0,0.0,0.0,0.0,0.0,0.0,0.0,0.0,0.0,0.0,0.0,0.0,0.0,0.0,0.0,0.0,0.0,0.0,0.0,0.0,0.0,0.0,0.0,0.0,0.0,0.0,0.0,0.0,0.0,0.0,0.0,0.0,0.0,0.0,0.0,0.0,0.0,0.0,0.0,0.0,0.0,0.0,0.0,0.0,0.0,0.0,0.0,0.0,0.0,0.0,0.0,0.0,0.0,0.0,0.0,0.0,0.0,0.0,0.0,0.0,0.0,0.0,0.0,0.0,0.0,0.0,0.0,0.0,0.0,0.0,0.0,0.0,0.0,0.0,0.0,0.0,0.0,0.0,0.0,0.0,0.0,0.0,0.0,0.0,0.0,0.0,0.0,0.0,0.0,0.0,2.9358,2.8426,2.6632,2.3844,2.1185,1.8902,1.6638,1.1596,0.2804,0.0,0.0,0.0,0.0,0.0,0.0,0.0,0.0,0.0,0.0,0.0,0.0,0.0,0.0,0.0,0.0,0.0,0.0,0.0,0.0,0.0,0.0,0.0,0.0,0.0,0.0,0.0,0.0,0.0,0.0,0.0,0.0,0.0,0.0,0.0,0.0,0.0,0.0,0.0,0.0,0.0,0.0,0.0,0.0,0.0,0.0,0.0,0.0,0.0,0.0,0.0,0.0,0.0,0.0,0.0,0.0,0.0,0.0,0.0,0.0,0.0,0.0,0.0,0.0,0.0,0.0,0.0,0.0,0.0,0.0,0.0,0.0,0.0,0.0,0.0,0.0,0.0,0.0,0.0,0.0,0.0,0.0,0.0,0.0,0.0,0.0,0.0,0.0,0.0,0.0,0.0,0.0,0.0,0.0,0.0,0.0,0.0,0.0,0.0,0.0,0.0,0.0,2.9732,2.8979,2.7749,2.5847,2.3017,2.0399,1.824,1.6312,1.1396,0.2518,0.0,0.0,0.0,0.0,0.0,0.0,0.0,0.0,0.0,0.0,0.0,0.0,0.0,0.0,0.0,0.0,0.0,0.0,0.0,0.0,0.0,0.0,0.0,0.0,0.0,0.0,0.0,0.0,0.0,0.0,0.0,0.0,0.0,0.0,0.0,0.0,0.0,0.0,0.0,0.0,0.0,0.0,0.0,0.0,0.0,0.0,0.0,0.0,0.0,0.0,0.0,0.0,0.0,0.0,0.0,0.0,0.0,0.0,0.0,0.0,0.0,0.0,0.0,0.0,0.0,0.0,0.0,0.0,0.0,0.0,0.0,0.0,0.0,0.0,0.0,0.0,0.0,0.0,0.0,0.0,0.0,0.0,0.0,0.0,0.0,0.0,0.0,0.0,0.0,0.0,0.0,0.0,0.0,0.0,0.0,0.0,0.0,0.0,0.0,0.0,0.0,0.0,2.9723,2.8706,2.7562,2.6489,2.2747,1.9889,1.8878,1.1485,0.5245,0.0,0.0,0.0,0.0,0.0,0.0,0.0,0.0,0.0,0.0,0.0,0.0,0.0,0.0,0.0,0.0,0.0,0.0,0.0,0.0,0.0,0.0,0.0,0.0,0.0,0.0,0.0,0.0,0.0,0.0,0.0,0.0,0.0,0.0,0.0,0.0,0.0,0.0,0.0,0.0,0.0,0.0,0.0,0.0,0.0,0.0,0.0,0.0,0.0,0.0,0.0,0.0,0.0,0.0,0.0,0.0,0.0,0.0,0.0,0.0,0.0,0.0,0.0,0.0,0.0,0.0,0.0,0.0,0.0,0.0,0.0,0.0,0.0,0.0,0.0,0.0,0.0,0.0,0.0,0.0,0.0,0.0,0.0,0.0,0.0,0.0,0.0,0.0,0.0,0.0,0.0,0.0,0.0,0.0,0.0,0.0,0.0,0.0,0.0,0.0,0.0,0.0,0.0,2.9717,2.8282,2.6708,2.5149,2.1786,1.8958,1.724,1.4985,1.2312,0.9241,0.0,0.0,0.0,0.0,0.0,0.0,0.0,0.0,0.0,0.0,0.0,0.0,0.0,0.0,0.0,0.0,0.0,0.0,0.0,0.0,0.0,0.0,0.0,0.0,0.0,0.0,0.0,0.0,0.0,0.0,0.0,0.0,0.0,0.0,0.0,0.0,0.0,0.0,0.0,0.0,0.0,0.0,0.0,0.0,0.0,0.0,0.0,0.0,0.0,0.0,0.0,0.0,0.0,0.0,0.0,0.0,0.0,0.0,0.0,0.0,0.0,0.0,0.0,0.0,0.0,0.0,0.0,0.0,0.0,0.0,0.0,0.0,0.0,0.0,0.0,0.0,0.0,0.0,0.0,0.0,0.0,0.0,0.0,0.0,0.0,0.0,0.0,0.0,0.0,0.0,0.0,0.0,0.0,0.0,0.0,0.0,0.0,0.0,0.0,0.0,0.0,0.0,2.9505,2.7825,2.5927,2.3967,2.0654,1.7889,1.6102,1.5379,1.4066,1.1788,0.0,0.0,0.0,0.0,0.0,0.0,0.0,0.0,0.0,0.0,0.0,0.0,0.0,0.0,0.0,0.0,0.0,0.0,0.0,0.0,0.0,0.0,0.0,0.0,0.0,0.0,0.0,0.0,0.0,0.0,0.0,0.0,0.0,0.0,0.0,0.0,0.0,0.0,0.0,0.0,0.0,0.0,0.0,0.0,0.0,0.0,0.0,0.0,0.0,0.0,0.0,0.0,0.0,0.0,0.0,0.0,0.0,0.0,0.0,0.0,0.0,0.0,0.0,0.0,0.0,0.0,0.0,0.0,0.0,0.0,0.0,0.0,0.0,0.0,0.0,0.0,0.0,0.0,0.0,0.0,0.0,0.0,0.0,0.0,0.0,0.0,0.0,0.0,0.0,0.0,0.0,0.0,0.0,0.0,0.0,0.0,0.0,0.0,0.0,0.0,0.0,0.0,2.9121,2.7304,2.521,2.2965,1.9481,1.6735,1.5312,1.367,1.2125,1.076,0.0,0.0,0.0,0.0,0.0,0.0,0.0,0.0,0.0,0.0,0.0,0.0,0.0,0.0,0.0,0.0,0.0,0.0,0.0,0.0,0.0,0.0,0.0,0.0,0.0,0.0,0.0,0.0,0.0,0.0,0.0,0.0,0.0,0.0,0.0,0.0,0.0,0.0,0.0,0.0,0.0,0.0,0.0,0.0,0.0,0.0,0.0,0.0,0.0,0.0,0.0,0.0,0.0,0.0,0.0,0.0,0.0,0.0,0.0,0.0,2.2118,2.1734,0.0,0.0,0.0,0.0,0.0,0.0,0.0,0.0,0.0,0.0,0.0,0.0,0.0,0.0,0.0,0.0,0.0,0.0,0.0,0.0,0.0,0.0,0.0,0.0,0.0,0.0,0.0,0.0,0.0,0.0,0.0,0.0,0.0,0.0,0.0,0.0,0.0,0.0,0.0,0.0,2.8733,2.6561,2.4342,2.2379,1.8854,1.5987,1.4488,1.2877,1.1973,1.206,1.4623,0.0,0.0,0.0,0.0,0.0,0.0,0.0,0.0,0.0,0.0,0.0,0.0,0.0,0.0,0.0,0.0,0.0,0.0,0.0,0.0,0.0,0.0,0.0,0.0,0.0,0.0,0.0,0.0,0.0,0.0,0.0,0.0,0.0,0.0,0.0,0.0,0.0,0.0,0.0,0.0,0.0,0.0,0.0,0.0,0.0,0.0,0.0,0.0,0.0,0.0,0.0,0.0,0.0,0.0,0.0,0.0,0.0,0.0,0.0,2.3108,2.2471,0.0,0.0,0.0,0.0,0.0,0.0,0.0,0.0,0.0,0.0,0.0,0.0,0.0,0.0,0.0,0.0,0.0,0.0,0.0,0.0,0.0,0.0,0.0,0.0,0.0,0.0,0.0,0.0,0.0,0.0,0.0,0.0,0.0,0.0,0.0,0.0,0.0,0.0,0.0,0.0,2.811,2.5715,2.3293,2.1141,1.7477,1.4502,1.2798,1.0756,0.981,1.0307,1.17,0.0,0.0,0.0,0.0,0.0,0.0,0.0,0.0,0.0,0.0,0.0,0.0,0.0,0.0,0.0,0.0,0.0,0.0,0.0,0.0,0.0,0.0,0.0,0.0,0.0,0.0,0.0,0.0,0.0,0.0,0.0,0.0,0.0,0.0,0.0,0.0,0.0,0.0,0.0,0.0,0.0,0.0,0.0,0.0,0.0,0.0,0.0,0.0,0.0,0.0,0.0,0.0,0.0,2.792,2.7962,2.7699,2.7981,2.8004,2.7792,2.5669,2.4912,2.5138,2.4434,0.0,0.0,0.0,0.0,0.0,0.0,0.0,0.0,0.0,0.0,0.0,0.0,0.0,0.0,0.0,0.0,0.0,0.0,0.0,0.0,0.0,0.0,3.1544,3.1982,3.2613,3.3363,3.4215,0.0,0.0,0.0,0.0,0.0,0.0,0.0,0.0,0.0,0.0,0.0,2.706,2.4776,2.2328,1.9673,1.6078,1.3141,1.1209,0.8735,0.7421,0.7661,0.8599,0.9745,0.0,0.0,0.0,0.0,0.0,0.0,0.0,0.0,0.0,0.0,0.0,0.0,0.0,0.0,0.0,0.0,0.0,0.0,0.0,0.0,0.0,0.0,0.0,0.0,0.0,0.0,0.0,0.0,0.0,0.0,0.0,0.0,2.9453,3.0005,0.0,0.0,0.0,0.0,0.0,0.0,0.0,0.0,0.0,0.0,0.0,0.0,0.0,2.6084,2.8504,2.9213,2.9816,3.0262,3.0369,3.0773,3.1296,3.0731,3.1117,3.2157,3.0441,0.0,2.595,2.7025,0.0,0.0,0.0,0.0,0.0,0.0,0.0,0.0,0.0,0.0,0.0,0.0,0.0,0.0,0.0,0.0,0.0,0.0,0.0,0.0,0.0,0.0,3.1622,3.2207,3.2013,3.1958,3.2988,3.4185,3.4822,3.4014,3.3882,3.3576,0.0,0.0,0.0,0.0,0.0,0.0,2.5007,2.3671,2.1779,1.8487,1.5606,1.3085,1.101,0.8656,0.7046,0.6475,0.6678,0.7588,0.9278,1.0577,0.0,0.0,0.0,0.0,0.0,0.0,0.0,0.0,0.0,0.0,0.0,0.0,0.0,0.0,0.0,0.0,0.0,0.0,0.0,0.0,0.0,0.0,0.0,0.0,0.0,0.0,0.0,0.0,0.0,2.9542,3.0557,3.0193,3.0244,3.0175,0.0,0.0,0.0,0.0,0.0,0.0,0.0,0.0,0.0,2.8225,2.9818,3.1271,3.2563,3.2613,3.2763,3.3005,3.2999,3.3101,3.3212,3.3113,3.3526,3.4259,3.3014,3.1498,2.9868,2.8609,2.824,2.8357,0.0,0.0,0.0,0.0,2.7896,2.8147,2.8461,2.8247,2.7965,2.8633,0.0,0.0,0.0,0.0,0.0,0.0,0.0,3.0102,3.0661,3.1161,3.1582,3.1838,3.1999,3.2117,3.2191,3.3529,3.4645,3.4487,3.4608,3.4395,3.3311,3.2739,0.0,0.0,0.0,2.7114,2.4394,2.2108,1.9661,1.6839,1.4216,1.1722,0.9375,0.7785,0.6486,0.5532,0.5848,0.6729,0.8209,0.97,1.1129,0.0,0.0,0.0,0.0,0.0,0.0,0.0,0.0,0.0,0.0,0.0,0.0,0.0,0.0,0.0,0.0,0.0,0.0,0.0,0.0,0.0,0.0,0.0,0.0,0.0,0.0,0.0,0.0,3.0915,3.1899,3.0585,3.1759,3.227,0.0,0.0,0.0,0.0,0.0,0.0,2.838,3.0442,3.1331,3.0561,3.3646,3.5409,3.5596,3.5259,3.514,3.514,3.514,3.4998,3.4761,3.5011,3.5219,3.5246,3.4444,3.3796,3.3088,3.0318,2.9555,3.0105,2.9126,2.875,2.8737,2.8586,2.8536,2.8599,2.9001,2.9013,2.8988,2.9538,2.9975,3.028,3.0235,0.0,0.0,0.0,0.0,3.0511,3.0776,3.1058,3.1286,3.1466,3.168,3.179,3.1618,3.2497,3.3465,3.4011,3.4641,3.4674,3.3353,3.2634,0.0,2.9532,2.7767,2.5775,2.3332,2.0672,1.8045,1.551,1.3132,1.0728,0.8321,0.7177,0.623,0.5402,0.5624,0.6498,0.8029,0.9468,1.0653,1.1568,0.0,0.0,0.0,0.0,0.0,0.0,0.0,0.0,0.0,0.0,0.0,0.0,0.0,0.0,0.0,0.0,0.0,0.0,0.0,0.0,0.0,0.0,0.0,0.0,0.0,0.0,0.0,0.0,0.0,3.2298,3.4558,0.0,0.0,0.0,0.0,3.2895,3.2864,3.288,3.2764,3.3389,3.4464,3.5962,3.5557,3.5621,3.6351,3.6317,3.6317,3.6317,3.6317,3.6317,3.6317,3.6317,3.5922,3.5278,3.4856,3.4374,3.3759,3.2524,3.1734,3.1248,3.0708,3.0482,3.0419,2.9892,2.9704,2.9716,2.9741,2.939,2.9151,3.0609,3.1501,3.2147,3.2997,3.1867,0.0,0.0,3.0881,3.0611,3.2035,3.1481,3.0717,3.1346,3.061,3.008,3.1258,3.103,3.0914,3.2033,3.3282,3.3683,3.2159,0.0,3.0699,2.7363,2.6819,2.5227,2.0945,1.9577,1.7864,1.4879,1.2843,1.0873,0.8823,0.7379,0.6571,0.651,0.6075,0.6791,0.9025,0.9335,1.0894,1.3974,1.5716,0.0,0.0,0.0,0.0,0.0,0.0,0.0,0.0,0.0,0.0,0.0,0.0,0.0,0.0,0.0,0.0,0.0,0.0,0.0,0.0,0.0,0.0,0.0,0.0,0.0,0.0,0.0,0.0,3.5777,3.7844,0.0,3.7024,3.6482,3.6405,3.6721,3.6197,3.5489,3.455,3.551,3.618,3.6379,3.6125,3.6144,3.6405,3.6405,3.6756,3.7507,3.7507,3.7326,3.706,3.7705,3.8033,3.8044,3.6802,3.6371,3.6427,3.4848,3.309,3.1336,3.0821,3.0749,3.0905,3.0074,3.057,3.1513,3.0908,3.095,3.1406,3.2166,3.2566,3.276,3.2821,3.2303,3.1693,3.1528,3.1278,3.1072,3.1184,3.1144,3.1033,3.088,3.0794,3.0754,3.0792,3.0516,3.0266,3.024,3.114,3.1831,3.1584,3.0337,2.877,2.7024,2.5,2.2766,2.0327,1.8112,1.603,1.4174,1.2256,1.0451,0.8835,0.7833,0.6907,0.5955,0.7009,0.8082,0.9044,1.0947,1.2734,1.4364,1.6402,1.8097,0.0,0.0,0.0,0.0,0.0,0.0,0.0,0.0,0.0,0.0,0.0,0.0,0.0,0.0,0.0,0.0,0.0,0.0,0.0,0.0,0.0,0.0,0.0,0.0,0.0,3.7751,3.9229,3.7679,4.0237,4.1482,3.9816,3.9399,3.938,3.9729,3.8816,3.7864,3.6907,3.77,3.7882,3.7188,3.7052,3.715,3.7566,3.7196,3.7534,3.8639,3.8684,3.8431,3.7913,3.8582,3.8988,3.9103,3.7703,3.7193,3.7289,3.5882,3.4172,3.2357,3.1772,3.1713,3.184,3.1061,3.1513,3.25,3.1888,3.2285,3.3115,3.3316,3.3618,3.3776,3.3047,3.3006,3.3001,3.2123,3.202,3.2048,3.1359,3.1294,3.1273,3.0617,3.0591,3.0606,3.009,2.9919,2.9733,2.9228,2.9673,3.0127,3.0172,2.8734,2.7226,2.6267,2.3588,2.1249,1.9986,1.7303,1.5048,1.3835,1.2171,1.067,0.9511,0.8679,0.791,0.716,0.8589,0.9592,0.9953,1.236,1.3955,1.4586,1.6941,1.8856,2.0306,0.0,0.0,0.0,0.0,0.0,0.0,0.0,0.0,0.0,0.0,0.0,0.0,0.0,0.0,0.0,0.0,0.0,0.0,0.0,0.0,0.0,0.0,0.0,3.7491,3.9686,4.0583,3.805,4.1768,4.3603,4.1311,4.2056,4.242,4.1785,4.0674,4.0041,3.9998,3.9984,3.9617,3.8798,3.8372,3.8738,3.9899,3.8738,3.8697,3.9759,3.9892,3.9597,3.8961,3.8961,3.8671,3.8103,3.7439,3.683,3.6235,3.5587,3.5003,3.4394,3.3689,3.3418,3.3358,3.2814,3.2629,3.2629,3.2664,3.3262,3.4032,3.4047,3.4695,3.5222,3.3919,3.3983,3.4231,3.2986,3.3077,3.3406,3.2668,3.1982,3.1326,3.0574,2.9925,2.9414,2.9251,2.9209,2.9155,2.9003,2.8925,2.8654,2.7891,2.7114,2.6185,2.4907,2.273,0.0,1.9778,1.7219,1.506,1.3882,1.2619,1.1607,1.0939,0.9935,0.9617,1.0327,1.0797,1.1328,1.2006,1.3509,1.4519,1.498,1.7416,1.9673,2.1724,0.0,0.0,0.0,0.0,0.0,0.0,0.0,0.0,0.0,0.0,0.0,0.0,0.0,0.0,0.0,0.0,0.0,0.0,0.0,0.0,0.0,4.2487,4.323,4.1204,4.2856,4.4155,4.3929,4.5427,4.6044,4.4944,4.5094,4.4993,4.4353,4.3988,4.3468,4.2638,4.2095,4.1352,4.0267,3.97,3.9536,3.9899,3.9579,3.996,4.1054,4.1112,4.0984,4.0715,4.0715,4.0378,3.9704,3.8523,3.8216,3.8414,3.681,3.6049,3.5755,3.4046,3.3603,3.3725,3.2911,3.3031,3.3705,3.4442,3.4548,3.4433,3.4937,3.4961,3.4711,3.4328,3.44,3.4413,3.3551,3.3077,3.2636,3.1966,3.1569,3.1191,3.0495,3.0504,3.054,2.9976,2.9427,2.8859,2.8245,2.7266,2.664,2.6945,2.5698,2.4249,2.3043,2.0936,1.9249,1.8616,1.679,1.5453,1.5106,1.3928,1.3104,1.2936,1.2545,1.217,1.1834,1.3254,1.4324,1.4854,1.6258,1.77,1.9115,1.9698,2.0785,0.0,0.0,0.0,0.0,0.0,0.0,0.0,0.0,0.0,0.0,0.0,0.0,0.0,0.0,0.0,0.0,0.0,0.0,0.0,0.0,0.0,0.0,4.5225,4.6311,4.5439,4.5911,4.6503,4.6872,4.7132,4.716,4.677,4.6444,4.6157,4.5753,4.5454,4.4906,4.3939,4.3502,4.2858,4.1881,4.1057,4.0831,4.1323,4.0831,4.1041,4.1935,4.1935,4.174,4.1407,4.11,4.0756,4.0337,3.9275,3.8886,3.8871,3.7464,3.6716,3.6347,0.0,0.0,0.0,0.0,3.4351,3.5163,3.5753,3.5737,3.5491,3.5876,3.5543,3.4924,3.4638,3.477,3.4884,3.4207,3.3681,3.3193,3.2479,3.2018,3.1558,3.0845,3.072,3.0531,2.9803,2.9042,2.818,2.708,2.6184,0.0,2.5094,2.4115,2.3194,2.2614,2.0592,1.8997,1.8577,1.7007,1.5862,1.5632,1.4699,1.4123,1.4123,1.409,0.0,0.0,0.0,1.6617,1.7523,1.8556,0.0,0.0,0.0,2.1542,2.271,2.3858,0.0,0.0,2.7377,2.8893,0.0,0.0,0.0,0.0,0.0,0.0,0.0,0.0,0.0,0.0,0.0,0.0,0.0,0.0,0.0,0.0,4.7516,4.9079,4.9752,4.8941,4.823,4.8126,4.7832,4.7609,4.7495,4.6926,4.6539,4.6441,4.5858,4.5229,4.4571,4.4466,0.0,0.0,0.0,4.229,4.329,4.229,4.2038,4.2515,4.2425,4.2089,4.1528,4.083,4.0558,4.0547,3.9847,3.9204,3.851,3.7847,3.7213,3.6579,3.5909,3.5668,3.5765,3.5765,3.618,3.6737,3.6737,0.0,0.0,3.6694,3.621,3.5513,3.4883,3.5136,3.5473,3.487,3.4609,3.432,3.3592,3.2872,3.2167,3.1379,3.0671,2.9963,2.9162,2.8366,2.7401,2.5981,2.5592,2.4922,2.3187,2.2764,2.2671,2.2765,2.0916,1.9413,1.9109,1.7618,1.64,1.5928,1.5386,0.0,1.5084,1.5311,1.5466,1.5466,1.71,1.8667,1.9978,2.0539,2.0862,2.0926,2.1578,2.2267,2.2999,2.4685,2.5269,2.4858,2.7264,2.8939,0.0,0.0,0.0,0.0,0.0,0.0,0.0,0.0,0.0,0.0,0.0,0.0,0.0,0.0,0.0,4.9031,5.0508,5.1799,5.2586,5.1795,5.0795,4.9997,4.9851,4.9472,4.8594,4.8404,4.7985,4.7158,4.6995,4.6636,4.5935,4.5409,4.4811,4.4152,4.3358,4.3076,4.329,4.3076,4.3016,4.3135,4.265,0.0,4.2427,4.175,4.1538,4.1636,4.0973,4.0277,3.9566,3.8901,3.819,3.7484,3.6677,3.6783,3.7354,3.7354,3.7442,3.7573,3.7573,3.7211,3.6762,3.6722,3.6239,3.5635,3.5453,3.5495,0.0,3.5458,3.4975,3.432,3.3592,3.312,3.2584,3.1458,3.0887,3.0298,2.9236,2.8366,2.7536,2.6657,2.554,2.4578,2.4229,2.3078,2.1904,2.097,1.9819,1.9016,1.8956,1.826,1.774,1.7619,1.7504,1.7443,1.7443,1.8362,1.8944,1.8944,2.0625,2.1745,2.2022,2.2552,2.286,2.2941,2.3482,2.4134,2.4878,2.566,2.6499,2.7394,2.7918,2.8004,0.0,0.0,0.0,0.0,0.0,0.0,0.0,0.0,0.0,0.0,0.0,4.7461,4.784,0.0,5.0608,5.2097,5.3281,5.4143,5.4549,5.3797,5.2727,5.1315,5.0703,5.0204,4.9655,4.9615,4.9376,4.8897,4.849,4.819,4.7874,4.6818,4.6106,4.5826,4.5122,4.475,4.475,4.475,4.475,4.475,4.4105,4.3847,4.3898,4.2858,4.2449,4.2494,4.1805,4.0893,3.9836,3.8779,3.8341,3.8302,3.7917,3.7774,3.7793,3.7793,3.8035,3.8309,3.794,3.76,3.7287,3.6873,3.6257,3.5625,3.5618,3.5595,3.5515,3.5143,3.47,3.412,3.3388,3.2984,3.2511,3.1497,3.0837,3.0137,2.8956,2.81,2.7264,2.6318,2.5269,2.4311,2.3689,2.2633,2.1585,2.0763,1.9882,1.9207,1.893,1.8669,1.84,1.8145,1.8106,1.8106,1.8106,1.8914,1.9519,1.9836,2.1606,2.2611,2.2554,2.3755,2.4399,2.4346,2.4608,2.4937,2.5307,2.5844,2.6423,2.7048,2.7288,2.7616,0.0,0.0,0.0,0.0,0.0,0.0,0.0,4.8057,4.797,4.8793,4.9333,4.9938,5.0827,5.1694,5.2853,5.4533,5.531,5.5681,5.5681,5.5192,5.4272,5.2793,5.1684,5.0908,5.0703,5.0703,5.0589,5.0397,4.9703,4.9277,4.9192,4.7933,4.7161,4.7073,4.6513,4.6208,4.6208,4.6208,4.6208,4.6208,4.5539,4.519,4.52,4.3944,4.338,4.333,4.2456,4.1324,4.0059,3.8752,3.8596,3.9139,3.9139,3.8761,3.8234,3.8234,3.8624,3.904,3.8302,3.8137,3.8105,3.7228,3.6564,3.6107,3.5954,3.592,3.5783,3.519,3.476,3.4278,3.3533,3.3108,3.2599,3.1545,3.0812,2.9988,2.8683,2.7824,2.6954,2.5825,2.5118,2.4314,2.3051,2.2266,2.1639,2.1071,2.0413,1.9788,1.9346,1.931,1.913,1.8722,1.8665,1.8708,1.8855,1.9248,1.9839,2.0585,2.1975,2.2835,2.3021,2.4395,2.5168,2.5202,2.5297,2.5354,2.5354,2.5888,2.6138,2.6156,2.6607,2.7471,4.8545,4.8176,4.8814,5.0769,4.9849,4.9568,0.0,5.32,5.197,5.2714,5.4492,5.5543,5.4308,5.5291,5.6121,5.567,5.5666,5.5681,5.5681,5.5649,5.5477,5.5322,5.4021,5.2765,5.1813,5.1724,5.1357,5.0474,4.9703,4.9032,4.8429,4.7657,4.6937,4.6353,4.6256,4.6208,4.6208,4.6208,4.6208,4.6208,4.5539,4.5254,4.5355,4.4598,4.4334,4.436,4.2885,4.1809,4.1002,4.0161,3.9876,3.9969,3.9969,3.9901,3.985,3.985,3.9901,3.9851,3.9126,3.9136,3.9267,3.7879,3.7683,3.7877,3.7212,3.702,3.7002,3.6914,3.6315,3.5522,3.48,3.435,3.3633,3.1751,3.1058,3.0381,2.8747,2.7824,2.6954,2.5825,2.5525,2.5018,2.357,2.2913,2.2212,2.1167,2.091,2.0829,2.0764,2.0764,2.0748,2.0683,2.0667,2.0919,2.1517,2.1626,2.2222,2.3529,2.3214,2.3557,2.4837,2.4471,2.4544,2.5186,2.567,2.5906,2.5906,2.6384,2.6624,2.6641,2.7035,2.7327,5.1224,5.1149,5.1387,5.2435,5.3057,5.3817,5.5345,5.5667,5.5756,5.6105,5.7317,5.8088,5.7444,5.7468,5.7738,5.8337,5.7638,5.713,5.7621,5.6558,5.5681,5.5681,5.4414,5.35,5.3456,5.3069,5.2644,5.2222,5.1094,5.0466,5.0616,4.911,4.8316,4.8448,4.8051,4.7836,4.7836,4.7836,4.7836,4.7836,4.757,4.7216,4.6845,4.6123,4.511,4.3842,4.276,4.2082,4.166,4.0878,4.0774,4.1047,4.0567,4.0393,4.0365,4.0012,3.987,3.9746,3.8884,3.8732,3.8713,3.7667,3.7474,3.7508,3.6694,3.6427,3.6269,3.5367,3.503,3.479,3.4069,3.3936,3.3571,3.1781,3.1261,3.0685,2.8792,2.7991,2.7442,2.6735,2.5853,2.505,2.443,2.3577,2.2821,2.2347,2.1546,2.0991,2.0991,2.0991,2.0991,2.0991,2.0991,2.1119,2.139,2.1422,2.1678,2.227,2.2778,2.3463,2.4414,2.4935,2.5486,2.6053,2.628,2.62,2.5765,2.6636,2.6828,2.6433,2.7263,2.7747,5.2456,5.309,5.3647,5.4066,5.5827,5.7373,5.7005,5.7831,5.8686,5.8732,5.9357,5.9925,5.9909,5.9602,5.9728,6.0879,5.9847,5.9133,5.9723,5.7976,5.6678,5.6678,5.5358,5.4655,5.5186,5.4193,5.3501,5.3501,5.208,5.1454,5.1978,5.0101,4.9238,4.9779,4.9272,4.9001,4.9001,4.9001,4.9001,4.9001,4.9001,4.8585,4.7826,4.705,4.5559,4.3554,4.3031,4.2492,4.1969,4.1399,4.1402,4.1722,4.0919,4.0598,4.0503,3.9771,3.956,3.9491,3.8619,3.838,3.8372,3.7627,3.7488,3.7488,3.6862,3.6523,3.6112,3.4984,3.4587,3.4371,3.3836,3.3578,3.3128,3.1733,3.1231,3.0582,2.8791,2.821,2.7851,2.7282,2.6426,2.5662,2.5241,2.4615,2.4121,2.3903,2.2952,2.2067,2.1553,2.1473,2.1473,2.1473,2.1546,2.1606,2.1606,2.1532,2.1601,2.1886,2.2704,2.3523,2.4301,2.5229,2.5916,2.6354,2.6593,2.6437,2.5923,2.6937,2.719,2.6699,2.7618,2.817,5.1135,5.2837,5.4748,5.6308,5.7918,5.9313,6.0089,6.0291,6.0346,6.034,6.0964,6.1535,6.1534,6.2143,6.2669,6.2724,6.2039,6.1481,6.1512,6.0123,5.9072,5.9072,5.7742,5.6822,5.684,5.4793,5.3501,5.3501,5.208,5.1202,5.1219,4.9813,4.9018,4.9035,4.9018,4.9001,4.9001,4.9001,4.9001,4.9001,4.9001,4.855,4.7682,4.6818,4.5564,4.4079,4.4062,4.32,4.1825,4.1789,4.1771,4.1722,4.0919,4.0598,4.0465,3.9424,3.9184,3.9302,3.8565,3.8592,3.8851,3.8111,3.8216,3.8643,3.8624,3.8071,3.7429,3.7389,3.6219,3.4976,3.494,3.3798,3.2417,3.1599,3.0797,2.9905,2.8665,2.8394,2.807,2.7023,2.7348,2.7345,2.5838,2.6198,2.6428,2.5638,2.5488,2.4768,2.2881,2.2656,2.2656,2.2656,2.2947,2.3141,2.3141,2.2848,2.3098,2.4131,2.3687,2.4007,2.5385,2.5181,2.5188,2.5531,2.6298,2.6686,2.6668,2.7483,2.7865,2.7862,2.8219,2.8394,5.3064,5.4913,5.6852,5.8503,5.9862,6.0731,6.0456,6.1245,6.1851,6.13,6.0988,6.0805,6.0802,6.0582,6.0766,6.1824,6.1776,6.1813,6.2325,6.1503,6.0263,5.8662,5.8054,5.7328,5.6219,5.5408,5.4743,5.4264,5.3304,5.2496,5.1966,5.1004,5.0431,5.0397,5.038,5.038,5.038,5.038,5.038,5.038,4.9368,4.8155,4.6811,4.5964,4.4756,4.3311,4.3311,4.296,4.24,4.24,4.2617,4.2776,4.1452,4.0926,4.0762,3.9334,3.8866,3.8913,3.8641,3.8669,3.8763,3.8506,3.8546,3.8505,3.7422,3.6909,3.6578,3.6009,3.5041,3.4325,3.4857,3.4197,3.3054,3.1727,3.1195,3.0589,2.9113,2.859,2.8291,2.7936,2.7627,2.7269,2.6756,2.6658,2.6493,2.6021,2.5742,2.5351,2.4706,2.4609,2.442,2.3885,2.3931,2.3779,2.3254,2.3093,2.3193,2.3554,2.3841,2.4445,2.5451,2.5389,2.5639,2.6272,2.6568,2.6441,2.5906,2.7473,2.7981,2.753,2.8391,2.8797,5.5428,5.7096,5.8671,6.062,6.1624,6.2038,6.1625,6.2335,6.2798,6.1808,6.1101,6.06,6.0425,6.0097,6.0242,6.1423,6.1597,6.1986,6.3112,6.2101,6.0873,5.9893,5.931,5.8448,5.7092,5.6966,5.6417,5.5089,5.4313,5.3667,5.316,5.2136,5.1555,5.1528,5.1254,5.1086,5.1086,5.1086,5.0962,5.0661,4.961,4.8283,4.6705,4.6149,4.5021,4.3532,4.3532,4.332,4.2976,4.2976,4.3249,4.3548,4.2218,4.1776,4.1694,4.0076,3.9667,3.9806,3.8979,3.8707,3.8723,3.8818,3.8844,3.8615,3.7391,3.7037,3.6809,3.5651,3.4958,3.46,3.4822,3.4278,3.3376,3.2249,3.1763,3.1179,2.9857,2.9365,2.9131,2.8906,2.8452,2.8096,2.8096,2.7877,2.7635,2.7424,2.7143,2.6622,2.572,2.5454,2.5147,2.4623,2.4431,2.4112,2.3591,2.3716,2.3866,2.3979,2.4764,2.5402,2.5877,2.6027,2.6287,2.6665,2.6946,2.6833,2.6332,2.7863,2.8415,2.8075,2.8802,2.9181,5.811,5.9349,6.0269,6.2556,6.3143,6.3219,6.3465,6.3541,6.3182,6.1829,6.1244,6.0812,6.0314,6.0689,6.1199,6.1592,6.1808,6.2506,6.4079,6.2254,6.1282,6.2633,6.1465,6.0181,5.9276,5.9184,5.8262,5.6002,5.5127,5.4701,5.4648,5.3282,5.2449,5.2404,5.1676,5.1268,5.1215,5.1215,5.0781,4.9933,4.9816,4.8901,4.7295,4.7121,4.6177,4.4691,4.4671,4.423,4.3531,4.3548,4.3742,4.3953,4.3129,4.3033,4.3114,4.1541,4.1427,4.1776,3.9618,3.8842,3.8847,3.9054,3.9139,3.9024,3.8465,3.8343,3.8074,3.6476,3.5969,3.5734,3.5006,3.4148,3.3401,3.3089,3.2418,3.1598,3.0783,3.0596,3.0389,2.9811,2.9705,2.9705,2.9705,2.9705,2.9705,2.9705,2.9542,2.8542,2.6109,2.5404,2.512,2.5088,2.4695,2.4384,2.4311,2.4738,2.5114,2.5403,2.6279,2.6756,2.6654,2.6992,2.7005,2.6675,2.7402,2.7816,2.782,2.8624,2.9167,2.9423,2.9423,2.9523,6.068,6.1979,6.2845,6.3473,6.3848,6.3747,6.2541,6.2766,6.2784,6.1182,5.9778,5.8652,5.7922,5.944,6.1091,6.1979,6.4717,6.6747,6.6775,6.6237,6.5081,6.3044,6.2456,6.1386,5.9386,5.9184,5.8699,5.751,5.6721,5.6041,5.5448,5.5053,5.4542,5.3877,5.3663,5.3263,5.2658,5.2658,5.1948,5.0565,5.055,4.9334,4.7122,4.6488,4.5663,4.469,4.4332,4.4051,4.3896,4.4194,4.4364,4.4366,4.3501,4.3227,4.3171,4.2164,4.193,4.2019,4.1431,4.0841,4.024,3.9664,3.9462,3.9342,3.8607,3.8384,3.832,3.7874,3.6866,3.5989,3.6384,3.544,3.4204,3.3465,3.2673,3.1873,3.1073,3.0396,2.9869,2.9725,2.9705,2.9705,2.9705,2.9705,2.9705,2.9705,2.9652,2.9383,2.8735,2.8419,2.8074,2.7624,2.7479,2.6904,2.5649,2.6051,2.6171,2.5671,2.6269,2.6899,2.7475,2.7013,2.6995,2.7475,2.7695,2.7869,2.802,2.8883,2.9405,2.9616,2.9616,2.9643,6.2724,6.3661,6.4245,6.4628,6.4314,6.3603,6.2421,6.2237,6.1771,5.9901,5.8606,5.7551,5.6543,5.8412,6.021,6.0613,6.3678,6.6137,6.6583,6.6017,6.5136,6.4035,6.3264,6.2077,6.0199,6.0041,5.9652,5.8684,5.7845,5.7176,5.6746,5.6358,5.5796,5.495,5.4583,5.4014,5.3203,5.2858,5.2116,5.1025,5.0655,4.9491,4.7601,4.6748,4.5929,4.5146,4.4535,4.4261,4.4276,4.4514,4.4701,4.4768,4.4287,4.4178,4.4206,4.3378,4.3302,4.3541,4.2787,4.2482,4.2176,4.0783,4.0361,4.0154,3.9118,3.9042,3.9176,3.8423,3.7556,3.6832,3.6909,3.5995,3.4902,3.4281,3.3798,3.3248,3.2422,3.1845,3.1414,3.1169,3.1108,3.1108,3.1108,3.1108,3.1108,3.1108,3.1037,3.1005,3.11,2.9872,2.8884,2.8542,2.8188,2.7584,2.665,2.7198,2.7423,2.6955,2.7587,2.8163,2.8628,2.82,2.8181,2.8628,2.8628,2.8697,2.8802,2.9298,2.9644,2.9829,2.9829,2.9885,6.4339,6.4762,6.4936,6.557,6.4589,6.3252,6.2371,6.1597,6.0444,5.8232,5.7506,5.6911,5.5746,5.7621,5.9282,5.9137,6.1548,6.4014,6.5748,6.466,6.4125,6.5335,6.4119,6.2655,6.1323,6.1218,6.0711,5.9486,5.8652,5.819,5.819,5.7365,5.6474,5.5558,5.4727,5.4015,5.3378,5.2567,5.1916,5.1388,5.0586,4.9586,4.8438,4.7461,4.6617,4.5914,4.5041,4.4676,4.467,4.4707,4.4908,4.5169,4.5169,4.5342,4.5518,4.4739,4.496,4.5383,4.3932,4.3893,4.4156,4.2183,4.1533,4.1313,4.001,4.0131,4.0362,3.8777,3.8257,3.7995,3.7247,3.6388,3.5635,3.5388,3.5173,3.4818,3.4017,3.3753,3.354,3.2993,3.2891,3.2891,3.2891,3.2891,3.2891,3.2891,3.2752,3.2709,3.2872,3.0536,2.8898,2.893,2.8199,2.7657,2.7543,2.8244,2.8655,2.8561,2.9259,2.9742,2.9875,2.9761,2.9799,3.0034,2.9818,2.9779,2.9908,2.9805,2.9845,3.0042,3.007,3.0184,6.5397,6.5667,6.5532,6.4974,6.4609,6.3615,6.0697,5.9917,5.9118,5.664,5.6061,5.5758,5.4875,5.7318,5.9974,6.1571,6.4563,6.7373,6.9308,6.8777,6.7762,6.6673,6.5716,6.4214,6.1977,6.177,6.111,5.9521,5.9248,5.9158,5.9158,5.803,5.6675,5.515,5.4314,5.4019,5.4274,5.343,5.2618,5.1867,5.1005,5.0131,4.9239,4.7711,4.6919,4.6725,4.553,4.5,4.5022,4.5322,4.5457,4.5513,4.5513,4.5559,4.5575,4.5441,4.5479,4.5556,4.5267,4.5267,4.5086,4.3351,4.2795,4.2612,4.1665,4.147,4.1354,4.0362,3.9592,3.9052,3.8954,3.7804,3.6651,3.6601,3.5578,3.453,3.4199,3.3556,3.3025,3.2923,3.2891,3.2891,3.2891,3.2891,3.2891,3.2891,3.2865,3.2859,3.291,3.168,3.0894,3.1123,3.0369,2.9569,2.8846,2.9369,2.9467,2.8782,2.9353,3.0015,3.0731,3.0072,3.0345,3.174,3.0401,3.0148,3.1016,3.0297,3.0075,3.0323,3.0383,3.0448,6.5782,6.6205,6.632,6.5493,6.4936,6.3705,6.0281,5.9184,5.803,5.5011,5.5088,5.5318,5.4068,5.6352,5.8716,5.9691,6.2452,6.5274,6.7575,6.7594,6.7218,6.686,6.6106,6.4727,6.2494,6.2264,6.1679,6.0251,6.0132,5.9711,5.8784,5.7354,5.6197,5.539,5.4584,5.4272,5.4503,5.3654,5.2897,5.2304,5.1432,5.0703,5.0078,4.8361,4.7568,4.7484,4.6,4.5352,4.5362,4.5522,4.5594,4.5594,4.5594,4.5594,4.5603,4.568,4.57,4.5715,4.5737,4.5751,4.5615,4.4828,4.4221,4.3675,4.2885,4.2625,4.2451,4.1579,4.0751,4.0037,3.9612,3.8576,3.7625,3.7633,3.7047,3.6455,3.6352,3.5641,3.5151,3.5579,3.5286,3.4961,3.4885,3.4891,3.4737,3.4308,3.425,3.425,3.425,3.3421,3.2671,3.2365,3.1948,3.1525,3.1102,3.1335,3.1346,3.0969,3.1212,3.1371,3.1352,3.1371,3.1542,3.1932,3.1562,3.1625,3.2138,3.1776,3.1686,3.1815,3.1867,3.1918,6.6147,6.6744,6.7186,6.6359,6.5378,6.3678,6.0099,5.8511,5.6876,5.3677,5.4188,5.4853,5.3541,5.5253,5.7022,5.7544,5.9536,6.2086,6.5156,6.5629,6.595,6.6764,6.6138,6.4892,6.2943,6.2591,6.2011,6.0885,6.0473,5.96,5.8065,5.6803,5.5933,5.5593,5.495,5.4655,5.4764,5.3722,5.3047,5.2716,5.167,5.1012,5.0635,4.8894,4.8105,4.8009,4.6317,4.5594,4.5594,4.5627,4.5643,4.5632,4.5661,4.5658,4.5673,4.5783,4.5814,4.5832,4.5886,4.5899,4.5903,4.5928,4.541,4.4661,4.3921,4.3677,4.3502,4.2623,4.1926,4.1275,4.0627,3.9815,3.9062,3.8728,3.8611,3.8533,3.8354,3.7777,3.7467,3.8093,3.7681,3.7165,3.7045,3.7012,3.6806,3.6142,3.6038,3.6038,3.6038,3.5449,3.468,3.3814,3.3237,3.2891,3.2891,3.2891,3.2891,3.2891,3.2891,3.2699,3.2256,3.266,3.2776,3.2526,3.2793,3.3023,3.3197,3.3147,3.3113,3.3117,3.3002,3.3039,6.6994,6.7628,6.8071,6.7205,6.5782,6.3534,5.9505,5.7308,5.5412,5.2898,5.3127,5.3755,5.358,5.4418,5.5844,5.8041,5.8626,6.0447,6.5199,6.5884,6.6172,6.6978,6.6364,6.5186,6.3424,6.2559,6.1776,6.0877,5.9396,5.8263,5.7687,5.7506,5.6725,5.5187,5.5086,5.5212,5.5588,5.4013,5.3168,5.3123,5.1518,5.074,5.0635,4.8894,4.8105,4.8009,4.6317,4.5594,4.5612,4.5725,4.5776,4.579,4.5861,4.5867,4.5867,4.59,4.5885,4.5885,4.5894,4.5899,4.5916,4.6042,4.5933,4.5613,4.4813,4.4584,4.4394,4.3522,4.323,4.3175,4.3224,4.2594,4.1569,4.0094,3.9611,3.9273,3.8545,3.828,3.8192,3.8279,3.824,3.8148,3.8072,3.8064,3.7994,3.7805,3.7777,3.7777,3.7777,3.77,3.7315,3.6442,3.4276,3.2891,3.2891,3.2891,3.2891,3.2891,3.2891,3.3218,3.3936,3.3276,3.3603,3.5115,3.3796,3.3437,3.4163,3.3518,3.32,3.3161,3.2446,3.2528,6.701,6.8265,6.9096,6.8257,6.6477,6.3931,6.0233,5.7657,5.5184,5.2182,5.266,5.3438,5.2903,5.3093,5.3971,5.5897,5.6217,5.7607,6.161,6.2613,6.3636,6.5509,6.4968,6.415,6.339,6.257,6.1735,6.0858,5.9704,5.8723,5.8066,5.7019,5.6137,5.5485,5.5466,5.5554,5.5703,5.503,5.4203,5.3203,5.2529,5.1683,5.0635,4.8894,4.8105,4.8018,4.6402,4.573,4.5725,4.5819,4.5861,4.5871,4.5881,4.5899,4.5907,4.5988,4.6027,4.6036,4.6115,4.6144,4.6147,4.6201,4.6177,4.6087,4.5755,4.5659,4.5483,4.4605,4.4351,4.4258,4.3781,4.3393,4.2847,4.1679,4.1733,4.184,4.099,4.079,4.0755,4.0723,4.0284,3.9736,3.9135,3.9041,3.8848,3.8273,3.815,3.8124,3.8124,3.8046,3.7873,3.7526,3.6103,3.4988,3.45,3.4462,3.4462,3.4462,3.4462,3.4391,3.4205,3.4415,3.4596,3.4764,3.4699,3.4816,3.5142,3.4926,3.4822,3.4824,3.4537,3.4586,6.6704,6.8517,6.9786,6.8961,6.6912,6.4155,6.0507,5.7663,5.4922,5.1826,5.2336,5.3233,5.2873,5.2792,5.3325,5.4893,5.4922,5.5835,5.8916,5.9832,6.1089,6.3453,6.2897,6.2412,6.2662,6.219,6.1504,6.0635,5.9966,5.9123,5.8024,5.6776,5.5972,5.5703,5.5703,5.5703,5.5703,5.5453,5.4626,5.3203,5.2953,5.2088,5.0699,4.8955,4.8323,4.8501,4.6636,4.5974,4.6199,4.602,4.5967,4.5951,4.5998,4.6027,4.6033,4.6119,4.615,4.6174,4.6268,4.6308,4.6308,4.6308,4.6308,4.6308,4.6308,4.6308,4.6172,4.5566,4.5371,4.5234,4.4629,4.4473,4.4258,4.3379,4.3633,4.3848,4.2969,4.2773,4.2773,4.272,4.2226,4.1571,4.0908,4.0565,4.0185,3.9519,3.9153,3.8976,3.8976,3.8886,3.8736,3.8504,3.7925,3.7211,3.6363,3.6305,3.6305,3.6321,3.6327,3.5941,3.5052,3.5669,3.5596,3.4723,3.5408,3.5761,3.5761,3.5861,3.5939,3.5921,3.5701,3.5605,6.6173,6.8254,6.9992,6.913,6.6984,6.4018,5.9868,5.6943,5.4409,5.1912,5.2109,5.2969,5.3828,5.3984,5.4461,5.594,5.5466,5.5734,5.8167,5.8412,5.906,6.1013,6.0229,5.9977,6.1117,6.1271,6.0953,6.0069,5.9886,5.905,5.7295,5.7081,5.6599,5.5722,5.5703,5.5703,5.5703,5.4914,5.4068,5.3203,5.2327,5.1556,5.085,4.9093,4.8851,4.9644,4.7032,4.639,4.7123,4.6393,4.6108,4.6113,4.6247,4.6308,4.6308,4.6308,4.6308,4.6308,4.6308,4.6308,4.6308,4.6308,4.6308,4.6308,4.6308,4.6308,4.6308,4.6289,4.6289,4.6289,4.6289,4.6269,4.6055,4.5176,4.498,4.4746,4.3867,4.3691,4.3691,4.3691,4.3672,4.3651,4.3564,4.2832,4.2227,4.2089,4.1326,4.0778,4.0778,4.0778,4.047,3.9664,3.9586,3.9194,3.8252,3.8164,3.8205,3.8263,3.827,3.7877,3.7017,3.6978,3.6586,3.5703,3.5836,3.5901,3.5901,3.5972,3.5996,3.5976,3.5117,3.4683,6.333,6.4894,6.5907,6.5619,6.3702,6.1247,5.878,5.6673,5.4683,5.2695,5.2988,5.3848,5.4726,5.4394,5.4507,5.6078,5.5606,5.5517,5.6864,5.7546,5.8544,6.0304,6.113,6.1468,6.1291,6.1283,6.1192,6.09,6.0294,5.9432,5.8286,5.7631,5.6787,5.5744,5.5703,5.5703,5.5703,5.5538,5.5049,5.4227,5.3432,5.2628,5.1769,4.9471,4.8603,4.8807,4.6872,4.6195,4.6435,4.6294,4.6245,4.6246,4.6289,4.6308,4.6308,4.6308,4.6308,4.6308,4.6308,4.6308,4.6308,4.6308,4.6308,4.6308,4.6308,4.6308,4.6308,4.6308,4.6308,4.6308,4.6308,4.6308,4.6074,4.5215,4.5469,4.5644,4.4785,4.5058,4.5293,4.4707,4.459,4.4394,4.3766,4.3434,4.3236,4.3209,4.2401,4.1827,4.1827,4.174,4.1369,4.0513,4.0945,4.049,3.8439,3.826,3.8276,3.8289,3.8293,3.8176,3.79,3.74,3.7013,3.6738,3.6235,3.5973,3.5973,3.5996,3.5974,3.5921,3.5541,3.5373,6.1044,6.2705,6.3623,6.3623,6.2004,5.9863,5.7871,5.6055,5.4316,5.2578,5.2637,5.3281,5.416,5.4141,5.4411,5.5697,5.5725,5.5881,5.6762,5.7577,5.8589,5.9966,6.107,6.1491,6.0945,6.1233,6.1451,6.1451,6.0893,6.0029,5.8841,5.8213,5.7276,5.5935,5.5879,5.5879,5.5879,5.5978,5.5435,5.4278,5.3813,5.3006,5.1807,4.9582,4.8941,4.9486,4.751,4.7035,0.0,4.7381,4.7285,4.7246,4.6914,4.6797,4.6758,4.6426,4.6308,4.6308,4.6308,4.6308,4.6308,4.6308,4.6308,4.6308,4.6308,4.6308,4.6308,4.6308,4.6308,4.6308,4.6308,4.6308,4.6152,4.5625,4.5918,4.6152,4.5605,4.5918,4.6133,4.5605,4.5488,4.5312,4.4766,4.4414,4.4199,4.4199,4.3413,4.2837,4.2837,4.2756,4.2364,4.1503,4.1893,4.1447,3.9542,3.9343,3.934,3.9384,3.9386,3.9249,3.8918,3.8453,3.8053,3.7721,3.7245,3.6952,3.6908,3.6547,3.6196,3.5812,3.5712,3.5667,0.0,6.1211,6.2539,6.2461,6.1289,5.9473,5.6973,5.5215,0.0,5.1855,5.1543,5.1855,5.2715,5.3555,5.4333,5.5099,5.5889,5.6709,5.759,5.8402,5.9241,6.0103,6.0421,6.0505,6.0312,6.1145,6.1699,6.1699,6.1582,6.0751,5.9017,5.8799,5.7975,5.6281,5.6222,5.6212,5.6191,5.6144,5.5312,5.3716,5.359,5.275,5.1247,4.9567,4.9729,5.1172,4.875,4.8613,5.0039,4.918,4.8848,4.8808,4.7871,4.7558,4.748,4.6621,4.6308,4.6308,4.6308,4.6308,4.6308,4.6308,4.6308,4.6308,4.6308,4.6308,4.6308,4.6308,4.6308,4.6308,4.6308,4.6308,4.6308,4.6308,4.6308,4.6308,4.6308,4.6308,4.6308,4.6308,4.6308,4.6308,4.6308,4.5625,4.5098,4.5098,4.4355,4.3789,4.3789,4.3789,4.3457,4.2598,4.2558,4.2266,4.1445,4.1159,4.1076,4.1191,4.1191,4.084,4.0039,3.9922,3.9512,3.8711,3.8613,3.8528,3.8389,3.7501,3.6623,3.5771,3.5713,3.5653,5.5098,0.0,5.7949,5.7285,5.7305,5.6992,0.0,5.4805,5.4492,5.2754,5.293,5.3652,5.4531,5.4863,5.5273,5.611,5.6422,5.6853,5.7731,5.9661,6.1317,6.2196,6.2342,6.2109,6.1423,6.1562,6.1699,6.1699,6.1678,6.0915,5.9216,5.9094,5.8288,5.655,5.6511,5.6416,5.6197,5.5638,5.5149,5.4723,5.3508,5.2707,5.2283,5.0603,5.0077,5.041,4.9141,4.8828,4.9141,4.8262,4.8301,4.875,4.7207,4.7012,4.748,4.6621,4.6308,4.6308,4.6308,4.6308,4.6308,4.6308,4.6308,4.6308,4.6308,4.6308,4.6308,4.6308,4.6308,4.6308,4.6308,4.6308,4.6308,4.6308,4.6308,4.6308,4.6308,4.6308,4.6308,4.6308,4.6308,4.6308,4.6308,4.6133,4.5996,4.5996,4.5254,4.4687,4.4687,4.4687,4.4355,4.3496,4.3984,4.4043,4.3183,4.1913,4.1171,4.1191,4.1191,4.1113,4.0898,4.0254,3.9805,3.9609,3.8837,3.8406,3.8325,3.7991,3.7414,3.6619,3.649,3.6106,5.3379,5.4687,5.5898,5.543,5.5644,5.5644,5.4316,5.4062,5.373,5.2383,5.2793,5.3555,5.4023,5.5098,5.5918,5.5996,5.7012,5.8086,5.8926,5.9922,6.1015,6.2265,6.2051,6.1777,6.1719,6.1699,6.1699,6.1699,6.1699,6.0976,5.9297,5.9199,5.8398,5.666,5.6601,5.6341,5.5798,5.538,5.4787,5.3987,5.3123,5.248,5.2051,5.0781,5.0391,5.0703,4.9863,4.9492,4.9453,4.8984,4.9062,4.9355,4.8027,4.7773,4.8086,4.7226,4.6641,4.6308,4.6308,4.6308,4.6308,4.6308,4.6308,4.6308,4.6308,4.6308,4.6308,4.6308,4.6308,4.6308,4.6308,4.6308,4.6308,4.6308,4.6308,4.6308,4.6308,4.6308,4.6308,4.6308,4.6308,4.6308,4.6308,4.6308,4.6308,4.6308,4.5898,4.5605,4.5605,4.5605,4.5254,4.4394,4.4726,4.4648,4.3769,4.2871,4.2187,4.1777,4.1758,4.1562,4.1125,4.0655,4.0376,4.0319,3.9744,3.9237,3.8806,3.8301,3.763,3.6793,3.6356,3.5923,5.2851,5.4062,5.539,5.5,5.5195,5.5234,5.4238,5.3437,5.2695,5.1953,5.2285,5.2812,5.3223,5.5,5.6289,5.5957,5.7969,5.9863,6.0683,6.0312,6.0469,6.1758,6.125,6.1035,6.164,6.1699,6.1699,6.1699,6.1699,6.0976,5.9297,5.9199,5.8398,5.666,5.6601,5.6113,5.5117,5.5098,5.4355,5.2891,5.2637,5.2109,5.1387,5.0683,5.0762,5.1367,5.0683,5.0371,5.0351,5.0117,5.0156,5.0254,4.9004,4.8672,4.8789,4.7773,4.6933,4.6308,4.6308,4.6308,4.6308,4.6308,4.6289,4.6268,4.6268,4.6267,4.6246,4.6246,4.6248,4.6268,4.6268,4.6248,4.6247,4.6268,4.6268,4.6288,4.6308,4.6308,4.6308,4.6308,4.6308,4.6308,4.6308,4.6308,4.6308,4.6308,4.6308,4.6308,4.6308,4.6308,4.6016,4.5273,4.5175,4.4862,4.414,4.406,4.3667,4.2808,4.2517,4.1964,4.1005,4.0964,4.0911,4.0796,4.0726,4.0324,3.9576,3.8767,3.795,3.7084,3.6404,3.5986,5.2539,5.4512,5.5879,5.3652,5.4765,5.5976,5.4375,5.3906,5.3769,5.3633,5.3125,5.3379,5.5586,5.5723,5.6172,5.8262,6.0137,6.1621,6.248,6.3125,6.334,6.2851,6.2676,6.2363,6.1758,6.1699,6.1699,6.1699,6.1699,6.0976,5.9297,5.9199,5.8398,5.666,5.6601,5.582,5.4219,5.4199,5.4062,5.3789,5.2305,5.1523,5.1406,5.1269,5.1289,5.1387,5.1269,5.1211,5.1113,4.9687,4.9941,5.0918,4.7871,4.7598,4.8691,4.709,4.6406,4.6308,4.6308,4.6308,4.6308,4.6308,4.6224,4.612,4.612,4.6047,4.5971,4.5971,4.6042,4.612,4.612,4.6045,4.5988,4.6091,4.612,4.6152,4.6288,4.6308,4.6308,4.6308,4.6308,4.6308,4.6308,4.6308,4.6308,4.6308,4.6308,4.6308,4.6308,4.6308,4.625,4.6113,4.6005,4.5886,4.573,4.5621,4.5204,4.4401,4.3068,4.1863,4.0866,4.0824,4.0792,4.0718,4.0709,4.0578,4.033,4.0185,3.9708,3.8892,3.8757,3.8166,5.2461,5.3926,5.5137,5.4863,5.6426,5.7676,5.6406,5.5742,5.5273,5.4805,5.4765,5.5176,5.6387,5.7402,5.8906,6.1523,6.1816,6.1992,6.2871,6.2949,6.2754,6.2344,6.2305,6.2148,6.1738,6.1699,6.1699,6.1699,6.1699,6.0976,5.9297,5.9199,5.8398,5.666,5.6601,5.6211,5.541,5.4941,5.3984,5.2598,5.1777,5.1406,5.1406,5.1406,5.1406,5.1406,5.1406,5.1152,5.0683,4.9922,5.0058,5.0605,4.9023,4.8613,4.8691,4.6933,4.6248,4.6199,4.6199,4.6145,4.6082,4.6082,4.6042,4.5992,4.5992,4.594,4.5899,4.5899,4.5936,4.5992,4.5992,4.5959,4.5912,4.5981,4.5992,4.6001,4.6075,4.6082,4.6082,4.6082,4.6082,4.6082,4.6082,4.6082,4.6082,4.6082,4.6082,4.6082,4.6082,4.6082,4.6082,4.6082,4.6033,4.5992,4.5992,4.5948,4.5354,4.4085,4.2832,4.1717,4.0781,4.0688,4.061,4.0589,4.0582,4.0566,4.0496,4.0054,3.9669,3.9277,3.8621,3.8025,5.2461,5.3633,5.4922,5.6269,5.7598,5.8633,5.8769,5.7812,5.6933,5.707,5.7168,5.7265,5.7461,5.9258,6.1367,6.3379,6.3086,6.2851,6.3515,6.3027,6.2461,6.2051,6.1992,6.1914,6.1719,6.1699,6.1699,6.1699,6.1699,6.1055,5.9551,5.9473,5.8691,5.6953,5.6894,5.6719,5.6308,5.5625,5.4199,5.2012,5.1797,5.1699,5.1699,5.1484,5.1504,5.1699,5.1484,5.1055,5.0469,5.0273,5.0312,5.0449,5.0058,4.9472,4.8688,4.7315,4.661,4.6396,4.6591,4.6336,4.5938,4.6132,4.6056,4.5877,4.5877,4.5857,4.5831,4.5831,4.5831,4.5836,4.5867,4.5852,4.5836,4.5872,4.5877,4.5886,4.5894,4.5899,4.5899,4.5899,4.5899,4.5899,4.5899,4.5899,4.5899,4.5899,4.5899,4.5899,4.5899,4.5899,4.5899,4.5899,4.5896,4.5862,4.5831,4.5831,4.5184,4.3709,4.2936,4.2067,4.101,4.086,4.0708,4.0496,4.0449,4.0417,4.0397,3.9714,3.9374,3.9355,3.8413,3.7955,5.2461,5.4512,5.6445,5.6562,5.6699,5.7598,6.0723,5.9551,5.8691,6.1797,6.0625,5.9238,5.998,6.0937,6.168,6.1855,6.3828,6.5332,6.539,6.5351,6.4726,6.3105,6.291,6.2598,6.1777,6.1699,6.1699,6.1699,6.1699,6.1289,6.0351,6.0312,5.9531,5.7851,5.7812,5.7031,5.541,5.5332,5.4805,5.3808,5.2988,5.2617,5.2578,5.1777,5.1836,5.2558,5.1758,5.1367,5.1269,5.0508,5.0644,5.1152,4.9609,4.8879,4.8679,4.8437,4.781,4.7246,4.8054,4.7256,4.6035,4.6848,4.6516,4.5816,4.5816,4.5718,4.5618,4.5618,4.5618,4.5648,4.5776,4.5711,4.5657,4.5783,4.5816,4.582,4.5896,4.5899,4.5899,4.5899,4.5899,4.5899,4.5899,4.5899,4.5899,4.5899,4.5899,4.5899,4.5899,4.5899,4.5899,4.5899,4.5847,4.5749,4.5624,4.5618,4.5214,4.4289,4.4177,4.3418,4.1793,4.17,4.1335,4.0516,4.0269,4.0129,4.0129,3.9762,3.9573,3.9592,3.9494,3.9281,5.2461,5.4219,5.6055,5.7148,5.7402,5.8301,6.1738,6.1758,6.1445,6.2734,6.2656,6.2129,6.1348,6.1914,6.2519,6.2519,6.3789,6.498,6.5527,6.5605,6.5156,6.3945,6.3808,6.3242,6.1836,6.1699,6.1699,6.1699,6.1699,6.1328,6.0449,5.9922,5.9101,5.7949,5.7363,5.6777,5.6113,5.6113,5.5664,5.4805,5.3926,5.3223,5.2695,5.2363,5.209,5.1875,5.1543,5.1406,5.1367,5.0986,5.0997,5.1151,4.9942,4.9432,4.9259,4.8102,4.778,4.7778,4.7066,4.6687,4.6501,4.6269,4.5954,4.568,4.568,4.5643,4.5594,4.5594,4.599,4.6296,4.5792,4.5635,4.5612,4.5657,4.568,4.5685,4.572,4.6134,4.6366,4.5831,4.6153,4.6346,4.5812,4.5715,4.5715,4.5715,4.5715,4.5715,4.5715,4.5715,4.5715,4.5715,4.5688,4.5668,4.5603,4.5594,4.546,4.5133,4.4605,4.3797,4.2662,4.2604,4.245,4.2124,4.1772,4.1597,4.1597,4.1256,4.1091,4.1091,4.0365,3.997,5.2539,5.3965,5.5644,5.7129,5.789,5.9219,6.2637,6.3203,6.3398,6.4765,6.4433,6.3437,6.1973,6.1953,6.2265,6.2539,6.3789,6.4922,6.5527,6.584,6.5683,6.4805,6.4473,6.3711,6.2246,6.1855,6.1699,6.1699,6.1699,6.1445,6.084,6.0293,5.9473,5.8359,5.7734,5.7168,5.6601,5.6601,5.6288,5.5639,5.5033,5.4314,5.3496,5.2908,5.2456,5.2124,5.1577,5.1343,5.1322,5.1238,5.1204,5.1138,5.0473,5.0209,5.0062,4.8784,4.8456,4.852,4.7658,4.7312,4.724,4.6894,4.6614,4.6336,4.6086,4.6182,4.6278,4.5748,4.6413,4.7086,4.622,4.6201,4.6317,4.6067,4.6201,4.624,4.571,4.6278,4.6644,4.5768,4.6086,4.6394,4.6067,4.6009,4.6105,4.6355,4.6394,4.6297,4.6028,4.6009,4.5913,4.5633,4.5594,4.5594,4.5594,4.5594,4.554,4.5438,4.4882,4.4182,4.3357,4.3318,4.3139,4.2747,4.2403,4.2226,4.2226,4.188,4.173,4.1712,4.0932,4.0555,5.2695,5.3965,5.5508,5.6367,5.791,6.0098,6.3515,6.3633,6.4238,6.8574,6.6035,6.2734,6.1875,6.1015,6.0703,6.1543,6.3867,6.5566,6.5586,6.6328,6.6562,6.5703,6.4824,6.3965,6.3086,6.2207,6.1699,6.1699,6.1699,6.1699,6.1699,6.1699,6.0918,5.9258,5.9199,5.8359,5.6621,5.6601,5.6536,5.6408,5.6408,5.6011,5.5234,5.3356,5.2982,5.3684,5.1945,5.1201,5.1201,5.1201,5.1201,5.1194,5.1116,5.1108,5.1053,5.0789,5.0144,4.9529,5.0385,4.9548,4.8259,4.9106,4.8798,4.7952,4.7135,4.7471,4.774,4.6075,4.6817,4.7932,4.7115,4.7528,4.7932,4.7096,4.7509,4.7644,4.5979,4.6317,4.6682,4.5787,4.5633,4.5913,4.6759,4.6904,4.7173,4.799,4.8086,4.7798,4.7,4.6904,4.6567,4.571,4.5594,4.5594,4.5594,4.5594,4.5448,4.5118,4.5096,4.4704,4.3836,4.3817,4.3255,4.2059,4.1768,4.1622,4.1622,4.1285,4.1113,4.1113,4.1113,4.1113,5.1953,5.3516,5.5351,5.5625,5.7871,6.0604,6.2769,6.3586,6.4629,6.7148,6.5597,6.3535,6.2753,6.2334,6.1795,6.0937,6.1953,6.3281,6.4512,6.4902,6.5195,6.5566,6.4756,6.3852,6.3086,6.2047,6.1501,6.1699,6.1609,6.1606,6.1699,6.1023,6.02,5.9238,5.8464,5.7603,5.6601,5.6511,5.6448,5.6408,5.6309,5.5821,5.4987,5.381,5.3076,5.2682,5.1596,5.1128,5.112,5.1033,5.094,5.0852,5.0827,5.0822,5.0728,5.0028,5.001,5.0192,4.9202,4.8933,4.8952,4.8606,4.8317,4.7952,4.7135,4.7058,4.7028,4.5922,4.6817,4.8048,4.7817,4.8836,4.9548,4.8086,4.749,4.7278,4.7336,4.8048,4.8394,4.7528,4.7855,4.8163,4.7817,4.7269,4.7173,4.799,4.7625,4.7375,4.7702,4.7259,4.6797,4.6547,4.597,4.5594,4.5594,4.5371,4.5211,4.5096,4.4884,4.4619,4.4372,4.4372,4.4191,4.3844,4.3479,4.3293,4.3293,4.2943,4.2782,4.2763,4.2213,4.1937,5.3848,5.5137,5.6582,5.7598,5.9648,6.1874,6.3538,6.4867,6.6048,6.7187,6.597,6.4555,6.4101,6.3391,6.2563,6.1582,6.2441,6.3359,6.3664,6.458,6.5258,6.5394,6.486,6.4182,6.3394,6.2376,6.171,6.1559,6.1462,6.1455,6.1542,6.0971,6.0281,5.9529,5.8549,5.7687,5.6936,5.6524,5.6277,5.6188,5.6127,5.5786,5.5183,5.4045,5.3222,5.2672,5.1513,5.1027,5.1022,5.0991,5.0908,5.0773,5.0773,5.0773,5.0707,5.0125,5.025,5.0558,4.949,4.9471,4.9817,4.9298,4.9125,4.8971,4.8144,4.8125,4.8163,4.6932,4.7817,4.9048,4.8702,4.9394,4.9913,4.8875,4.8509,4.8355,4.8144,4.8779,4.9144,4.8279,4.8529,4.8836,4.8644,4.8221,4.8182,4.9009,4.8432,4.8067,4.8548,4.7605,4.7019,4.7327,4.6317,4.5685,4.586,4.5413,4.4977,4.4676,4.4468,4.4308,4.4169,4.4294,4.4308,4.4169,4.3927,4.3804,4.3804,4.3597,4.3515,4.3496,4.3002,4.2782,5.7012,5.7832,5.8613,6.1074,6.2461,6.3652,6.5312,6.6777,6.781,6.7948,6.6757,6.5664,6.5605,6.4297,6.3183,6.3125,6.4375,6.4819,6.326,6.4905,6.5984,6.5225,6.4985,6.4577,6.3778,6.2879,6.2044,6.1342,6.1271,6.1271,6.1303,6.1271,6.0876,6.0032,5.9132,5.8276,5.7412,5.6584,5.6078,5.5896,5.5899,5.5816,5.5656,5.4085,5.3294,5.3069,5.1544,5.0879,5.0894,5.1016,5.0991,5.0879,5.0879,5.0879,5.0863,5.0662,5.0635,5.0693,5.0616,5.0635,5.0712,5.0712,5.0654,5.0423,4.9548,4.9817,5.0106,4.8471,4.924,5.0404,4.9606,4.9452,4.951,4.951,5.0048,5.0173,4.8663,4.8952,4.9279,4.849,4.8336,4.8586,4.9375,4.9452,4.9663,5.0462,4.9971,4.949,4.9413,4.8067,4.7346,4.7876,4.6578,4.5784,4.6126,4.5441,4.4713,4.4043,4.3971,4.382,4.3513,4.3788,4.382,4.3515,4.3515,4.3515,4.3515,4.3515,4.3515,4.3515,4.3515,4.3515,5.5703,5.7363,5.9375,6.123,6.327,6.5077,6.6131,6.6648,6.6737,6.6268,6.6278,6.6225,6.5702,6.5163,6.4624,6.4101,6.3661,6.3785,6.4859,6.4193,6.4077,6.5337,6.4092,6.3111,6.3011,6.1896,6.1195,6.1285,6.1138,6.1123,6.1297,6.1158,6.0735,6.0026,5.9047,5.8185,5.7412,5.6452,5.5944,5.5896,5.5798,5.5728,5.5637,5.3995,5.2521,5.1259,5.0903,5.073,5.0758,5.0764,5.0775,5.073,5.073,5.073,5.0663,4.9942,5.0106,5.0596,4.9913,5.0125,5.0712,5.0712,5.025,4.951,4.8644,4.8509,4.8452,4.7451,4.8375,4.9644,4.9452,4.9913,5.0423,5.0423,5.0029,4.976,5.0067,5.0289,5.0366,5.0183,5.0144,5.0212,5.0385,4.9856,4.9452,4.9644,5.0087,5.0164,4.949,4.9086,4.8298,4.6849,4.6369,4.5829,4.5035,4.4522,4.4175,4.3998,4.374,4.358,4.3496,4.3563,4.3563,4.3496,4.3515,4.3515,4.3515,4.3515,4.3515,4.3515,4.3515,4.3515,5.698,5.8584,6.0402,6.3437,6.5061,6.6148,6.7026,6.6889,6.6492,6.6153,6.6429,6.6649,6.6289,6.6147,6.583,6.5058,6.4487,6.4158,6.4152,6.3655,6.3443,6.3879,6.3352,6.2801,6.2493,6.1823,6.1321,6.1085,6.0954,6.0954,6.1064,6.0954,6.0742,6.0397,5.9099,5.822,5.7821,5.6471,5.5798,5.5788,5.5738,5.5491,5.5107,5.4222,5.2895,5.1279,5.1279,5.1048,5.0712,5.0712,5.0712,5.0712,5.0712,5.0712,5.0635,5.0183,5.0308,5.0635,5.0183,5.0327,5.0712,5.0712,5.0385,4.9933,4.9471,4.9336,4.926,4.8836,4.9356,5.001,5.001,5.0366,5.0712,5.0712,5.0346,5.0144,5.0596,5.0712,5.0712,5.0712,5.0712,5.0712,5.0712,5.0327,5.001,5.001,5.0048,4.999,4.975,4.8677,4.7747,4.7301,4.653,4.5748,4.4998,4.4696,4.4333,4.3809,4.3597,4.3515,4.3515,4.3515,4.3515,4.3515,4.3515,4.3515,4.3515,4.3515,4.3515,4.3515,4.3515,4.3515,5.8518,6.0192,6.1798,6.5658,6.6644,6.6826,6.7481,6.7127,6.6634,6.6619,6.6763,6.6894,6.6894,6.6777,6.6445,6.5723,6.5331,6.4594,6.3092,6.3172,6.3078,6.2316,6.2612,6.2652,6.1959,6.1893,6.1581,6.0839,6.08,6.08,6.08,6.08,6.0723,6.0569,5.9108,5.8223,5.8088,5.6492,5.5703,5.5703,5.5703,5.5338,5.4703,5.4549,5.3549,5.1885,5.175,5.1318,5.0712,5.0712,5.0712,5.0712,5.0712,5.0712,5.0673,5.0539,5.0577,5.0673,5.0539,5.0577,5.0712,5.0712,5.0596,5.0481,5.0481,5.0481,5.0481,5.0481,5.0577,5.0712,5.0712,5.0712,5.0712,5.0712,5.0712,5.0712,5.0712,5.0712,5.0712,5.0712,5.0712,5.0712,5.0712,5.0712,5.0673,5.0604,4.9979,4.9569,4.9739,4.8064,4.7144,4.7891,4.6878,4.5894,4.5252,4.5151,4.464,4.3569,4.3515,4.3515,4.3515,4.3515,4.3515,4.3515,4.3515,4.3515,4.3515,4.3515,4.3515,4.3515,4.3515,4.3515,5.7195,6.0609,6.3896,6.5187,6.6195,6.6805,6.6634,6.6736,6.6811,6.6631,6.6763,6.6894,6.6894,6.6289,6.5742,6.5625,6.4244,6.3388,6.3997,6.268,6.1907,6.2613,6.1886,6.1262,6.1165,6.1034,6.0935,6.08,6.08,6.08,6.08,6.08,6.0454,5.9704,5.8781,5.7934,5.7176,5.6184,5.5703,5.5703,5.5703,5.5645,5.5511,5.4818,5.3549,5.1865,5.1164,5.0808,5.0712,5.0712,5.0712,5.0712,5.0712,5.0712,5.0616,4.9856,5.0048,5.0596,4.9837,5.0067,5.0712,5.0712,5.0192,4.9567,4.9567,4.9567,4.9567,4.9567,5.0106,5.0712,5.0712,5.0712,5.0712,5.0712,5.0712,5.0712,5.0712,5.0712,5.0712,5.0712,5.0712,5.0712,5.0712,5.0712,5.0575,5.0237,5.0076,4.9631,4.8596,4.8805,4.8455,4.6831,4.7133,4.6729,4.4941,4.4778,4.4394,4.3551,4.3515,4.3515,4.3515,4.3515,4.3515,4.3515,4.3515,4.3515,4.3515,4.3515,4.3515,4.3515,4.3515,4.3515,5.7732,6.0594,6.3323,6.6668,6.711,6.6941,6.7785,6.7712,6.7299,6.6723,6.6763,6.6894,6.6894,6.6582,6.6172,6.5683,6.4508,6.3601,6.3479,6.2278,6.151,6.1764,6.1314,6.0972,6.0894,6.0823,6.08,6.08,6.08,6.08,6.08,6.0339,5.9896,5.9511,5.8242,5.7376,5.7003,5.6137,5.5703,5.5684,5.5241,5.5261,5.5645,5.3857,5.2895,5.2577,5.1741,5.1125,5.0712,5.0712,5.0712,5.0712,5.0712,5.0712,5.0654,5.0269,5.0366,5.0654,5.0269,5.0385,5.0712,5.0712,5.0442,5.0125,5.0125,5.0125,5.0125,5.0125,5.0721,5.1375,5.1375,5.1375,5.1375,5.1375,5.1029,5.0712,5.0712,5.0712,5.0712,5.0712,5.0712,5.0712,5.0712,5.0712,5.0554,5.0159,4.9692,4.9169,4.8652,4.8109,4.7335,4.6238,4.6462,4.5968,4.4176,4.4452,4.436,4.3551,4.392,4.3975,4.3533,4.392,4.4176,4.4176,4.3718,4.3515,4.3515,4.3515,4.3515,4.3515,4.3515,4.3515,5.7699,5.985,6.1982,6.6463,6.6931,6.6697,6.82,6.8078,6.7442,6.6739,6.6763,6.6894,6.6894,6.6719,6.6367,6.5703,6.4687,6.3709,6.2961,6.2061,6.1413,6.1154,6.1053,6.0973,6.0858,6.0808,6.08,6.08,6.08,6.08,6.08,5.9973,5.9415,5.9204,5.7761,5.6887,5.6676,5.6011,5.5703,5.5684,5.5088,5.5126,5.5626,5.3299,5.2577,5.3145,5.2068,5.1241,5.0712,5.0712,5.0712,5.0712,5.0712,5.0712,5.0712,5.0712,5.0712,5.0712,5.0712,5.0712,5.0712,5.0712,5.0712,5.0712,5.0712,5.0712,5.0712,5.0712,5.1279,5.1904,5.1904,5.2058,5.2173,5.1942,5.1433,5.0952,5.075,5.0712,5.0712,5.0712,5.0712,5.0712,5.0712,5.0712,5.0534,5.0012,4.9385,4.8913,4.8771,4.7652,4.6792,4.6544,4.6324,4.5645,4.4231,4.447,4.436,4.3551,4.4268,4.4433,4.3828,4.458,4.5002,4.5002,4.4415,4.4011,4.3791,4.3606,4.3515,4.3515,4.3515,4.3515,5.5852,5.7998,6.0393,6.2586,6.4303,6.5686,6.6538,6.6859,6.6891,6.665,6.6763,6.6894,6.6894,6.6211,6.5644,6.5605,6.418,6.3047,6.3008,6.2127,6.1481,6.1472,6.1195,6.0997,6.0988,6.0871,6.08,6.08,6.08,6.08,6.08,5.9973,5.9146,5.8396,5.7473,5.6599,5.578,5.5722,5.5703,5.5703,5.5665,5.5665,5.5645,5.3914,5.3164,5.3106,5.1471,5.075,5.0712,5.0712,5.0712,5.0712,5.0712,5.0712,5.0712,5.0712,5.0712,5.0712,5.0712,5.0712,5.0712,5.0712,5.0712,5.0712,5.0712,5.0712,5.0712,5.0712,5.1279,5.1904,5.1904,5.25,5.2933,5.2096,5.1865,5.1625,5.0856,5.0712,5.0712,5.0712,5.0712,5.0712,5.0712,5.0712,5.0432,4.9664,4.948,4.9196,4.8439,4.8271,4.8197,4.8177,4.748,4.6691,4.5847,4.5112,4.436,4.3551,4.4268,4.4673,4.4654,4.5406,4.5847,4.5847,4.5792,4.5406,4.4654,4.3864,4.3515,4.3515,4.3515,4.3515,5.5413,5.6933,5.8971,6.2457,6.3848,6.4749,6.6147,6.7032,6.7351,6.672,6.6763,6.6894,6.6894,6.664,6.625,6.5683,6.4609,6.3633,6.3086,6.2205,6.1605,6.1509,6.1314,6.115,6.1014,6.0882,6.08,6.08,6.08,6.08,6.08,5.9473,5.8607,5.8319,5.6915,5.6011,5.5703,5.5703,5.5703,5.5703,5.5703,5.5703,5.5645,5.3953,5.3203,5.3106,5.1433,5.0712,5.0712,5.0712,5.0712,5.0712,5.0712,5.0712,5.0712,5.0712,5.0712,5.0712,5.0712,5.0712,5.0712,5.0712,5.0712,5.0808,5.1318,5.1471,5.1587,5.2145,5.2914,5.3568,5.3568,5.3799,5.3818,5.2953,5.2308,5.1962,5.226,5.1452,5.0837,5.1375,5.1048,5.0712,5.0712,5.0483,5.0135,4.9575,4.928,4.8913,4.8364,4.8306,4.8104,4.7571,4.7278,4.6764,4.5975,4.5645,4.5351,4.5057,4.581,4.5993,4.5498,4.6232,4.6654,4.6654,4.6159,4.5755,4.548,4.4654,4.4268,4.4268,4.3736,4.3773,5.4568,5.5962,5.7976,6.144,6.2385,6.3068,6.544,6.6244,6.6533,6.6529,6.6678,6.681,6.681,6.7043,6.6968,6.6172,6.5312,6.4433,6.3555,6.2949,6.2418,6.1997,6.1822,6.1648,6.146,6.1055,6.08,6.08,6.08,6.08,6.08,5.9473,5.8434,5.7877,5.6453,5.5703,5.5703,5.5703,5.5703,5.5703,5.5703,5.5703,5.5645,5.426,5.3645,5.3568,5.2145,5.1221,5.0712,5.0712,5.0712,5.0712,5.0712,5.0712,5.0712,5.0712,5.0712,5.0712,5.0712,5.0712,5.075,5.101,5.1106,5.126,5.2087,5.2327,5.2462,5.3049,5.3837,5.4491,5.4491,5.4491,5.4357,5.378,5.2972,5.2481,5.3068,5.1875,5.0933,5.1731,5.1241,5.0663,5.0514,5.0272,4.9924,4.9386,4.9059,4.8744,4.8345,4.8306,4.8104,4.7553,4.7259,4.6874,4.6361,4.6067,4.5902,4.5902,4.6673,4.6856,4.6324,4.7076,4.7498,4.7498,4.6985,4.6709,4.6709,4.5626,4.5112,4.5094,4.4544,4.458,0.0,0.0,0.0,5.9258,5.9725,6.0635,6.417,6.4324,6.4214,6.5991,6.6439,6.6535,6.6574,6.7292,6.7668,6.699,6.6172,6.5312,6.4453,6.4297,6.392,6.2948,6.2693,6.2503,6.2323,6.1402,6.08,6.08,6.08,6.08,6.08,5.9954,5.8704,5.7003,5.6126,5.5703,5.5703,5.5703,5.5703,5.5703,5.5703,5.5703,5.5665,5.4876,5.4491,5.4453,5.3587,5.226,5.075,5.075,5.075,5.0731,5.0712,5.0712,5.075,5.075,5.075,5.075,5.077,5.077,5.0894,5.1673,5.1942,5.2096,5.2972,5.3241,5.3241,5.328,5.3876,5.453,5.453,5.453,5.453,5.453,5.3876,5.3241,5.328,5.1933,5.0971,5.175,5.1231,5.0554,5.0171,5.008,4.98,4.9011,4.8897,4.8744,4.8345,4.8306,4.8306,4.8306,4.759,4.7131,4.7131,4.6416,4.5975,4.5975,4.6691,4.7131,4.7131,4.7902,4.8306,4.8306,4.8306,4.8306,4.8306,4.6709,4.5938,4.5938,4.5938,4.592,5.3376,0.0,0.0,0.0,0.0,0.0,6.1349,6.1888,6.2432,6.4763,6.4889,6.4963,6.6218,6.7128,6.7431,6.6658,6.6347,6.5874,6.5002,6.4334,6.3833,6.3559,6.2852,6.2355,6.2305,6.1402,6.08,6.08,6.08,6.08,6.08,5.9415,5.7838,5.6107,5.5818,5.5703,5.5703,5.5703,5.5703,5.5703,5.5703,5.5703,5.5665,5.4876,5.4491,5.4453,5.3587,5.2587,5.1568,5.1568,5.1568,5.151,5.0933,5.1048,5.1568,5.1568,5.1568,5.1664,5.2299,5.251,5.2549,5.2779,5.2837,5.301,5.3876,5.4145,5.426,5.4838,5.5184,5.5376,5.5376,5.5376,5.5376,5.5376,5.4741,5.4299,5.4876,5.3203,5.1615,5.1865,5.1018,5.0237,5.0123,4.9617,4.9155,4.8947,4.8639,4.8421,4.8325,4.8306,4.8306,4.8306,4.8104,4.7957,4.7957,4.7774,4.7645,4.7645,4.7847,4.7957,4.7957,4.8196,4.8306,4.8306,4.8306,4.8306,4.8306,4.7259,4.6764,4.6764,4.6764,4.6471,0.0,0.0,0.0,5.6214,0.0,0.0,5.9685,6.031,6.1109,6.3648,6.3936,6.403,6.5032,6.619,6.6812,6.6345,6.6799,6.6722,6.5304,6.5265,6.5096,6.4318,6.3701,6.3177,6.275,6.1885,6.1185,6.0819,6.08,6.0646,6.0281,5.9011,5.7665,5.6291,5.5876,5.5703,5.5703,5.5703,5.5703,5.5703,5.5703,5.5703,5.5684,5.5203,5.4991,5.4972,5.4453,5.376,5.2991,5.2991,5.2356,5.1395,5.1241,5.1491,5.1942,5.2308,5.2442,5.25,5.3029,5.3203,5.326,5.3626,5.3741,5.3895,5.4741,5.4991,5.5107,5.5568,5.5703,5.5703,5.5703,5.5703,5.5703,5.5703,5.5338,5.503,5.5164,5.3876,5.2682,5.2682,5.1567,5.0488,5.0161,4.9709,4.9238,4.873,4.8753,4.871,4.8361,4.8618,4.8691,4.8343,4.8306,4.8306,4.8306,4.8306,4.8306,4.8306,4.8306,4.8306,4.8306,4.8306,4.8471,4.8838,4.8838,4.8838,4.8838,4.8012,4.759,4.759,4.759,4.7352,0.0,0.0,0.0,5.5684,5.5626,0.0,5.8665,5.9146,5.98,6.2346,6.2939,6.3099,6.339,6.4716,6.58,6.58,6.7178,6.7602,6.5736,6.6747,6.7029,6.5258,6.4977,6.4481,6.3421,6.257,6.1735,6.0858,6.08,6.0416,5.955,5.8742,5.7896,5.7041,5.6145,5.5703,5.5703,5.5703,5.5703,5.5703,5.5703,5.5703,5.5703,5.5703,5.5703,5.5703,5.5703,5.5241,5.4491,5.4491,5.3164,5.1193,5.1798,5.2096,5.2269,5.3068,5.3337,5.3356,5.3453,5.3491,5.3606,5.4376,5.4626,5.4761,5.5472,5.5703,5.5703,5.5703,5.5703,5.5703,5.5703,5.5703,5.5703,5.5703,5.5703,5.5491,5.478,5.4242,5.3875,5.3891,5.2473,5.1083,5.0359,5.0205,4.9805,4.8731,4.9242,4.9407,4.8563,4.9187,4.9389,4.8526,4.8526,4.8581,4.8581,4.8581,4.8581,4.8581,4.8581,4.8581,4.8581,4.8581,4.893,4.9721,4.9739,4.9702,4.961,4.8728,4.8306,4.8306,4.8306,4.8306,0.0,0.0,0.0,5.553,5.5203,0.0,5.708,5.6953,5.7165,5.9723,5.9749,5.9948,6.202,6.3184,6.3858,6.3858,6.582,6.7436,6.7714,6.8046,6.7849,6.6786,6.6093,6.5067,6.3455,6.257,6.1735,6.0858,6.08,6.0416,5.955,5.8742,5.7896,5.7041,5.6145,5.5703,5.5703,5.5703,5.5703,5.5703,5.5703,5.5703,5.5703,5.5703,5.5703,5.5703,5.5703,5.5241,5.4491,5.4491,5.4203,5.3703,5.3164,5.3376,5.401,5.4184,5.4241,5.4337,5.4991,5.5203,5.5241,5.5415,5.5472,5.5491,5.5645,5.5703,5.5703,5.5703,5.5703,5.5703,5.5703,5.5703,5.5703,5.5703,5.5703,5.5665,5.5491,5.4891,5.4353,5.4371,5.2688,5.1249,5.1095,5.0842,5.0571,5.0363,5.0453,5.027,4.9463,5.005,5.0233,4.9352,4.9884,5.0306,5.0306,5.0306,5.0306,5.0306,5.0306,5.0306,5.0306,5.0306,5.0398,5.0563,5.0563,5.0251,4.961,4.8728,4.8306,4.8306,4.8306,4.8306,5.5318,5.5107,5.5203,5.5588,5.5395,0.0,0.0,5.6656,5.6819,5.855,5.8588,5.8684,5.9973,6.0858,6.1685,6.2551,6.4109,6.5667,6.6974,6.7878,6.8244,6.7802,6.7013,6.5994,6.4724,6.3455,6.2166,6.0896,6.08,6.0242,5.8973,5.8531,5.7703,5.6387,5.5934,5.5703,5.5703,5.5703,5.5703,5.5703,5.5703,5.5703,5.5703,5.5703,5.5703,5.5703,5.5703,5.5472,5.5107,5.5107,5.5107,5.5011,5.4184,5.4126,5.4549,5.4953,5.5107,5.5164,5.5549,5.5703,5.5703,5.5703,5.5703,5.5703,5.5703,5.5703,5.5703,5.5703,5.5703,5.5703,5.5703,5.5703,5.5703,5.5703,5.5703,5.5703,5.5703,5.5228,5.4734,5.4553,5.3444,5.2363,5.1749,5.1495,5.1261,5.0857,5.1132,5.1114,5.0288,5.0894,5.1077,5.0233,5.0545,5.0802,5.0802,5.0802,5.0802,5.0802,5.0802,5.0802,5.0802,5.0802,5.0986,5.1389,5.1389,5.1187,5.0804,4.9958,4.9334,4.8948,4.8948,4.8948,5.6395,5.6203,5.6165,5.5992,5.5953,5.6088,0.0,0.0,0.0,5.7646,5.78,5.7857,5.803,5.8588,5.9473,6.0889,6.1935,6.3128,6.4705,6.6224,6.7321,6.7628,6.7051,6.6301,6.5474,6.3993,6.2512,6.1146,6.0877,6.0146,5.8607,5.8377,5.7588,5.5992,5.578,5.5703,5.5703,5.5703,5.5703,5.5703,5.5703,5.5703,5.5703,5.5703,5.5703,5.5703,5.5703,5.5703,5.5703,5.5703,5.5703,5.5645,5.4972,5.4722,5.4799,5.5453,5.5703,5.5703,5.5703,5.5703,5.5703,5.5703,5.5703,5.5703,5.5703,5.5703,5.5703,5.5703,5.5703,5.5703,5.5703,5.5703,5.5703,5.5703,5.5703,5.5703,5.5703,5.5368,5.4979,5.4582,5.4118,5.3459,5.241,5.2234,5.2013,5.1371,5.1811,5.194,5.1132,5.172,5.1922,5.1114,5.1169,5.1261,5.1261,5.1261,5.1261,5.1261,5.1261,5.1261,5.1261,5.1261,5.1573,5.2215,5.2234,5.2142,5.1995,5.1499,5.0765,4.9831,4.9831,4.9757,5.803,5.8011,5.7819,5.706,5.6849,5.6676,5.5992,0.0,5.5876,5.5972,0.0,5.6222,5.7022,0.0,0.0,5.7561,5.8896,6.0262,6.1243,6.2204,6.3358,6.4859,6.4936,6.4551,6.3685,6.2762,6.2159,6.1966,6.1243,6.0377,5.9415,5.8684,5.7857,5.6887,5.6088,5.5703,5.5703,5.5703,5.5703,5.5703,5.5703,5.5703,5.5703,5.5703,5.5703,5.5703,5.5703,5.5703,5.5703,5.5703,5.5703,5.5684,5.5588,5.5549,5.5568,5.5665,5.5703,5.5703,5.5703,5.5703,5.5703,5.5703,5.5703,5.5703,5.5703,5.5703,5.5703,5.5703,5.5703,5.5703,5.5703,5.5703,5.5703,5.5703,5.5703,5.5703,5.5703,5.5368,5.4979,5.4582,5.4118,5.3645,5.3143,5.3078,5.3041,5.2949,5.3023,5.2766,5.1958,5.2564,5.2766,5.194,5.2509,5.2928,5.2928,5.2928,5.2928,5.2928,5.2928,5.2928,5.2928,5.2928,5.2986,5.3078,5.3078,5.2711,5.1995,5.2619,5.216,5.0655,5.0655,5.027,5.83,5.83,5.8204,5.7857,5.7357,5.6907,5.6541,5.6049,5.5703,5.5703,0.0,0.0,0.0,0.0,0.0,0.0,5.7599,5.8338,5.9223,5.9665,6.1243,6.4916,6.4455,6.3531,6.2685,6.2312,6.1889,6.1377,6.1012,6.0223,5.8877,5.8492,5.7665,5.6291,5.5876,5.5703,5.5703,5.5703,5.5703,5.5703,5.5703,5.5703,5.5703,5.5703,5.5703,5.5703,5.5703,5.5703,5.5703,5.5703,5.5992,5.6406,5.5895,5.5703,5.5703,5.5703,5.5703,5.5703,5.5703,5.5703,5.5703,5.5703,5.5703,5.5703,5.5703,5.5703,5.5703,5.5703,5.5703,5.5703,5.5703,5.5703,5.5703,5.5703,5.5512,5.5343,5.5343,5.5034,5.4625,5.4187,5.3923,5.3663,5.3272,5.3185,5.3185,5.3185,5.3185,5.3096,5.2747,5.3004,5.3057,5.2729,5.3004,5.3185,5.3185,5.3185,5.3185,5.3185,5.3185,5.3185,5.3185,5.3185,5.3185,5.3185,5.3185,5.3041,5.2711,5.3041,5.2837,5.2197,5.1701,5.1316,5.83,5.83,5.8242,5.7992,5.7473,5.6945,5.6695,5.6349,5.6049,5.6049,5.6242,0.0,0.0,0.0,5.6453,5.6618,0.0,5.7137,5.753,5.7588,5.9146,6.332,6.3108,6.2474,6.2139,6.2101,6.1735,6.0858,6.0569,5.9704,5.803,5.7934,5.7242,5.5742,5.5703,5.5703,5.5703,5.5703,5.5703,5.5703,5.5703,5.5703,5.5703,5.5703,5.5703,5.5703,5.5703,5.5703,5.5703,5.5703,5.6214,5.6945,5.631,5.6049,5.6049,5.6049,5.6049,5.6088,5.6319,5.6261,5.6088,5.6319,5.6242,5.6049,5.6049,5.6049,5.6011,5.5761,5.5703,5.5703,5.5703,5.5703,5.5703,5.5703,5.5399,5.5088,5.5088,5.4686,5.4279,5.4149,5.385,5.36,5.3545,5.3353,5.3185,5.3185,5.3185,5.3185,5.3185,5.3185,5.3185,5.3185,5.3185,5.3185,5.3185,5.3185,5.3185,5.3185,5.3185,5.3185,5.3185,5.3185,5.3185,5.3185,5.3185,5.3185,5.3185,5.3185,5.3185,5.3206,5.2601,5.2197,5.83,5.83,5.8107,5.7253,5.7022,5.6791,5.5934,5.6368,5.6964,5.6964,5.7627,5.8223,5.8223,5.8223,5.7665,0.0,5.6445,0.0,0.0,5.578,5.6472,5.8319,5.9935,6.1204,6.2024,6.2101,6.1735,6.0858,6.0012,5.88,5.7137,5.7041,5.6637,5.5722,5.5703,5.5703,5.5703,5.5703,5.5703,5.5703,5.5703,5.5703,5.5703,5.5703,5.5703,5.5703,5.5703,5.5703,5.5703,5.5703,5.6214,5.7003,5.6964,5.6964,5.6964,5.6964,5.6964,5.708,5.7915,5.7665,5.7099,5.7934,5.7646,5.6964,5.6964,5.6964,5.6791,5.5934,5.5703,5.5703,5.5703,5.5703,5.5703,5.5703,5.5399,5.5088,5.5088,5.4433,5.4038,5.4801,5.402,5.3466,5.4234,5.372,5.3185,5.3185,5.3185,5.3185,5.3185,5.3185,5.3185,5.3185,5.3185,5.3185,5.3185,5.3185,5.3185,5.3185,5.3185,5.3185,5.3185,5.3185,5.3185,5.3185,5.3185,5.3185,5.3185,5.3185,5.3185,5.3185,5.3167,5.2747,5.88,5.9088,5.8896,5.8069,5.7434,5.6637,5.5222,5.5549,5.6126,5.6126,5.728,5.83,5.83,5.83,0.0,0.0,0.0,0.0,0.0,5.5703,5.6126,5.73,5.8915,6.0069,6.0339,6.0377,6.0031,5.9204,5.8877,5.8204,5.706,5.7003,5.6599,5.5722,5.5703,5.5703,5.5703,5.5703,5.5703,5.5703,5.5703,5.5703,5.5703,5.5703,5.5703,5.5703,5.5703,5.5703,5.5703,5.5703,5.6214,5.7003,5.7003,5.7349,5.7857,5.7857,5.7492,5.7118,5.7992,5.8107,5.7915,5.8204,5.8107,5.7857,5.7857,5.7857,5.78,5.7492,5.7011,5.656,5.656,5.6126,5.5838,5.6426,5.6026,5.5651,5.6182,5.5603,5.5062,5.5339,5.4638,5.4087,5.4344,5.4179,5.3812,5.3277,5.3185,5.3185,5.3185,5.3185,5.3185,5.3185,5.3185,5.3185,5.3185,5.3185,5.3185,5.3185,5.3185,5.3185,5.3185,5.3185,5.3185,5.3185,5.3185,5.3185,5.3185,5.3185,5.3185,5.3185,5.3185,5.3059,5.8319,5.8838,5.8877,5.803,5.7415,5.6714,5.5626,5.603,5.6703,5.6992,5.8184,5.9088,5.8781,0.0,0.0,0.0,0.0,0.0,0.0,5.5261,5.5588,5.6445,5.7761,5.8723,5.905,5.9069,5.8607,5.7453,5.7665,5.7319,5.6175,5.6387,5.6291,5.5722,5.5703,5.5703,5.5703,5.6011,5.6011,5.5703,5.6011,5.5992,5.5703,5.5703,5.5703,5.5703,5.5703,5.5703,5.5703,5.5703,5.6214,5.7041,5.7338,5.7819,5.8338,5.8627,5.8569,5.8415,5.8992,5.8992,5.8781,5.9088,5.8973,5.8723,5.8723,5.8723,5.8665,5.8377,5.7896,5.7453,5.7453,5.7049,5.6761,5.7319,5.6791,5.626,5.6788,5.6234,5.5666,5.5959,5.5372,5.4913,5.5207,5.4785,5.4124,5.3314,5.3445,5.3537,5.3243,5.3185,5.3185,5.3185,5.3185,5.3185,5.3185,5.3185,5.3185,5.3185,5.3185,5.3185,5.3185,5.3185,5.3335,5.3628,5.3353,5.3332,5.3628,5.3332,5.3185,5.3185,5.3185,5.306]}]]